<?xml version="1.0" encoding="UTF-8" standalone="no" ?>
<gpx xmlns="http://www.topografix.com/GPX/1/1" xmlns:xsi="http://www.w3.org/2001/XMLSchema-instance" xsi:schemaLocation="http://www.topografix.com/GPX/1/1 http://www.topografix.com/GPX/1/1/gpx.xsd" version="1.1" creator="VisuGPX - https://www.visugpx.com">
  <metadata>
    <name>tourReplomb</name>
    <desc><![CDATA[tour du replomb]]></desc>
  </metadata>
  <trk>
    <name><![CDATA[2016-09-11 08:36]]></name>
    <desc><![CDATA[<p>Heure de départ: 09/11/2016 08:37</p><p>Heure d'arrivée: 09/11/2016 18:26</p><p>Distance: 34,9 km (09:49)</p><p>Temps déplacement: 07:03</p><p>Vitesse moyenne: 3,56 km/h</p><p>Vitesse moyenne mouv.: 4,95 km/h</p><p>Vitesse Max.: 17,5km/h</p><p>Altitude minimale: 242 m</p><p>Altitude maximale: 2394 m</p><p>Vitesse de montée: 1221,1 m/h</p><p>Vitesse de descente: -1461,4 m/h</p><p>Gain d'altitude: 6280 m</p><p>Perte d'altitude: -6314 m</p><p>Temps de montée: 05:08</p><p>Temps de descente: 04:19</p><hr align="center" width="480" style="height: 2px; width: 517px"/>]]></desc>
    <trkseg>
      <trkpt lat="45.27199" lon="5.92589">
        <ele>276</ele>
        <time>2016-09-11T06:37:35Z</time>
      </trkpt>
      <trkpt lat="45.2718" lon="5.92582">
        <ele>273</ele>
        <time>2016-09-11T06:37:56Z</time>
      </trkpt>
      <trkpt lat="45.27162" lon="5.92578">
        <ele>282</ele>
        <time>2016-09-11T06:38:23Z</time>
      </trkpt>
      <trkpt lat="45.27141" lon="5.92579">
        <ele>282</ele>
        <time>2016-09-11T06:38:33Z</time>
      </trkpt>
      <trkpt lat="45.27123" lon="5.92577">
        <ele>284</ele>
        <time>2016-09-11T06:38:46Z</time>
      </trkpt>
      <trkpt lat="45.27103" lon="5.92575">
        <ele>288</ele>
        <time>2016-09-11T06:39:01Z</time>
      </trkpt>
      <trkpt lat="45.27086" lon="5.92566">
        <ele>290</ele>
        <time>2016-09-11T06:39:17Z</time>
      </trkpt>
      <trkpt lat="45.27067" lon="5.9256">
        <ele>301</ele>
        <time>2016-09-11T06:39:25Z</time>
      </trkpt>
      <trkpt lat="45.27051" lon="5.92572">
        <ele>304</ele>
        <time>2016-09-11T06:39:45Z</time>
      </trkpt>
      <trkpt lat="45.27029" lon="5.92572">
        <ele>308</ele>
        <time>2016-09-11T06:40:28Z</time>
      </trkpt>
      <trkpt lat="45.2701" lon="5.92561">
        <ele>310</ele>
        <time>2016-09-11T06:40:34Z</time>
      </trkpt>
      <trkpt lat="45.26996" lon="5.92538">
        <ele>323</ele>
        <time>2016-09-11T06:40:44Z</time>
      </trkpt>
      <trkpt lat="45.26979" lon="5.9253">
        <ele>323</ele>
        <time>2016-09-11T06:41:00Z</time>
      </trkpt>
      <trkpt lat="45.26964" lon="5.92513">
        <ele>324</ele>
        <time>2016-09-11T06:41:18Z</time>
      </trkpt>
      <trkpt lat="45.26946" lon="5.92508">
        <ele>327</ele>
        <time>2016-09-11T06:41:34Z</time>
      </trkpt>
      <trkpt lat="45.26927" lon="5.92511">
        <ele>330</ele>
        <time>2016-09-11T06:41:57Z</time>
      </trkpt>
      <trkpt lat="45.26909" lon="5.92506">
        <ele>338</ele>
        <time>2016-09-11T06:42:09Z</time>
      </trkpt>
      <trkpt lat="45.26894" lon="5.92492">
        <ele>337</ele>
        <time>2016-09-11T06:42:23Z</time>
      </trkpt>
      <trkpt lat="45.26878" lon="5.92475">
        <ele>339</ele>
        <time>2016-09-11T06:42:36Z</time>
      </trkpt>
      <trkpt lat="45.26864" lon="5.92459">
        <ele>340</ele>
        <time>2016-09-11T06:42:46Z</time>
      </trkpt>
      <trkpt lat="45.2685" lon="5.92442">
        <ele>341</ele>
        <time>2016-09-11T06:43:02Z</time>
      </trkpt>
      <trkpt lat="45.26835" lon="5.92425">
        <ele>343</ele>
        <time>2016-09-11T06:43:13Z</time>
      </trkpt>
      <trkpt lat="45.26821" lon="5.92409">
        <ele>343</ele>
        <time>2016-09-11T06:43:27Z</time>
      </trkpt>
      <trkpt lat="45.26805" lon="5.92396">
        <ele>343</ele>
        <time>2016-09-11T06:43:41Z</time>
      </trkpt>
      <trkpt lat="45.26787" lon="5.92398">
        <ele>344</ele>
        <time>2016-09-11T06:43:56Z</time>
      </trkpt>
      <trkpt lat="45.26771" lon="5.92411">
        <ele>346</ele>
        <time>2016-09-11T06:44:10Z</time>
      </trkpt>
      <trkpt lat="45.26754" lon="5.92422">
        <ele>353</ele>
        <time>2016-09-11T06:44:20Z</time>
      </trkpt>
      <trkpt lat="45.26736" lon="5.92429">
        <ele>362</ele>
        <time>2016-09-11T06:44:37Z</time>
      </trkpt>
      <trkpt lat="45.26724" lon="5.92449">
        <ele>367</ele>
        <time>2016-09-11T06:45:28Z</time>
      </trkpt>
      <trkpt lat="45.26707" lon="5.9246">
        <ele>370</ele>
        <time>2016-09-11T06:45:38Z</time>
      </trkpt>
      <trkpt lat="45.26693" lon="5.92478">
        <ele>372</ele>
        <time>2016-09-11T06:45:55Z</time>
      </trkpt>
      <trkpt lat="45.26686" lon="5.92453">
        <ele>371</ele>
        <time>2016-09-11T06:46:12Z</time>
      </trkpt>
      <trkpt lat="45.26665" lon="5.92452">
        <ele>383</ele>
        <time>2016-09-11T06:46:51Z</time>
      </trkpt>
      <trkpt lat="45.26655" lon="5.92476">
        <ele>385</ele>
        <time>2016-09-11T06:47:06Z</time>
      </trkpt>
      <trkpt lat="45.2664" lon="5.92494">
        <ele>386</ele>
        <time>2016-09-11T06:47:25Z</time>
      </trkpt>
      <trkpt lat="45.26625" lon="5.92479">
        <ele>388</ele>
        <time>2016-09-11T06:47:47Z</time>
      </trkpt>
      <trkpt lat="45.2661" lon="5.92464">
        <ele>389</ele>
        <time>2016-09-11T06:48:04Z</time>
      </trkpt>
      <trkpt lat="45.26601" lon="5.92487">
        <ele>393</ele>
        <time>2016-09-11T06:48:35Z</time>
      </trkpt>
      <trkpt lat="45.26588" lon="5.92508">
        <ele>399</ele>
        <time>2016-09-11T06:48:48Z</time>
      </trkpt>
      <trkpt lat="45.2658" lon="5.92533">
        <ele>413</ele>
        <time>2016-09-11T06:49:12Z</time>
      </trkpt>
      <trkpt lat="45.26562" lon="5.92539">
        <ele>415</ele>
        <time>2016-09-11T06:49:37Z</time>
      </trkpt>
      <trkpt lat="45.26545" lon="5.92528">
        <ele>418</ele>
        <time>2016-09-11T06:49:52Z</time>
      </trkpt>
      <trkpt lat="45.26527" lon="5.92526">
        <ele>421</ele>
        <time>2016-09-11T06:50:11Z</time>
      </trkpt>
      <trkpt lat="45.26509" lon="5.92521">
        <ele>424</ele>
        <time>2016-09-11T06:50:31Z</time>
      </trkpt>
      <trkpt lat="45.2649" lon="5.92518">
        <ele>438</ele>
        <time>2016-09-11T06:50:51Z</time>
      </trkpt>
      <trkpt lat="45.26471" lon="5.92515">
        <ele>441</ele>
        <time>2016-09-11T06:51:14Z</time>
      </trkpt>
      <trkpt lat="45.26452" lon="5.92508">
        <ele>445</ele>
        <time>2016-09-11T06:51:31Z</time>
      </trkpt>
      <trkpt lat="45.26441" lon="5.92529">
        <ele>447</ele>
        <time>2016-09-11T06:51:52Z</time>
      </trkpt>
      <trkpt lat="45.26421" lon="5.92532">
        <ele>449</ele>
        <time>2016-09-11T06:52:27Z</time>
      </trkpt>
      <trkpt lat="45.26403" lon="5.92529">
        <ele>463</ele>
        <time>2016-09-11T06:52:59Z</time>
      </trkpt>
      <trkpt lat="45.26384" lon="5.92535">
        <ele>465</ele>
        <time>2016-09-11T06:53:15Z</time>
      </trkpt>
      <trkpt lat="45.26365" lon="5.92535">
        <ele>468</ele>
        <time>2016-09-11T06:53:41Z</time>
      </trkpt>
      <trkpt lat="45.26348" lon="5.92528">
        <ele>470</ele>
        <time>2016-09-11T06:54:03Z</time>
      </trkpt>
      <trkpt lat="45.26329" lon="5.92529">
        <ele>481</ele>
        <time>2016-09-11T06:54:19Z</time>
      </trkpt>
      <trkpt lat="45.26312" lon="5.92521">
        <ele>482</ele>
        <time>2016-09-11T06:54:31Z</time>
      </trkpt>
      <trkpt lat="45.26295" lon="5.92534">
        <ele>483</ele>
        <time>2016-09-11T06:54:44Z</time>
      </trkpt>
      <trkpt lat="45.2628" lon="5.92552">
        <ele>484</ele>
        <time>2016-09-11T06:54:57Z</time>
      </trkpt>
      <trkpt lat="45.26266" lon="5.92568">
        <ele>487</ele>
        <time>2016-09-11T06:55:11Z</time>
      </trkpt>
      <trkpt lat="45.26249" lon="5.92573">
        <ele>497</ele>
        <time>2016-09-11T06:55:30Z</time>
      </trkpt>
      <trkpt lat="45.26237" lon="5.92552">
        <ele>500</ele>
        <time>2016-09-11T06:55:47Z</time>
      </trkpt>
      <trkpt lat="45.26227" lon="5.92529">
        <ele>500</ele>
        <time>2016-09-11T06:56:03Z</time>
      </trkpt>
      <trkpt lat="45.26215" lon="5.9251">
        <ele>501</ele>
        <time>2016-09-11T06:56:19Z</time>
      </trkpt>
      <trkpt lat="45.26201" lon="5.92492">
        <ele>496</ele>
        <time>2016-09-11T06:56:37Z</time>
      </trkpt>
      <trkpt lat="45.26184" lon="5.92482">
        <ele>499</ele>
        <time>2016-09-11T06:56:50Z</time>
      </trkpt>
      <trkpt lat="45.2617" lon="5.92466">
        <ele>497</ele>
        <time>2016-09-11T06:57:07Z</time>
      </trkpt>
      <trkpt lat="45.26154" lon="5.92451">
        <ele>513</ele>
        <time>2016-09-11T06:57:23Z</time>
      </trkpt>
      <trkpt lat="45.26138" lon="5.92437">
        <ele>514</ele>
        <time>2016-09-11T06:57:39Z</time>
      </trkpt>
      <trkpt lat="45.26123" lon="5.92424">
        <ele>517</ele>
        <time>2016-09-11T06:57:54Z</time>
      </trkpt>
      <trkpt lat="45.26108" lon="5.92408">
        <ele>512</ele>
        <time>2016-09-11T06:58:10Z</time>
      </trkpt>
      <trkpt lat="45.26093" lon="5.92394">
        <ele>514</ele>
        <time>2016-09-11T06:58:23Z</time>
      </trkpt>
      <trkpt lat="45.26078" lon="5.9238">
        <ele>533</ele>
        <time>2016-09-11T06:58:49Z</time>
      </trkpt>
      <trkpt lat="45.26061" lon="5.92368">
        <ele>535</ele>
        <time>2016-09-11T06:58:57Z</time>
      </trkpt>
      <trkpt lat="45.26047" lon="5.92352">
        <ele>536</ele>
        <time>2016-09-11T06:59:07Z</time>
      </trkpt>
      <trkpt lat="45.26034" lon="5.92333">
        <ele>534</ele>
        <time>2016-09-11T06:59:19Z</time>
      </trkpt>
      <trkpt lat="45.26022" lon="5.92311">
        <ele>536</ele>
        <time>2016-09-11T06:59:35Z</time>
      </trkpt>
      <trkpt lat="45.26008" lon="5.92295">
        <ele>536</ele>
        <time>2016-09-11T06:59:48Z</time>
      </trkpt>
      <trkpt lat="45.25994" lon="5.92276">
        <ele>553</ele>
        <time>2016-09-11T07:00:01Z</time>
      </trkpt>
      <trkpt lat="45.25984" lon="5.92253">
        <ele>551</ele>
        <time>2016-09-11T07:00:25Z</time>
      </trkpt>
      <trkpt lat="45.25968" lon="5.92241">
        <ele>548</ele>
        <time>2016-09-11T07:00:36Z</time>
      </trkpt>
      <trkpt lat="45.25951" lon="5.92223">
        <ele>550</ele>
        <time>2016-09-11T07:00:51Z</time>
      </trkpt>
      <trkpt lat="45.25938" lon="5.92205">
        <ele>551</ele>
        <time>2016-09-11T07:01:07Z</time>
      </trkpt>
      <trkpt lat="45.25923" lon="5.92189">
        <ele>552</ele>
        <time>2016-09-11T07:01:22Z</time>
      </trkpt>
      <trkpt lat="45.25906" lon="5.92177">
        <ele>564</ele>
        <time>2016-09-11T07:01:38Z</time>
      </trkpt>
      <trkpt lat="45.25886" lon="5.92172">
        <ele>570</ele>
        <time>2016-09-11T07:01:58Z</time>
      </trkpt>
      <trkpt lat="45.25868" lon="5.9218">
        <ele>574</ele>
        <time>2016-09-11T07:02:18Z</time>
      </trkpt>
      <trkpt lat="45.25847" lon="5.92183">
        <ele>577</ele>
        <time>2016-09-11T07:02:48Z</time>
      </trkpt>
      <trkpt lat="45.25825" lon="5.92192">
        <ele>589</ele>
        <time>2016-09-11T07:03:21Z</time>
      </trkpt>
      <trkpt lat="45.25807" lon="5.92191">
        <ele>591</ele>
        <time>2016-09-11T07:03:33Z</time>
      </trkpt>
      <trkpt lat="45.25788" lon="5.92188">
        <ele>594</ele>
        <time>2016-09-11T07:03:51Z</time>
      </trkpt>
      <trkpt lat="45.2577" lon="5.92183">
        <ele>596</ele>
        <time>2016-09-11T07:04:15Z</time>
      </trkpt>
      <trkpt lat="45.25754" lon="5.92168">
        <ele>599</ele>
        <time>2016-09-11T07:04:28Z</time>
      </trkpt>
      <trkpt lat="45.25737" lon="5.92158">
        <ele>600</ele>
        <time>2016-09-11T07:04:42Z</time>
      </trkpt>
      <trkpt lat="45.25721" lon="5.92141">
        <ele>599</ele>
        <time>2016-09-11T07:04:54Z</time>
      </trkpt>
      <trkpt lat="45.25706" lon="5.92127">
        <ele>599</ele>
        <time>2016-09-11T07:05:08Z</time>
      </trkpt>
      <trkpt lat="45.25687" lon="5.9213">
        <ele>601</ele>
        <time>2016-09-11T07:05:22Z</time>
      </trkpt>
      <trkpt lat="45.25671" lon="5.92144">
        <ele>603</ele>
        <time>2016-09-11T07:05:35Z</time>
      </trkpt>
      <trkpt lat="45.25657" lon="5.9216">
        <ele>607</ele>
        <time>2016-09-11T07:05:47Z</time>
      </trkpt>
      <trkpt lat="45.25641" lon="5.92173">
        <ele>612</ele>
        <time>2016-09-11T07:05:59Z</time>
      </trkpt>
      <trkpt lat="45.25625" lon="5.92188">
        <ele>613</ele>
        <time>2016-09-11T07:06:13Z</time>
      </trkpt>
      <trkpt lat="45.25608" lon="5.92196">
        <ele>614</ele>
        <time>2016-09-11T07:06:49Z</time>
      </trkpt>
      <trkpt lat="45.25589" lon="5.92204">
        <ele>614</ele>
        <time>2016-09-11T07:07:04Z</time>
      </trkpt>
      <trkpt lat="45.25573" lon="5.92218">
        <ele>613</ele>
        <time>2016-09-11T07:07:16Z</time>
      </trkpt>
      <trkpt lat="45.25556" lon="5.92228">
        <ele>613</ele>
        <time>2016-09-11T07:07:27Z</time>
      </trkpt>
      <trkpt lat="45.2554" lon="5.9224">
        <ele>613</ele>
        <time>2016-09-11T07:07:41Z</time>
      </trkpt>
      <trkpt lat="45.25521" lon="5.92244">
        <ele>614</ele>
        <time>2016-09-11T07:07:55Z</time>
      </trkpt>
      <trkpt lat="45.25503" lon="5.92246">
        <ele>616</ele>
        <time>2016-09-11T07:08:09Z</time>
      </trkpt>
      <trkpt lat="45.25483" lon="5.92248">
        <ele>610</ele>
        <time>2016-09-11T07:08:23Z</time>
      </trkpt>
      <trkpt lat="45.25463" lon="5.92248">
        <ele>607</ele>
        <time>2016-09-11T07:08:34Z</time>
      </trkpt>
      <trkpt lat="45.25444" lon="5.9225">
        <ele>606</ele>
        <time>2016-09-11T07:08:44Z</time>
      </trkpt>
      <trkpt lat="45.2543" lon="5.92267">
        <ele>613</ele>
        <time>2016-09-11T07:08:57Z</time>
      </trkpt>
      <trkpt lat="45.25424" lon="5.92292">
        <ele>616</ele>
        <time>2016-09-11T07:09:11Z</time>
      </trkpt>
      <trkpt lat="45.25419" lon="5.92317">
        <ele>615</ele>
        <time>2016-09-11T07:09:21Z</time>
      </trkpt>
      <trkpt lat="45.25417" lon="5.92344">
        <ele>617</ele>
        <time>2016-09-11T07:09:35Z</time>
      </trkpt>
      <trkpt lat="45.25419" lon="5.92372">
        <ele>622</ele>
        <time>2016-09-11T07:09:47Z</time>
      </trkpt>
      <trkpt lat="45.25419" lon="5.92398">
        <ele>620</ele>
        <time>2016-09-11T07:09:58Z</time>
      </trkpt>
      <trkpt lat="45.25417" lon="5.92424">
        <ele>616</ele>
        <time>2016-09-11T07:10:10Z</time>
      </trkpt>
      <trkpt lat="45.25413" lon="5.92451">
        <ele>598</ele>
        <time>2016-09-11T07:10:24Z</time>
      </trkpt>
      <trkpt lat="45.2541" lon="5.92477">
        <ele>599</ele>
        <time>2016-09-11T07:10:38Z</time>
      </trkpt>
      <trkpt lat="45.25408" lon="5.92502">
        <ele>605</ele>
        <time>2016-09-11T07:10:52Z</time>
      </trkpt>
      <trkpt lat="45.25404" lon="5.92528">
        <ele>598</ele>
        <time>2016-09-11T07:11:06Z</time>
      </trkpt>
      <trkpt lat="45.25401" lon="5.92554">
        <ele>598</ele>
        <time>2016-09-11T07:11:22Z</time>
      </trkpt>
      <trkpt lat="45.25401" lon="5.92582">
        <ele>602</ele>
        <time>2016-09-11T07:11:37Z</time>
      </trkpt>
      <trkpt lat="45.25399" lon="5.92609">
        <ele>601</ele>
        <time>2016-09-11T07:11:49Z</time>
      </trkpt>
      <trkpt lat="45.25401" lon="5.92636">
        <ele>602</ele>
        <time>2016-09-11T07:12:02Z</time>
      </trkpt>
      <trkpt lat="45.25403" lon="5.92662">
        <ele>605</ele>
        <time>2016-09-11T07:12:14Z</time>
      </trkpt>
      <trkpt lat="45.25401" lon="5.92689">
        <ele>607</ele>
        <time>2016-09-11T07:12:24Z</time>
      </trkpt>
      <trkpt lat="45.25401" lon="5.92715">
        <ele>608</ele>
        <time>2016-09-11T07:12:36Z</time>
      </trkpt>
      <trkpt lat="45.25398" lon="5.92741">
        <ele>610</ele>
        <time>2016-09-11T07:12:46Z</time>
      </trkpt>
      <trkpt lat="45.25396" lon="5.92767">
        <ele>614</ele>
        <time>2016-09-11T07:12:58Z</time>
      </trkpt>
      <trkpt lat="45.25391" lon="5.92792">
        <ele>614</ele>
        <time>2016-09-11T07:13:11Z</time>
      </trkpt>
      <trkpt lat="45.25383" lon="5.92817">
        <ele>614</ele>
        <time>2016-09-11T07:13:23Z</time>
      </trkpt>
      <trkpt lat="45.25378" lon="5.92845">
        <ele>618</ele>
        <time>2016-09-11T07:13:37Z</time>
      </trkpt>
      <trkpt lat="45.25371" lon="5.9287">
        <ele>617</ele>
        <time>2016-09-11T07:13:51Z</time>
      </trkpt>
      <trkpt lat="45.25365" lon="5.92896">
        <ele>617</ele>
        <time>2016-09-11T07:14:06Z</time>
      </trkpt>
      <trkpt lat="45.25357" lon="5.9292">
        <ele>620</ele>
        <time>2016-09-11T07:14:18Z</time>
      </trkpt>
      <trkpt lat="45.25347" lon="5.92942">
        <ele>620</ele>
        <time>2016-09-11T07:14:32Z</time>
      </trkpt>
      <trkpt lat="45.25341" lon="5.92968">
        <ele>622</ele>
        <time>2016-09-11T07:14:43Z</time>
      </trkpt>
      <trkpt lat="45.25333" lon="5.92992">
        <ele>623</ele>
        <time>2016-09-11T07:14:55Z</time>
      </trkpt>
      <trkpt lat="45.25325" lon="5.93017">
        <ele>617</ele>
        <time>2016-09-11T07:15:07Z</time>
      </trkpt>
      <trkpt lat="45.25341" lon="5.93029">
        <ele>626</ele>
        <time>2016-09-11T07:16:22Z</time>
      </trkpt>
      <trkpt lat="45.2536" lon="5.93033">
        <ele>627</ele>
        <time>2016-09-11T07:16:34Z</time>
      </trkpt>
      <trkpt lat="45.25379" lon="5.9304">
        <ele>628</ele>
        <time>2016-09-11T07:16:46Z</time>
      </trkpt>
      <trkpt lat="45.25399" lon="5.93045">
        <ele>629</ele>
        <time>2016-09-11T07:16:58Z</time>
      </trkpt>
      <trkpt lat="45.25417" lon="5.93049">
        <ele>643</ele>
        <time>2016-09-11T07:17:15Z</time>
      </trkpt>
      <trkpt lat="45.25435" lon="5.93056">
        <ele>644</ele>
        <time>2016-09-11T07:17:32Z</time>
      </trkpt>
      <trkpt lat="45.25453" lon="5.93057">
        <ele>647</ele>
        <time>2016-09-11T07:17:47Z</time>
      </trkpt>
      <trkpt lat="45.25471" lon="5.93065">
        <ele>652</ele>
        <time>2016-09-11T07:18:18Z</time>
      </trkpt>
      <trkpt lat="45.25489" lon="5.93067">
        <ele>656</ele>
        <time>2016-09-11T07:18:29Z</time>
      </trkpt>
      <trkpt lat="45.25502" lon="5.93049">
        <ele>679</ele>
        <time>2016-09-11T07:18:45Z</time>
      </trkpt>
      <trkpt lat="45.25514" lon="5.93031">
        <ele>679</ele>
        <time>2016-09-11T07:19:06Z</time>
      </trkpt>
      <trkpt lat="45.25523" lon="5.93007">
        <ele>677</ele>
        <time>2016-09-11T07:19:29Z</time>
      </trkpt>
      <trkpt lat="45.25533" lon="5.92985">
        <ele>677</ele>
        <time>2016-09-11T07:19:59Z</time>
      </trkpt>
      <trkpt lat="45.25548" lon="5.92966">
        <ele>682</ele>
        <time>2016-09-11T07:20:09Z</time>
      </trkpt>
      <trkpt lat="45.25556" lon="5.92941">
        <ele>683</ele>
        <time>2016-09-11T07:20:23Z</time>
      </trkpt>
      <trkpt lat="45.25557" lon="5.92915">
        <ele>681</ele>
        <time>2016-09-11T07:20:35Z</time>
      </trkpt>
      <trkpt lat="45.25562" lon="5.92888">
        <ele>679</ele>
        <time>2016-09-11T07:20:49Z</time>
      </trkpt>
      <trkpt lat="45.25567" lon="5.92864">
        <ele>679</ele>
        <time>2016-09-11T07:21:07Z</time>
      </trkpt>
      <trkpt lat="45.25578" lon="5.9284">
        <ele>686</ele>
        <time>2016-09-11T07:21:30Z</time>
      </trkpt>
      <trkpt lat="45.25594" lon="5.92825">
        <ele>695</ele>
        <time>2016-09-11T07:21:54Z</time>
      </trkpt>
      <trkpt lat="45.25607" lon="5.92809">
        <ele>699</ele>
        <time>2016-09-11T07:22:15Z</time>
      </trkpt>
      <trkpt lat="45.25622" lon="5.92792">
        <ele>701</ele>
        <time>2016-09-11T07:22:35Z</time>
      </trkpt>
      <trkpt lat="45.25632" lon="5.9277">
        <ele>703</ele>
        <time>2016-09-11T07:22:58Z</time>
      </trkpt>
      <trkpt lat="45.25628" lon="5.92744">
        <ele>703</ele>
        <time>2016-09-11T07:23:13Z</time>
      </trkpt>
      <trkpt lat="45.25623" lon="5.92719">
        <ele>702</ele>
        <time>2016-09-11T07:23:27Z</time>
      </trkpt>
      <trkpt lat="45.25623" lon="5.92694">
        <ele>703</ele>
        <time>2016-09-11T07:23:40Z</time>
      </trkpt>
      <trkpt lat="45.25621" lon="5.92667">
        <ele>703</ele>
        <time>2016-09-11T07:23:53Z</time>
      </trkpt>
      <trkpt lat="45.25621" lon="5.9264">
        <ele>704</ele>
        <time>2016-09-11T07:24:06Z</time>
      </trkpt>
      <trkpt lat="45.25634" lon="5.92621">
        <ele>705</ele>
        <time>2016-09-11T07:24:47Z</time>
      </trkpt>
      <trkpt lat="45.25641" lon="5.92597">
        <ele>706</ele>
        <time>2016-09-11T07:25:07Z</time>
      </trkpt>
      <trkpt lat="45.25644" lon="5.92623">
        <ele>706</ele>
        <time>2016-09-11T07:25:45Z</time>
      </trkpt>
      <trkpt lat="45.25643" lon="5.92649">
        <ele>707</ele>
        <time>2016-09-11T07:26:02Z</time>
      </trkpt>
      <trkpt lat="45.25635" lon="5.92673">
        <ele>705</ele>
        <time>2016-09-11T07:26:18Z</time>
      </trkpt>
      <trkpt lat="45.25631" lon="5.92699">
        <ele>704</ele>
        <time>2016-09-11T07:26:31Z</time>
      </trkpt>
      <trkpt lat="45.25622" lon="5.92722">
        <ele>702</ele>
        <time>2016-09-11T07:26:54Z</time>
      </trkpt>
      <trkpt lat="45.25626" lon="5.92747">
        <ele>702</ele>
        <time>2016-09-11T07:27:07Z</time>
      </trkpt>
      <trkpt lat="45.25631" lon="5.92773">
        <ele>702</ele>
        <time>2016-09-11T07:27:19Z</time>
      </trkpt>
      <trkpt lat="45.25635" lon="5.92799">
        <ele>703</ele>
        <time>2016-09-11T07:27:33Z</time>
      </trkpt>
      <trkpt lat="45.25652" lon="5.92808">
        <ele>706</ele>
        <time>2016-09-11T07:28:00Z</time>
      </trkpt>
      <trkpt lat="45.25663" lon="5.92829">
        <ele>712</ele>
        <time>2016-09-11T07:28:15Z</time>
      </trkpt>
      <trkpt lat="45.25663" lon="5.92857">
        <ele>712</ele>
        <time>2016-09-11T07:28:38Z</time>
      </trkpt>
      <trkpt lat="45.25655" lon="5.92881">
        <ele>713</ele>
        <time>2016-09-11T07:29:03Z</time>
      </trkpt>
      <trkpt lat="45.25648" lon="5.92905">
        <ele>716</ele>
        <time>2016-09-11T07:29:32Z</time>
      </trkpt>
      <trkpt lat="45.25659" lon="5.92926">
        <ele>725</ele>
        <time>2016-09-11T07:29:51Z</time>
      </trkpt>
      <trkpt lat="45.25669" lon="5.92949">
        <ele>730</ele>
        <time>2016-09-11T07:30:10Z</time>
      </trkpt>
      <trkpt lat="45.25666" lon="5.92975">
        <ele>732</ele>
        <time>2016-09-11T07:30:30Z</time>
      </trkpt>
      <trkpt lat="45.25661" lon="5.93001">
        <ele>746</ele>
        <time>2016-09-11T07:30:55Z</time>
      </trkpt>
      <trkpt lat="45.25656" lon="5.93028">
        <ele>743</ele>
        <time>2016-09-11T07:31:08Z</time>
      </trkpt>
      <trkpt lat="45.25664" lon="5.93053">
        <ele>748</ele>
        <time>2016-09-11T07:31:24Z</time>
      </trkpt>
      <trkpt lat="45.25677" lon="5.93071">
        <ele>762</ele>
        <time>2016-09-11T07:31:44Z</time>
      </trkpt>
      <trkpt lat="45.2569" lon="5.93089">
        <ele>773</ele>
        <time>2016-09-11T07:32:08Z</time>
      </trkpt>
      <trkpt lat="45.25701" lon="5.93111">
        <ele>775</ele>
        <time>2016-09-11T07:32:23Z</time>
      </trkpt>
      <trkpt lat="45.25715" lon="5.93129">
        <ele>777</ele>
        <time>2016-09-11T07:32:49Z</time>
      </trkpt>
      <trkpt lat="45.25719" lon="5.93154">
        <ele>781</ele>
        <time>2016-09-11T07:33:17Z</time>
      </trkpt>
      <trkpt lat="45.25716" lon="5.9318">
        <ele>791</ele>
        <time>2016-09-11T07:33:50Z</time>
      </trkpt>
      <trkpt lat="45.25699" lon="5.93194">
        <ele>790</ele>
        <time>2016-09-11T07:34:08Z</time>
      </trkpt>
      <trkpt lat="45.257" lon="5.93221">
        <ele>791</ele>
        <time>2016-09-11T07:34:24Z</time>
      </trkpt>
      <trkpt lat="45.25707" lon="5.93244">
        <ele>792</ele>
        <time>2016-09-11T07:34:45Z</time>
      </trkpt>
      <trkpt lat="45.25718" lon="5.93265">
        <ele>798</ele>
        <time>2016-09-11T07:35:00Z</time>
      </trkpt>
      <trkpt lat="45.25726" lon="5.93288">
        <ele>799</ele>
        <time>2016-09-11T07:35:13Z</time>
      </trkpt>
      <trkpt lat="45.25739" lon="5.93306">
        <ele>803</ele>
        <time>2016-09-11T07:35:38Z</time>
      </trkpt>
      <trkpt lat="45.25751" lon="5.93327">
        <ele>812</ele>
        <time>2016-09-11T07:35:50Z</time>
      </trkpt>
      <trkpt lat="45.25765" lon="5.93344">
        <ele>813</ele>
        <time>2016-09-11T07:36:02Z</time>
      </trkpt>
      <trkpt lat="45.25778" lon="5.93362">
        <ele>812</ele>
        <time>2016-09-11T07:36:10Z</time>
      </trkpt>
      <trkpt lat="45.2579" lon="5.93383">
        <ele>813</ele>
        <time>2016-09-11T07:36:26Z</time>
      </trkpt>
      <trkpt lat="45.25805" lon="5.93399">
        <ele>813</ele>
        <time>2016-09-11T07:36:37Z</time>
      </trkpt>
      <trkpt lat="45.25816" lon="5.93419">
        <ele>817</ele>
        <time>2016-09-11T07:36:47Z</time>
      </trkpt>
      <trkpt lat="45.25825" lon="5.93443">
        <ele>818</ele>
        <time>2016-09-11T07:36:57Z</time>
      </trkpt>
      <trkpt lat="45.25831" lon="5.93467">
        <ele>821</ele>
        <time>2016-09-11T07:37:11Z</time>
      </trkpt>
      <trkpt lat="45.25838" lon="5.93495">
        <ele>823</ele>
        <time>2016-09-11T07:37:29Z</time>
      </trkpt>
      <trkpt lat="45.2584" lon="5.93524">
        <ele>826</ele>
        <time>2016-09-11T07:37:41Z</time>
      </trkpt>
      <trkpt lat="45.25845" lon="5.93549">
        <ele>827</ele>
        <time>2016-09-11T07:37:56Z</time>
      </trkpt>
      <trkpt lat="45.25853" lon="5.93573">
        <ele>830</ele>
        <time>2016-09-11T07:38:08Z</time>
      </trkpt>
      <trkpt lat="45.25865" lon="5.93595">
        <ele>836</ele>
        <time>2016-09-11T07:38:23Z</time>
      </trkpt>
      <trkpt lat="45.25875" lon="5.93617">
        <ele>837</ele>
        <time>2016-09-11T07:38:38Z</time>
      </trkpt>
      <trkpt lat="45.25888" lon="5.93635">
        <ele>838</ele>
        <time>2016-09-11T07:39:18Z</time>
      </trkpt>
      <trkpt lat="45.25897" lon="5.93659">
        <ele>841</ele>
        <time>2016-09-11T07:39:37Z</time>
      </trkpt>
      <trkpt lat="45.25891" lon="5.93686">
        <ele>846</ele>
        <time>2016-09-11T07:39:57Z</time>
      </trkpt>
      <trkpt lat="45.25884" lon="5.9371">
        <ele>847</ele>
        <time>2016-09-11T07:40:19Z</time>
      </trkpt>
      <trkpt lat="45.25881" lon="5.93736">
        <ele>848</ele>
        <time>2016-09-11T07:40:45Z</time>
      </trkpt>
      <trkpt lat="45.25873" lon="5.93759">
        <ele>855</ele>
        <time>2016-09-11T07:41:02Z</time>
      </trkpt>
      <trkpt lat="45.25867" lon="5.93784">
        <ele>856</ele>
        <time>2016-09-11T07:42:16Z</time>
      </trkpt>
      <trkpt lat="45.25863" lon="5.9381">
        <ele>859</ele>
        <time>2016-09-11T07:42:31Z</time>
      </trkpt>
      <trkpt lat="45.25862" lon="5.93836">
        <ele>870</ele>
        <time>2016-09-11T07:42:47Z</time>
      </trkpt>
      <trkpt lat="45.25869" lon="5.93862">
        <ele>872</ele>
        <time>2016-09-11T07:43:06Z</time>
      </trkpt>
      <trkpt lat="45.25876" lon="5.93886">
        <ele>875</ele>
        <time>2016-09-11T07:43:25Z</time>
      </trkpt>
      <trkpt lat="45.25882" lon="5.93911">
        <ele>877</ele>
        <time>2016-09-11T07:43:59Z</time>
      </trkpt>
      <trkpt lat="45.25889" lon="5.93935">
        <ele>892</ele>
        <time>2016-09-11T07:44:13Z</time>
      </trkpt>
      <trkpt lat="45.25894" lon="5.93961">
        <ele>897</ele>
        <time>2016-09-11T07:44:27Z</time>
      </trkpt>
      <trkpt lat="45.25895" lon="5.93987">
        <ele>901</ele>
        <time>2016-09-11T07:44:47Z</time>
      </trkpt>
      <trkpt lat="45.25906" lon="5.94011">
        <ele>910</ele>
        <time>2016-09-11T07:44:59Z</time>
      </trkpt>
      <trkpt lat="45.25913" lon="5.94036">
        <ele>914</ele>
        <time>2016-09-11T07:45:17Z</time>
      </trkpt>
      <trkpt lat="45.25912" lon="5.94062">
        <ele>917</ele>
        <time>2016-09-11T07:45:34Z</time>
      </trkpt>
      <trkpt lat="45.25915" lon="5.94088">
        <ele>922</ele>
        <time>2016-09-11T07:45:48Z</time>
      </trkpt>
      <trkpt lat="45.25911" lon="5.94113">
        <ele>921</ele>
        <time>2016-09-11T07:46:01Z</time>
      </trkpt>
      <trkpt lat="45.25906" lon="5.94138">
        <ele>922</ele>
        <time>2016-09-11T07:46:21Z</time>
      </trkpt>
      <trkpt lat="45.25907" lon="5.94165">
        <ele>925</ele>
        <time>2016-09-11T07:46:34Z</time>
      </trkpt>
      <trkpt lat="45.25906" lon="5.94192">
        <ele>923</ele>
        <time>2016-09-11T07:46:45Z</time>
      </trkpt>
      <trkpt lat="45.25904" lon="5.94218">
        <ele>922</ele>
        <time>2016-09-11T07:47:04Z</time>
      </trkpt>
      <trkpt lat="45.25905" lon="5.94247">
        <ele>924</ele>
        <time>2016-09-11T07:47:16Z</time>
      </trkpt>
      <trkpt lat="45.25905" lon="5.94276">
        <ele>924</ele>
        <time>2016-09-11T07:47:29Z</time>
      </trkpt>
      <trkpt lat="45.2591" lon="5.94301">
        <ele>925</ele>
        <time>2016-09-11T07:47:45Z</time>
      </trkpt>
      <trkpt lat="45.25912" lon="5.94326">
        <ele>931</ele>
        <time>2016-09-11T07:48:01Z</time>
      </trkpt>
      <trkpt lat="45.25917" lon="5.94351">
        <ele>931</ele>
        <time>2016-09-11T07:48:12Z</time>
      </trkpt>
      <trkpt lat="45.25918" lon="5.94377">
        <ele>932</ele>
        <time>2016-09-11T07:48:21Z</time>
      </trkpt>
      <trkpt lat="45.25917" lon="5.94403">
        <ele>937</ele>
        <time>2016-09-11T07:48:34Z</time>
      </trkpt>
      <trkpt lat="45.2592" lon="5.9443">
        <ele>939</ele>
        <time>2016-09-11T07:48:46Z</time>
      </trkpt>
      <trkpt lat="45.2593" lon="5.94455">
        <ele>936</ele>
        <time>2016-09-11T07:48:59Z</time>
      </trkpt>
      <trkpt lat="45.25942" lon="5.94475">
        <ele>935</ele>
        <time>2016-09-11T07:49:14Z</time>
      </trkpt>
      <trkpt lat="45.25951" lon="5.94498">
        <ele>935</ele>
        <time>2016-09-11T07:49:23Z</time>
      </trkpt>
      <trkpt lat="45.25959" lon="5.94522">
        <ele>937</ele>
        <time>2016-09-11T07:49:37Z</time>
      </trkpt>
      <trkpt lat="45.25966" lon="5.94546">
        <ele>938</ele>
        <time>2016-09-11T07:49:50Z</time>
      </trkpt>
      <trkpt lat="45.25972" lon="5.94571">
        <ele>939</ele>
        <time>2016-09-11T07:50:14Z</time>
      </trkpt>
      <trkpt lat="45.25974" lon="5.94596">
        <ele>940</ele>
        <time>2016-09-11T07:50:25Z</time>
      </trkpt>
      <trkpt lat="45.25978" lon="5.94624">
        <ele>940</ele>
        <time>2016-09-11T07:50:37Z</time>
      </trkpt>
      <trkpt lat="45.25976" lon="5.94651">
        <ele>939</ele>
        <time>2016-09-11T07:50:46Z</time>
      </trkpt>
      <trkpt lat="45.25967" lon="5.94674">
        <ele>938</ele>
        <time>2016-09-11T07:50:53Z</time>
      </trkpt>
      <trkpt lat="45.25958" lon="5.94697">
        <ele>938</ele>
        <time>2016-09-11T07:51:01Z</time>
      </trkpt>
      <trkpt lat="45.25954" lon="5.94723">
        <ele>938</ele>
        <time>2016-09-11T07:51:15Z</time>
      </trkpt>
      <trkpt lat="45.25947" lon="5.9475">
        <ele>938</ele>
        <time>2016-09-11T07:51:26Z</time>
      </trkpt>
      <trkpt lat="45.2594" lon="5.94773">
        <ele>938</ele>
        <time>2016-09-11T07:51:37Z</time>
      </trkpt>
      <trkpt lat="45.25935" lon="5.94799">
        <ele>939</ele>
        <time>2016-09-11T07:51:49Z</time>
      </trkpt>
      <trkpt lat="45.25923" lon="5.94819">
        <ele>940</ele>
        <time>2016-09-11T07:52:01Z</time>
      </trkpt>
      <trkpt lat="45.25917" lon="5.94844">
        <ele>941</ele>
        <time>2016-09-11T07:52:17Z</time>
      </trkpt>
      <trkpt lat="45.25909" lon="5.94869">
        <ele>943</ele>
        <time>2016-09-11T07:52:30Z</time>
      </trkpt>
      <trkpt lat="45.25903" lon="5.94895">
        <ele>945</ele>
        <time>2016-09-11T07:52:42Z</time>
      </trkpt>
      <trkpt lat="45.25896" lon="5.9492">
        <ele>950</ele>
        <time>2016-09-11T07:52:56Z</time>
      </trkpt>
      <trkpt lat="45.25887" lon="5.94944">
        <ele>950</ele>
        <time>2016-09-11T07:53:11Z</time>
      </trkpt>
      <trkpt lat="45.25881" lon="5.94968">
        <ele>951</ele>
        <time>2016-09-11T07:53:25Z</time>
      </trkpt>
      <trkpt lat="45.25874" lon="5.94993">
        <ele>952</ele>
        <time>2016-09-11T07:53:38Z</time>
      </trkpt>
      <trkpt lat="45.25867" lon="5.95017">
        <ele>954</ele>
        <time>2016-09-11T07:53:51Z</time>
      </trkpt>
      <trkpt lat="45.2586" lon="5.95043">
        <ele>954</ele>
        <time>2016-09-11T07:54:04Z</time>
      </trkpt>
      <trkpt lat="45.25853" lon="5.95069">
        <ele>956</ele>
        <time>2016-09-11T07:54:19Z</time>
      </trkpt>
      <trkpt lat="45.25849" lon="5.95096">
        <ele>958</ele>
        <time>2016-09-11T07:54:29Z</time>
      </trkpt>
      <trkpt lat="45.25843" lon="5.9512">
        <ele>957</ele>
        <time>2016-09-11T07:54:40Z</time>
      </trkpt>
      <trkpt lat="45.25836" lon="5.95145">
        <ele>961</ele>
        <time>2016-09-11T07:54:57Z</time>
      </trkpt>
      <trkpt lat="45.25829" lon="5.95172">
        <ele>971</ele>
        <time>2016-09-11T07:55:12Z</time>
      </trkpt>
      <trkpt lat="45.25825" lon="5.95198">
        <ele>971</ele>
        <time>2016-09-11T07:55:27Z</time>
      </trkpt>
      <trkpt lat="45.25818" lon="5.95224">
        <ele>971</ele>
        <time>2016-09-11T07:55:40Z</time>
      </trkpt>
      <trkpt lat="45.25814" lon="5.95249">
        <ele>970</ele>
        <time>2016-09-11T07:55:54Z</time>
      </trkpt>
      <trkpt lat="45.25814" lon="5.95275">
        <ele>972</ele>
        <time>2016-09-11T07:56:09Z</time>
      </trkpt>
      <trkpt lat="45.25813" lon="5.95302">
        <ele>973</ele>
        <time>2016-09-11T07:56:23Z</time>
      </trkpt>
      <trkpt lat="45.2581" lon="5.95328">
        <ele>973</ele>
        <time>2016-09-11T07:56:35Z</time>
      </trkpt>
      <trkpt lat="45.25814" lon="5.95353">
        <ele>976</ele>
        <time>2016-09-11T07:56:47Z</time>
      </trkpt>
      <trkpt lat="45.25814" lon="5.95379">
        <ele>978</ele>
        <time>2016-09-11T07:57:01Z</time>
      </trkpt>
      <trkpt lat="45.25812" lon="5.95406">
        <ele>979</ele>
        <time>2016-09-11T07:57:15Z</time>
      </trkpt>
      <trkpt lat="45.25811" lon="5.95432">
        <ele>985</ele>
        <time>2016-09-11T07:57:30Z</time>
      </trkpt>
      <trkpt lat="45.25808" lon="5.95459">
        <ele>987</ele>
        <time>2016-09-11T07:57:42Z</time>
      </trkpt>
      <trkpt lat="45.25806" lon="5.95487">
        <ele>988</ele>
        <time>2016-09-11T07:57:54Z</time>
      </trkpt>
      <trkpt lat="45.25804" lon="5.95514">
        <ele>993</ele>
        <time>2016-09-11T07:58:04Z</time>
      </trkpt>
      <trkpt lat="45.25804" lon="5.95541">
        <ele>994</ele>
        <time>2016-09-11T07:58:18Z</time>
      </trkpt>
      <trkpt lat="45.25804" lon="5.95569">
        <ele>995</ele>
        <time>2016-09-11T07:58:30Z</time>
      </trkpt>
      <trkpt lat="45.25808" lon="5.95594">
        <ele>998</ele>
        <time>2016-09-11T07:58:43Z</time>
      </trkpt>
      <trkpt lat="45.25812" lon="5.9562">
        <ele>998</ele>
        <time>2016-09-11T07:58:58Z</time>
      </trkpt>
      <trkpt lat="45.25814" lon="5.95646">
        <ele>998</ele>
        <time>2016-09-11T07:59:12Z</time>
      </trkpt>
      <trkpt lat="45.25814" lon="5.95673">
        <ele>999</ele>
        <time>2016-09-11T07:59:25Z</time>
      </trkpt>
      <trkpt lat="45.25813" lon="5.957">
        <ele>1001</ele>
        <time>2016-09-11T07:59:37Z</time>
      </trkpt>
      <trkpt lat="45.25814" lon="5.95726">
        <ele>1002</ele>
        <time>2016-09-11T07:59:49Z</time>
      </trkpt>
      <trkpt lat="45.25817" lon="5.95752">
        <ele>1006</ele>
        <time>2016-09-11T08:00:03Z</time>
      </trkpt>
      <trkpt lat="45.25817" lon="5.95778">
        <ele>1009</ele>
        <time>2016-09-11T08:00:16Z</time>
      </trkpt>
      <trkpt lat="45.25812" lon="5.95804">
        <ele>1012</ele>
        <time>2016-09-11T08:00:29Z</time>
      </trkpt>
      <trkpt lat="45.25804" lon="5.95829">
        <ele>1014</ele>
        <time>2016-09-11T08:00:41Z</time>
      </trkpt>
      <trkpt lat="45.25794" lon="5.95852">
        <ele>1021</ele>
        <time>2016-09-11T08:00:53Z</time>
      </trkpt>
      <trkpt lat="45.25785" lon="5.95875">
        <ele>1022</ele>
        <time>2016-09-11T08:01:06Z</time>
      </trkpt>
      <trkpt lat="45.25775" lon="5.95897">
        <ele>1024</ele>
        <time>2016-09-11T08:01:18Z</time>
      </trkpt>
      <trkpt lat="45.25764" lon="5.95918">
        <ele>1028</ele>
        <time>2016-09-11T08:01:31Z</time>
      </trkpt>
      <trkpt lat="45.25754" lon="5.95939">
        <ele>1029</ele>
        <time>2016-09-11T08:01:44Z</time>
      </trkpt>
      <trkpt lat="45.25741" lon="5.95958">
        <ele>1026</ele>
        <time>2016-09-11T08:01:56Z</time>
      </trkpt>
      <trkpt lat="45.25726" lon="5.95972">
        <ele>1026</ele>
        <time>2016-09-11T08:02:07Z</time>
      </trkpt>
      <trkpt lat="45.2571" lon="5.95989">
        <ele>1026</ele>
        <time>2016-09-11T08:02:21Z</time>
      </trkpt>
      <trkpt lat="45.25696" lon="5.96006">
        <ele>1027</ele>
        <time>2016-09-11T08:02:34Z</time>
      </trkpt>
      <trkpt lat="45.25684" lon="5.96028">
        <ele>1027</ele>
        <time>2016-09-11T08:02:47Z</time>
      </trkpt>
      <trkpt lat="45.25677" lon="5.96053">
        <ele>1027</ele>
        <time>2016-09-11T08:03:00Z</time>
      </trkpt>
      <trkpt lat="45.25668" lon="5.96077">
        <ele>1027</ele>
        <time>2016-09-11T08:03:09Z</time>
      </trkpt>
      <trkpt lat="45.25662" lon="5.96102">
        <ele>1023</ele>
        <time>2016-09-11T08:03:21Z</time>
      </trkpt>
      <trkpt lat="45.25664" lon="5.96129">
        <ele>1022</ele>
        <time>2016-09-11T08:03:34Z</time>
      </trkpt>
      <trkpt lat="45.25663" lon="5.96154">
        <ele>1024</ele>
        <time>2016-09-11T08:03:45Z</time>
      </trkpt>
      <trkpt lat="45.25664" lon="5.9618">
        <ele>1023</ele>
        <time>2016-09-11T08:03:57Z</time>
      </trkpt>
      <trkpt lat="45.25658" lon="5.96206">
        <ele>1021</ele>
        <time>2016-09-11T08:04:09Z</time>
      </trkpt>
      <trkpt lat="45.25653" lon="5.96232">
        <ele>1020</ele>
        <time>2016-09-11T08:04:23Z</time>
      </trkpt>
      <trkpt lat="45.25647" lon="5.96257">
        <ele>1018</ele>
        <time>2016-09-11T08:04:34Z</time>
      </trkpt>
      <trkpt lat="45.2564" lon="5.96283">
        <ele>1018</ele>
        <time>2016-09-11T08:04:45Z</time>
      </trkpt>
      <trkpt lat="45.25634" lon="5.96307">
        <ele>1017</ele>
        <time>2016-09-11T08:04:55Z</time>
      </trkpt>
      <trkpt lat="45.25628" lon="5.96333">
        <ele>1017</ele>
        <time>2016-09-11T08:05:06Z</time>
      </trkpt>
      <trkpt lat="45.25622" lon="5.96359">
        <ele>1018</ele>
        <time>2016-09-11T08:05:20Z</time>
      </trkpt>
      <trkpt lat="45.25616" lon="5.96383">
        <ele>1018</ele>
        <time>2016-09-11T08:05:33Z</time>
      </trkpt>
      <trkpt lat="45.25611" lon="5.96409">
        <ele>1018</ele>
        <time>2016-09-11T08:05:45Z</time>
      </trkpt>
      <trkpt lat="45.25604" lon="5.96435">
        <ele>1019</ele>
        <time>2016-09-11T08:05:57Z</time>
      </trkpt>
      <trkpt lat="45.256" lon="5.96461">
        <ele>1020</ele>
        <time>2016-09-11T08:06:09Z</time>
      </trkpt>
      <trkpt lat="45.25595" lon="5.96487">
        <ele>1020</ele>
        <time>2016-09-11T08:06:21Z</time>
      </trkpt>
      <trkpt lat="45.2559" lon="5.96511">
        <ele>1021</ele>
        <time>2016-09-11T08:06:33Z</time>
      </trkpt>
      <trkpt lat="45.25585" lon="5.96537">
        <ele>1022</ele>
        <time>2016-09-11T08:06:46Z</time>
      </trkpt>
      <trkpt lat="45.2558" lon="5.96562">
        <ele>1020</ele>
        <time>2016-09-11T08:06:58Z</time>
      </trkpt>
      <trkpt lat="45.25575" lon="5.96586">
        <ele>1024</ele>
        <time>2016-09-11T08:07:12Z</time>
      </trkpt>
      <trkpt lat="45.25567" lon="5.9661">
        <ele>1020</ele>
        <time>2016-09-11T08:07:23Z</time>
      </trkpt>
      <trkpt lat="45.25557" lon="5.96634">
        <ele>1018</ele>
        <time>2016-09-11T08:07:34Z</time>
      </trkpt>
      <trkpt lat="45.25548" lon="5.96657">
        <ele>1018</ele>
        <time>2016-09-11T08:07:45Z</time>
      </trkpt>
      <trkpt lat="45.25536" lon="5.96677">
        <ele>1013</ele>
        <time>2016-09-11T08:07:57Z</time>
      </trkpt>
      <trkpt lat="45.2552" lon="5.96694">
        <ele>1012</ele>
        <time>2016-09-11T08:08:11Z</time>
      </trkpt>
      <trkpt lat="45.25507" lon="5.96714">
        <ele>1011</ele>
        <time>2016-09-11T08:08:24Z</time>
      </trkpt>
      <trkpt lat="45.25499" lon="5.96739">
        <ele>1006</ele>
        <time>2016-09-11T08:08:37Z</time>
      </trkpt>
      <trkpt lat="45.25494" lon="5.96765">
        <ele>1003</ele>
        <time>2016-09-11T08:08:48Z</time>
      </trkpt>
      <trkpt lat="45.25491" lon="5.96791">
        <ele>999</ele>
        <time>2016-09-11T08:08:59Z</time>
      </trkpt>
      <trkpt lat="45.25488" lon="5.96818">
        <ele>998</ele>
        <time>2016-09-11T08:09:14Z</time>
      </trkpt>
      <trkpt lat="45.25485" lon="5.96845">
        <ele>995</ele>
        <time>2016-09-11T08:09:27Z</time>
      </trkpt>
      <trkpt lat="45.25483" lon="5.9687">
        <ele>993</ele>
        <time>2016-09-11T08:09:38Z</time>
      </trkpt>
      <trkpt lat="45.25487" lon="5.96897">
        <ele>992</ele>
        <time>2016-09-11T08:09:49Z</time>
      </trkpt>
      <trkpt lat="45.25491" lon="5.96923">
        <ele>992</ele>
        <time>2016-09-11T08:10:02Z</time>
      </trkpt>
      <trkpt lat="45.25494" lon="5.96948">
        <ele>991</ele>
        <time>2016-09-11T08:10:14Z</time>
      </trkpt>
      <trkpt lat="45.25494" lon="5.96974">
        <ele>990</ele>
        <time>2016-09-11T08:10:25Z</time>
      </trkpt>
      <trkpt lat="45.25501" lon="5.96999">
        <ele>990</ele>
        <time>2016-09-11T08:10:37Z</time>
      </trkpt>
      <trkpt lat="45.25509" lon="5.97024">
        <ele>990</ele>
        <time>2016-09-11T08:10:49Z</time>
      </trkpt>
      <trkpt lat="45.25503" lon="5.9705">
        <ele>990</ele>
        <time>2016-09-11T08:11:05Z</time>
      </trkpt>
      <trkpt lat="45.25487" lon="5.97037">
        <ele>993</ele>
        <time>2016-09-11T08:11:18Z</time>
      </trkpt>
      <trkpt lat="45.25471" lon="5.9702">
        <ele>992</ele>
        <time>2016-09-11T08:11:29Z</time>
      </trkpt>
      <trkpt lat="45.25455" lon="5.97008">
        <ele>992</ele>
        <time>2016-09-11T08:11:39Z</time>
      </trkpt>
      <trkpt lat="45.25443" lon="5.96986">
        <ele>990</ele>
        <time>2016-09-11T08:11:48Z</time>
      </trkpt>
      <trkpt lat="45.25426" lon="5.96975">
        <ele>990</ele>
        <time>2016-09-11T08:12:00Z</time>
      </trkpt>
      <trkpt lat="45.25407" lon="5.96968">
        <ele>987</ele>
        <time>2016-09-11T08:12:14Z</time>
      </trkpt>
      <trkpt lat="45.25389" lon="5.9697">
        <ele>986</ele>
        <time>2016-09-11T08:12:26Z</time>
      </trkpt>
      <trkpt lat="45.2537" lon="5.96973">
        <ele>986</ele>
        <time>2016-09-11T08:12:38Z</time>
      </trkpt>
      <trkpt lat="45.25352" lon="5.96973">
        <ele>985</ele>
        <time>2016-09-11T08:12:50Z</time>
      </trkpt>
      <trkpt lat="45.25333" lon="5.96976">
        <ele>985</ele>
        <time>2016-09-11T08:13:05Z</time>
      </trkpt>
      <trkpt lat="45.25313" lon="5.96977">
        <ele>985</ele>
        <time>2016-09-11T08:13:17Z</time>
      </trkpt>
      <trkpt lat="45.25295" lon="5.96975">
        <ele>985</ele>
        <time>2016-09-11T08:13:33Z</time>
      </trkpt>
      <trkpt lat="45.25276" lon="5.96969">
        <ele>985</ele>
        <time>2016-09-11T08:13:44Z</time>
      </trkpt>
      <trkpt lat="45.25258" lon="5.9697">
        <ele>986</ele>
        <time>2016-09-11T08:14:01Z</time>
      </trkpt>
      <trkpt lat="45.25239" lon="5.96972">
        <ele>987</ele>
        <time>2016-09-11T08:14:13Z</time>
      </trkpt>
      <trkpt lat="45.25222" lon="5.96985">
        <ele>988</ele>
        <time>2016-09-11T08:14:24Z</time>
      </trkpt>
      <trkpt lat="45.25207" lon="5.96999">
        <ele>988</ele>
        <time>2016-09-11T08:14:33Z</time>
      </trkpt>
      <trkpt lat="45.25196" lon="5.97019">
        <ele>992</ele>
        <time>2016-09-11T08:14:44Z</time>
      </trkpt>
      <trkpt lat="45.25179" lon="5.97032">
        <ele>992</ele>
        <time>2016-09-11T08:14:57Z</time>
      </trkpt>
      <trkpt lat="45.2516" lon="5.97028">
        <ele>991</ele>
        <time>2016-09-11T08:15:13Z</time>
      </trkpt>
      <trkpt lat="45.25138" lon="5.97033">
        <ele>991</ele>
        <time>2016-09-11T08:15:50Z</time>
      </trkpt>
      <trkpt lat="45.25119" lon="5.97036">
        <ele>991</ele>
        <time>2016-09-11T08:16:02Z</time>
      </trkpt>
      <trkpt lat="45.25103" lon="5.9705">
        <ele>991</ele>
        <time>2016-09-11T08:16:14Z</time>
      </trkpt>
      <trkpt lat="45.2509" lon="5.97069">
        <ele>992</ele>
        <time>2016-09-11T08:16:30Z</time>
      </trkpt>
      <trkpt lat="45.25078" lon="5.97089">
        <ele>993</ele>
        <time>2016-09-11T08:16:43Z</time>
      </trkpt>
      <trkpt lat="45.25068" lon="5.97112">
        <ele>993</ele>
        <time>2016-09-11T08:16:55Z</time>
      </trkpt>
      <trkpt lat="45.25071" lon="5.97139">
        <ele>994</ele>
        <time>2016-09-11T08:17:07Z</time>
      </trkpt>
      <trkpt lat="45.25059" lon="5.97161">
        <ele>995</ele>
        <time>2016-09-11T08:17:20Z</time>
      </trkpt>
      <trkpt lat="45.25059" lon="5.97189">
        <ele>998</ele>
        <time>2016-09-11T08:17:33Z</time>
      </trkpt>
      <trkpt lat="45.25064" lon="5.97213">
        <ele>999</ele>
        <time>2016-09-11T08:17:45Z</time>
      </trkpt>
      <trkpt lat="45.25062" lon="5.97241">
        <ele>1000</ele>
        <time>2016-09-11T08:18:03Z</time>
      </trkpt>
      <trkpt lat="45.25061" lon="5.97267">
        <ele>1004</ele>
        <time>2016-09-11T08:18:15Z</time>
      </trkpt>
      <trkpt lat="45.25055" lon="5.97291">
        <ele>1005</ele>
        <time>2016-09-11T08:18:27Z</time>
      </trkpt>
      <trkpt lat="45.25041" lon="5.97311">
        <ele>1005</ele>
        <time>2016-09-11T08:18:40Z</time>
      </trkpt>
      <trkpt lat="45.25024" lon="5.97321">
        <ele>1006</ele>
        <time>2016-09-11T08:18:56Z</time>
      </trkpt>
      <trkpt lat="45.25005" lon="5.97327">
        <ele>1007</ele>
        <time>2016-09-11T08:19:12Z</time>
      </trkpt>
      <trkpt lat="45.24989" lon="5.97339">
        <ele>1009</ele>
        <time>2016-09-11T08:19:22Z</time>
      </trkpt>
      <trkpt lat="45.24974" lon="5.97356">
        <ele>1010</ele>
        <time>2016-09-11T08:19:36Z</time>
      </trkpt>
      <trkpt lat="45.2496" lon="5.97374">
        <ele>1011</ele>
        <time>2016-09-11T08:19:48Z</time>
      </trkpt>
      <trkpt lat="45.24944" lon="5.97389">
        <ele>1012</ele>
        <time>2016-09-11T08:20:01Z</time>
      </trkpt>
      <trkpt lat="45.24927" lon="5.97405">
        <ele>1013</ele>
        <time>2016-09-11T08:20:14Z</time>
      </trkpt>
      <trkpt lat="45.24914" lon="5.97421">
        <ele>1017</ele>
        <time>2016-09-11T08:20:27Z</time>
      </trkpt>
      <trkpt lat="45.24898" lon="5.97436">
        <ele>1019</ele>
        <time>2016-09-11T08:20:43Z</time>
      </trkpt>
      <trkpt lat="45.24883" lon="5.97451">
        <ele>1020</ele>
        <time>2016-09-11T08:20:56Z</time>
      </trkpt>
      <trkpt lat="45.24869" lon="5.97467">
        <ele>1021</ele>
        <time>2016-09-11T08:21:09Z</time>
      </trkpt>
      <trkpt lat="45.24854" lon="5.97485">
        <ele>1023</ele>
        <time>2016-09-11T08:21:22Z</time>
      </trkpt>
      <trkpt lat="45.2484" lon="5.97502">
        <ele>1027</ele>
        <time>2016-09-11T08:21:36Z</time>
      </trkpt>
      <trkpt lat="45.24823" lon="5.97513">
        <ele>1027</ele>
        <time>2016-09-11T08:21:51Z</time>
      </trkpt>
      <trkpt lat="45.24803" lon="5.9752">
        <ele>1027</ele>
        <time>2016-09-11T08:22:03Z</time>
      </trkpt>
      <trkpt lat="45.24788" lon="5.97537">
        <ele>1027</ele>
        <time>2016-09-11T08:22:19Z</time>
      </trkpt>
      <trkpt lat="45.24773" lon="5.97554">
        <ele>1028</ele>
        <time>2016-09-11T08:22:33Z</time>
      </trkpt>
      <trkpt lat="45.24757" lon="5.97566">
        <ele>1030</ele>
        <time>2016-09-11T08:22:44Z</time>
      </trkpt>
      <trkpt lat="45.24742" lon="5.97584">
        <ele>1033</ele>
        <time>2016-09-11T08:22:56Z</time>
      </trkpt>
      <trkpt lat="45.24726" lon="5.97598">
        <ele>1033</ele>
        <time>2016-09-11T08:23:11Z</time>
      </trkpt>
      <trkpt lat="45.24709" lon="5.97606">
        <ele>1033</ele>
        <time>2016-09-11T08:23:26Z</time>
      </trkpt>
      <trkpt lat="45.2469" lon="5.97614">
        <ele>1032</ele>
        <time>2016-09-11T08:23:40Z</time>
      </trkpt>
      <trkpt lat="45.24672" lon="5.97628">
        <ele>1033</ele>
        <time>2016-09-11T08:23:55Z</time>
      </trkpt>
      <trkpt lat="45.24655" lon="5.97641">
        <ele>1032</ele>
        <time>2016-09-11T08:24:06Z</time>
      </trkpt>
      <trkpt lat="45.24639" lon="5.97655">
        <ele>1033</ele>
        <time>2016-09-11T08:24:16Z</time>
      </trkpt>
      <trkpt lat="45.24627" lon="5.97678">
        <ele>1046</ele>
        <time>2016-09-11T08:24:34Z</time>
      </trkpt>
      <trkpt lat="45.24614" lon="5.97698">
        <ele>1047</ele>
        <time>2016-09-11T08:24:59Z</time>
      </trkpt>
      <trkpt lat="45.24599" lon="5.97715">
        <ele>1050</ele>
        <time>2016-09-11T08:25:10Z</time>
      </trkpt>
      <trkpt lat="45.24583" lon="5.97727">
        <ele>1052</ele>
        <time>2016-09-11T08:25:20Z</time>
      </trkpt>
      <trkpt lat="45.24569" lon="5.97743">
        <ele>1054</ele>
        <time>2016-09-11T08:25:36Z</time>
      </trkpt>
      <trkpt lat="45.24551" lon="5.97749">
        <ele>1053</ele>
        <time>2016-09-11T08:25:45Z</time>
      </trkpt>
      <trkpt lat="45.24535" lon="5.97765">
        <ele>1065</ele>
        <time>2016-09-11T08:26:03Z</time>
      </trkpt>
      <trkpt lat="45.24519" lon="5.9778">
        <ele>1066</ele>
        <time>2016-09-11T08:26:16Z</time>
      </trkpt>
      <trkpt lat="45.24506" lon="5.97798">
        <ele>1068</ele>
        <time>2016-09-11T08:26:31Z</time>
      </trkpt>
      <trkpt lat="45.24492" lon="5.97815">
        <ele>1068</ele>
        <time>2016-09-11T08:26:46Z</time>
      </trkpt>
      <trkpt lat="45.24477" lon="5.97829">
        <ele>1068</ele>
        <time>2016-09-11T08:27:01Z</time>
      </trkpt>
      <trkpt lat="45.24461" lon="5.97842">
        <ele>1077</ele>
        <time>2016-09-11T08:27:17Z</time>
      </trkpt>
      <trkpt lat="45.24445" lon="5.97856">
        <ele>1077</ele>
        <time>2016-09-11T08:28:26Z</time>
      </trkpt>
      <trkpt lat="45.24429" lon="5.97867">
        <ele>1078</ele>
        <time>2016-09-11T08:28:44Z</time>
      </trkpt>
      <trkpt lat="45.24414" lon="5.97884">
        <ele>1078</ele>
        <time>2016-09-11T08:28:58Z</time>
      </trkpt>
      <trkpt lat="45.244" lon="5.97901">
        <ele>1080</ele>
        <time>2016-09-11T08:29:17Z</time>
      </trkpt>
      <trkpt lat="45.24386" lon="5.97918">
        <ele>1091</ele>
        <time>2016-09-11T08:29:30Z</time>
      </trkpt>
      <trkpt lat="45.24369" lon="5.97931">
        <ele>1092</ele>
        <time>2016-09-11T08:29:46Z</time>
      </trkpt>
      <trkpt lat="45.24351" lon="5.97941">
        <ele>1092</ele>
        <time>2016-09-11T08:30:00Z</time>
      </trkpt>
      <trkpt lat="45.24332" lon="5.9795">
        <ele>1092</ele>
        <time>2016-09-11T08:30:14Z</time>
      </trkpt>
      <trkpt lat="45.24314" lon="5.97956">
        <ele>1093</ele>
        <time>2016-09-11T08:30:28Z</time>
      </trkpt>
      <trkpt lat="45.24296" lon="5.97969">
        <ele>1094</ele>
        <time>2016-09-11T08:30:42Z</time>
      </trkpt>
      <trkpt lat="45.24285" lon="5.97992">
        <ele>1096</ele>
        <time>2016-09-11T08:31:04Z</time>
      </trkpt>
      <trkpt lat="45.2427" lon="5.98006">
        <ele>1109</ele>
        <time>2016-09-11T08:31:24Z</time>
      </trkpt>
      <trkpt lat="45.24252" lon="5.98017">
        <ele>1109</ele>
        <time>2016-09-11T08:31:32Z</time>
      </trkpt>
      <trkpt lat="45.24235" lon="5.98027">
        <ele>1106</ele>
        <time>2016-09-11T08:31:52Z</time>
      </trkpt>
      <trkpt lat="45.24216" lon="5.98037">
        <ele>1106</ele>
        <time>2016-09-11T08:32:11Z</time>
      </trkpt>
      <trkpt lat="45.24207" lon="5.9806">
        <ele>1109</ele>
        <time>2016-09-11T08:32:29Z</time>
      </trkpt>
      <trkpt lat="45.24192" lon="5.98078">
        <ele>1109</ele>
        <time>2016-09-11T08:32:43Z</time>
      </trkpt>
      <trkpt lat="45.24184" lon="5.98101">
        <ele>1122</ele>
        <time>2016-09-11T08:33:05Z</time>
      </trkpt>
      <trkpt lat="45.2417" lon="5.9812">
        <ele>1125</ele>
        <time>2016-09-11T08:33:25Z</time>
      </trkpt>
      <trkpt lat="45.24162" lon="5.98144">
        <ele>1119</ele>
        <time>2016-09-11T08:33:44Z</time>
      </trkpt>
      <trkpt lat="45.24153" lon="5.98166">
        <ele>1123</ele>
        <time>2016-09-11T08:34:02Z</time>
      </trkpt>
      <trkpt lat="45.24139" lon="5.98186">
        <ele>1132</ele>
        <time>2016-09-11T08:34:17Z</time>
      </trkpt>
      <trkpt lat="45.24124" lon="5.98202">
        <ele>1132</ele>
        <time>2016-09-11T08:34:31Z</time>
      </trkpt>
      <trkpt lat="45.24111" lon="5.98221">
        <ele>1133</ele>
        <time>2016-09-11T08:35:16Z</time>
      </trkpt>
      <trkpt lat="45.241" lon="5.98242">
        <ele>1133</ele>
        <time>2016-09-11T08:37:20Z</time>
      </trkpt>
      <trkpt lat="45.24097" lon="5.98267">
        <ele>1145</ele>
        <time>2016-09-11T08:38:42Z</time>
      </trkpt>
      <trkpt lat="45.24081" lon="5.98286">
        <ele>1139</ele>
        <time>2016-09-11T08:38:56Z</time>
      </trkpt>
      <trkpt lat="45.24071" lon="5.98307">
        <ele>1143</ele>
        <time>2016-09-11T08:39:24Z</time>
      </trkpt>
      <trkpt lat="45.24054" lon="5.9832">
        <ele>1143</ele>
        <time>2016-09-11T08:40:01Z</time>
      </trkpt>
      <trkpt lat="45.24037" lon="5.98335">
        <ele>1158</ele>
        <time>2016-09-11T08:41:24Z</time>
      </trkpt>
      <trkpt lat="45.24019" lon="5.98344">
        <ele>1156</ele>
        <time>2016-09-11T08:42:05Z</time>
      </trkpt>
      <trkpt lat="45.24007" lon="5.98365">
        <ele>1160</ele>
        <time>2016-09-11T08:42:35Z</time>
      </trkpt>
      <trkpt lat="45.23995" lon="5.98386">
        <ele>1159</ele>
        <time>2016-09-11T08:42:45Z</time>
      </trkpt>
      <trkpt lat="45.23998" lon="5.98412">
        <ele>1169</ele>
        <time>2016-09-11T08:43:04Z</time>
      </trkpt>
      <trkpt lat="45.23984" lon="5.98431">
        <ele>1174</ele>
        <time>2016-09-11T08:43:42Z</time>
      </trkpt>
      <trkpt lat="45.2397" lon="5.98449">
        <ele>1176</ele>
        <time>2016-09-11T08:43:59Z</time>
      </trkpt>
      <trkpt lat="45.23953" lon="5.9846">
        <ele>1177</ele>
        <time>2016-09-11T08:44:18Z</time>
      </trkpt>
      <trkpt lat="45.23935" lon="5.98468">
        <ele>1178</ele>
        <time>2016-09-11T08:44:30Z</time>
      </trkpt>
      <trkpt lat="45.23924" lon="5.98489">
        <ele>1182</ele>
        <time>2016-09-11T08:45:00Z</time>
      </trkpt>
      <trkpt lat="45.23908" lon="5.98502">
        <ele>1190</ele>
        <time>2016-09-11T08:45:09Z</time>
      </trkpt>
      <trkpt lat="45.23888" lon="5.9851">
        <ele>1194</ele>
        <time>2016-09-11T08:45:14Z</time>
      </trkpt>
      <trkpt lat="45.23877" lon="5.98532">
        <ele>1197</ele>
        <time>2016-09-11T08:45:56Z</time>
      </trkpt>
      <trkpt lat="45.23858" lon="5.98543">
        <ele>1199</ele>
        <time>2016-09-11T08:46:07Z</time>
      </trkpt>
      <trkpt lat="45.23842" lon="5.98559">
        <ele>1203</ele>
        <time>2016-09-11T08:46:12Z</time>
      </trkpt>
      <trkpt lat="45.23838" lon="5.98587">
        <ele>1215</ele>
        <time>2016-09-11T08:46:44Z</time>
      </trkpt>
      <trkpt lat="45.23819" lon="5.98587">
        <ele>1218</ele>
        <time>2016-09-11T08:47:02Z</time>
      </trkpt>
      <trkpt lat="45.23799" lon="5.9859">
        <ele>1221</ele>
        <time>2016-09-11T08:47:19Z</time>
      </trkpt>
      <trkpt lat="45.23785" lon="5.98572">
        <ele>1203</ele>
        <time>2016-09-11T08:47:32Z</time>
      </trkpt>
      <trkpt lat="45.23765" lon="5.98569">
        <ele>1204</ele>
        <time>2016-09-11T08:47:52Z</time>
      </trkpt>
      <trkpt lat="45.23748" lon="5.98577">
        <ele>1209</ele>
        <time>2016-09-11T08:48:12Z</time>
      </trkpt>
      <trkpt lat="45.23732" lon="5.98591">
        <ele>1219</ele>
        <time>2016-09-11T08:48:36Z</time>
      </trkpt>
      <trkpt lat="45.23714" lon="5.98599">
        <ele>1222</ele>
        <time>2016-09-11T08:48:56Z</time>
      </trkpt>
      <trkpt lat="45.23696" lon="5.98602">
        <ele>1223</ele>
        <time>2016-09-11T08:49:28Z</time>
      </trkpt>
      <trkpt lat="45.23681" lon="5.98617">
        <ele>1225</ele>
        <time>2016-09-11T08:49:40Z</time>
      </trkpt>
      <trkpt lat="45.23667" lon="5.98633">
        <ele>1227</ele>
        <time>2016-09-11T08:51:11Z</time>
      </trkpt>
      <trkpt lat="45.23651" lon="5.98646">
        <ele>1229</ele>
        <time>2016-09-11T08:51:37Z</time>
      </trkpt>
      <trkpt lat="45.23633" lon="5.98656">
        <ele>1229</ele>
        <time>2016-09-11T08:51:52Z</time>
      </trkpt>
      <trkpt lat="45.23617" lon="5.98666">
        <ele>1229</ele>
        <time>2016-09-11T08:52:19Z</time>
      </trkpt>
      <trkpt lat="45.236" lon="5.98677">
        <ele>1240</ele>
        <time>2016-09-11T08:52:40Z</time>
      </trkpt>
      <trkpt lat="45.23585" lon="5.98691">
        <ele>1241</ele>
        <time>2016-09-11T08:52:54Z</time>
      </trkpt>
      <trkpt lat="45.23567" lon="5.98696">
        <ele>1234</ele>
        <time>2016-09-11T08:53:03Z</time>
      </trkpt>
      <trkpt lat="45.23549" lon="5.98708">
        <ele>1233</ele>
        <time>2016-09-11T08:53:17Z</time>
      </trkpt>
      <trkpt lat="45.23535" lon="5.98725">
        <ele>1233</ele>
        <time>2016-09-11T08:53:29Z</time>
      </trkpt>
      <trkpt lat="45.23521" lon="5.98745">
        <ele>1233</ele>
        <time>2016-09-11T08:53:37Z</time>
      </trkpt>
      <trkpt lat="45.23514" lon="5.9877">
        <ele>1243</ele>
        <time>2016-09-11T08:53:51Z</time>
      </trkpt>
      <trkpt lat="45.23517" lon="5.98797">
        <ele>1248</ele>
        <time>2016-09-11T08:54:06Z</time>
      </trkpt>
      <trkpt lat="45.2351" lon="5.98821">
        <ele>1249</ele>
        <time>2016-09-11T08:54:24Z</time>
      </trkpt>
      <trkpt lat="45.23495" lon="5.98838">
        <ele>1250</ele>
        <time>2016-09-11T08:54:38Z</time>
      </trkpt>
      <trkpt lat="45.23478" lon="5.98849">
        <ele>1252</ele>
        <time>2016-09-11T08:54:52Z</time>
      </trkpt>
      <trkpt lat="45.2346" lon="5.98854">
        <ele>1251</ele>
        <time>2016-09-11T08:55:27Z</time>
      </trkpt>
      <trkpt lat="45.23442" lon="5.98855">
        <ele>1249</ele>
        <time>2016-09-11T08:55:39Z</time>
      </trkpt>
      <trkpt lat="45.23431" lon="5.98877">
        <ele>1253</ele>
        <time>2016-09-11T08:55:51Z</time>
      </trkpt>
      <trkpt lat="45.23414" lon="5.9889">
        <ele>1248</ele>
        <time>2016-09-11T08:56:08Z</time>
      </trkpt>
      <trkpt lat="45.234" lon="5.98907">
        <ele>1251</ele>
        <time>2016-09-11T08:56:20Z</time>
      </trkpt>
      <trkpt lat="45.23383" lon="5.98921">
        <ele>1267</ele>
        <time>2016-09-11T08:56:33Z</time>
      </trkpt>
      <trkpt lat="45.23369" lon="5.98937">
        <ele>1268</ele>
        <time>2016-09-11T08:56:45Z</time>
      </trkpt>
      <trkpt lat="45.23352" lon="5.9895">
        <ele>1269</ele>
        <time>2016-09-11T08:57:28Z</time>
      </trkpt>
      <trkpt lat="45.23333" lon="5.98956">
        <ele>1263</ele>
        <time>2016-09-11T08:57:49Z</time>
      </trkpt>
      <trkpt lat="45.23315" lon="5.98951">
        <ele>1261</ele>
        <time>2016-09-11T08:58:04Z</time>
      </trkpt>
      <trkpt lat="45.23296" lon="5.98953">
        <ele>1261</ele>
        <time>2016-09-11T08:58:17Z</time>
      </trkpt>
      <trkpt lat="45.23278" lon="5.98951">
        <ele>1260</ele>
        <time>2016-09-11T08:58:31Z</time>
      </trkpt>
      <trkpt lat="45.2326" lon="5.98961">
        <ele>1262</ele>
        <time>2016-09-11T08:58:45Z</time>
      </trkpt>
      <trkpt lat="45.23248" lon="5.98982">
        <ele>1262</ele>
        <time>2016-09-11T08:59:14Z</time>
      </trkpt>
      <trkpt lat="45.2323" lon="5.98987">
        <ele>1260</ele>
        <time>2016-09-11T08:59:33Z</time>
      </trkpt>
      <trkpt lat="45.23217" lon="5.99006">
        <ele>1272</ele>
        <time>2016-09-11T08:59:46Z</time>
      </trkpt>
      <trkpt lat="45.232" lon="5.99017">
        <ele>1271</ele>
        <time>2016-09-11T08:59:57Z</time>
      </trkpt>
      <trkpt lat="45.23183" lon="5.99024">
        <ele>1269</ele>
        <time>2016-09-11T09:00:13Z</time>
      </trkpt>
      <trkpt lat="45.23169" lon="5.99041">
        <ele>1271</ele>
        <time>2016-09-11T09:00:25Z</time>
      </trkpt>
      <trkpt lat="45.23161" lon="5.99065">
        <ele>1265</ele>
        <time>2016-09-11T09:02:55Z</time>
      </trkpt>
      <trkpt lat="45.23157" lon="5.9909">
        <ele>1278</ele>
        <time>2016-09-11T09:04:13Z</time>
      </trkpt>
      <trkpt lat="45.23146" lon="5.99117">
        <ele>1282</ele>
        <time>2016-09-11T09:04:54Z</time>
      </trkpt>
      <trkpt lat="45.23128" lon="5.99124">
        <ele>1282</ele>
        <time>2016-09-11T09:05:17Z</time>
      </trkpt>
      <trkpt lat="45.23114" lon="5.9914">
        <ele>1284</ele>
        <time>2016-09-11T09:05:43Z</time>
      </trkpt>
      <trkpt lat="45.23096" lon="5.99144">
        <ele>1285</ele>
        <time>2016-09-11T09:05:59Z</time>
      </trkpt>
      <trkpt lat="45.23079" lon="5.99154">
        <ele>1283</ele>
        <time>2016-09-11T09:07:04Z</time>
      </trkpt>
      <trkpt lat="45.23063" lon="5.99167">
        <ele>1300</ele>
        <time>2016-09-11T09:07:22Z</time>
      </trkpt>
      <trkpt lat="45.23044" lon="5.99168">
        <ele>1300</ele>
        <time>2016-09-11T09:07:38Z</time>
      </trkpt>
      <trkpt lat="45.23024" lon="5.99165">
        <ele>1276</ele>
        <time>2016-09-11T09:07:51Z</time>
      </trkpt>
      <trkpt lat="45.23005" lon="5.99165">
        <ele>1280</ele>
        <time>2016-09-11T09:08:04Z</time>
      </trkpt>
      <trkpt lat="45.22988" lon="5.99176">
        <ele>1289</ele>
        <time>2016-09-11T09:08:17Z</time>
      </trkpt>
      <trkpt lat="45.22971" lon="5.99188">
        <ele>1293</ele>
        <time>2016-09-11T09:08:34Z</time>
      </trkpt>
      <trkpt lat="45.22954" lon="5.99197">
        <ele>1295</ele>
        <time>2016-09-11T09:08:48Z</time>
      </trkpt>
      <trkpt lat="45.22936" lon="5.99204">
        <ele>1295</ele>
        <time>2016-09-11T09:09:04Z</time>
      </trkpt>
      <trkpt lat="45.22918" lon="5.99204">
        <ele>1294</ele>
        <time>2016-09-11T09:09:18Z</time>
      </trkpt>
      <trkpt lat="45.229" lon="5.99215">
        <ele>1283</ele>
        <time>2016-09-11T09:09:33Z</time>
      </trkpt>
      <trkpt lat="45.22885" lon="5.9923">
        <ele>1284</ele>
        <time>2016-09-11T09:09:46Z</time>
      </trkpt>
      <trkpt lat="45.2287" lon="5.99245">
        <ele>1281</ele>
        <time>2016-09-11T09:10:01Z</time>
      </trkpt>
      <trkpt lat="45.22854" lon="5.99256">
        <ele>1301</ele>
        <time>2016-09-11T09:10:14Z</time>
      </trkpt>
      <trkpt lat="45.22839" lon="5.99273">
        <ele>1303</ele>
        <time>2016-09-11T09:10:26Z</time>
      </trkpt>
      <trkpt lat="45.22822" lon="5.99286">
        <ele>1291</ele>
        <time>2016-09-11T09:10:41Z</time>
      </trkpt>
      <trkpt lat="45.22805" lon="5.99297">
        <ele>1294</ele>
        <time>2016-09-11T09:10:56Z</time>
      </trkpt>
      <trkpt lat="45.22789" lon="5.9931">
        <ele>1294</ele>
        <time>2016-09-11T09:11:11Z</time>
      </trkpt>
      <trkpt lat="45.22773" lon="5.99323">
        <ele>1294</ele>
        <time>2016-09-11T09:11:30Z</time>
      </trkpt>
      <trkpt lat="45.22758" lon="5.99341">
        <ele>1313</ele>
        <time>2016-09-11T09:11:44Z</time>
      </trkpt>
      <trkpt lat="45.22743" lon="5.99357">
        <ele>1307</ele>
        <time>2016-09-11T09:12:02Z</time>
      </trkpt>
      <trkpt lat="45.22727" lon="5.99372">
        <ele>1311</ele>
        <time>2016-09-11T09:12:18Z</time>
      </trkpt>
      <trkpt lat="45.22711" lon="5.99387">
        <ele>1313</ele>
        <time>2016-09-11T09:12:31Z</time>
      </trkpt>
      <trkpt lat="45.22695" lon="5.99399">
        <ele>1313</ele>
        <time>2016-09-11T09:12:49Z</time>
      </trkpt>
      <trkpt lat="45.22677" lon="5.99402">
        <ele>1312</ele>
        <time>2016-09-11T09:13:13Z</time>
      </trkpt>
      <trkpt lat="45.22658" lon="5.99401">
        <ele>1305</ele>
        <time>2016-09-11T09:13:23Z</time>
      </trkpt>
      <trkpt lat="45.2264" lon="5.99395">
        <ele>1301</ele>
        <time>2016-09-11T09:13:32Z</time>
      </trkpt>
      <trkpt lat="45.2262" lon="5.99396">
        <ele>1300</ele>
        <time>2016-09-11T09:13:45Z</time>
      </trkpt>
      <trkpt lat="45.22602" lon="5.99391">
        <ele>1300</ele>
        <time>2016-09-11T09:13:59Z</time>
      </trkpt>
      <trkpt lat="45.22583" lon="5.99386">
        <ele>1300</ele>
        <time>2016-09-11T09:14:12Z</time>
      </trkpt>
      <trkpt lat="45.22565" lon="5.99378">
        <ele>1294</ele>
        <time>2016-09-11T09:14:25Z</time>
      </trkpt>
      <trkpt lat="45.22546" lon="5.99381">
        <ele>1293</ele>
        <time>2016-09-11T09:14:38Z</time>
      </trkpt>
      <trkpt lat="45.22528" lon="5.99389">
        <ele>1294</ele>
        <time>2016-09-11T09:14:52Z</time>
      </trkpt>
      <trkpt lat="45.22516" lon="5.99408">
        <ele>1297</ele>
        <time>2016-09-11T09:15:04Z</time>
      </trkpt>
      <trkpt lat="45.22511" lon="5.99435">
        <ele>1307</ele>
        <time>2016-09-11T09:15:19Z</time>
      </trkpt>
      <trkpt lat="45.22513" lon="5.9946">
        <ele>1310</ele>
        <time>2016-09-11T09:15:35Z</time>
      </trkpt>
      <trkpt lat="45.22501" lon="5.99483">
        <ele>1311</ele>
        <time>2016-09-11T09:16:01Z</time>
      </trkpt>
      <trkpt lat="45.22497" lon="5.99509">
        <ele>1310</ele>
        <time>2016-09-11T09:16:07Z</time>
      </trkpt>
      <trkpt lat="45.22484" lon="5.9953">
        <ele>1310</ele>
        <time>2016-09-11T09:16:16Z</time>
      </trkpt>
      <trkpt lat="45.22472" lon="5.9955">
        <ele>1311</ele>
        <time>2016-09-11T09:16:26Z</time>
      </trkpt>
      <trkpt lat="45.22466" lon="5.99574">
        <ele>1312</ele>
        <time>2016-09-11T09:16:44Z</time>
      </trkpt>
      <trkpt lat="45.22457" lon="5.99597">
        <ele>1317</ele>
        <time>2016-09-11T09:16:53Z</time>
      </trkpt>
      <trkpt lat="45.22448" lon="5.9962">
        <ele>1318</ele>
        <time>2016-09-11T09:17:06Z</time>
      </trkpt>
      <trkpt lat="45.22435" lon="5.99639">
        <ele>1318</ele>
        <time>2016-09-11T09:17:20Z</time>
      </trkpt>
      <trkpt lat="45.22417" lon="5.99645">
        <ele>1318</ele>
        <time>2016-09-11T09:17:33Z</time>
      </trkpt>
      <trkpt lat="45.22399" lon="5.99649">
        <ele>1318</ele>
        <time>2016-09-11T09:17:47Z</time>
      </trkpt>
      <trkpt lat="45.22381" lon="5.99643">
        <ele>1318</ele>
        <time>2016-09-11T09:17:58Z</time>
      </trkpt>
      <trkpt lat="45.22367" lon="5.99627">
        <ele>1318</ele>
        <time>2016-09-11T09:18:10Z</time>
      </trkpt>
      <trkpt lat="45.22355" lon="5.99606">
        <ele>1317</ele>
        <time>2016-09-11T09:18:21Z</time>
      </trkpt>
      <trkpt lat="45.2234" lon="5.99591">
        <ele>1317</ele>
        <time>2016-09-11T09:18:37Z</time>
      </trkpt>
      <trkpt lat="45.22323" lon="5.99575">
        <ele>1318</ele>
        <time>2016-09-11T09:19:08Z</time>
      </trkpt>
      <trkpt lat="45.22303" lon="5.99568">
        <ele>1320</ele>
        <time>2016-09-11T09:19:27Z</time>
      </trkpt>
      <trkpt lat="45.22282" lon="5.99576">
        <ele>1322</ele>
        <time>2016-09-11T09:19:50Z</time>
      </trkpt>
      <trkpt lat="45.22266" lon="5.9959">
        <ele>1330</ele>
        <time>2016-09-11T09:20:22Z</time>
      </trkpt>
      <trkpt lat="45.2226" lon="5.99617">
        <ele>1332</ele>
        <time>2016-09-11T09:21:03Z</time>
      </trkpt>
      <trkpt lat="45.22246" lon="5.99636">
        <ele>1348</ele>
        <time>2016-09-11T09:21:23Z</time>
      </trkpt>
      <trkpt lat="45.22226" lon="5.99637">
        <ele>1350</ele>
        <time>2016-09-11T09:21:48Z</time>
      </trkpt>
      <trkpt lat="45.22207" lon="5.99632">
        <ele>1352</ele>
        <time>2016-09-11T09:22:20Z</time>
      </trkpt>
      <trkpt lat="45.22186" lon="5.99633">
        <ele>1355</ele>
        <time>2016-09-11T09:22:47Z</time>
      </trkpt>
      <trkpt lat="45.22168" lon="5.99631">
        <ele>1357</ele>
        <time>2016-09-11T09:23:20Z</time>
      </trkpt>
      <trkpt lat="45.22155" lon="5.99649">
        <ele>1376</ele>
        <time>2016-09-11T09:23:44Z</time>
      </trkpt>
      <trkpt lat="45.22135" lon="5.99643">
        <ele>1378</ele>
        <time>2016-09-11T09:24:07Z</time>
      </trkpt>
      <trkpt lat="45.22117" lon="5.99634">
        <ele>1380</ele>
        <time>2016-09-11T09:24:27Z</time>
      </trkpt>
      <trkpt lat="45.22101" lon="5.99621">
        <ele>1380</ele>
        <time>2016-09-11T09:24:54Z</time>
      </trkpt>
      <trkpt lat="45.22089" lon="5.996">
        <ele>1379</ele>
        <time>2016-09-11T09:25:08Z</time>
      </trkpt>
      <trkpt lat="45.22076" lon="5.99582">
        <ele>1380</ele>
        <time>2016-09-11T09:25:20Z</time>
      </trkpt>
      <trkpt lat="45.22058" lon="5.99569">
        <ele>1381</ele>
        <time>2016-09-11T09:25:40Z</time>
      </trkpt>
      <trkpt lat="45.22039" lon="5.99565">
        <ele>1384</ele>
        <time>2016-09-11T09:25:50Z</time>
      </trkpt>
      <trkpt lat="45.2202" lon="5.99564">
        <ele>1389</ele>
        <time>2016-09-11T09:26:13Z</time>
      </trkpt>
      <trkpt lat="45.22001" lon="5.99561">
        <ele>1392</ele>
        <time>2016-09-11T09:26:26Z</time>
      </trkpt>
      <trkpt lat="45.21983" lon="5.99555">
        <ele>1406</ele>
        <time>2016-09-11T09:26:40Z</time>
      </trkpt>
      <trkpt lat="45.21967" lon="5.99543">
        <ele>1406</ele>
        <time>2016-09-11T09:26:55Z</time>
      </trkpt>
      <trkpt lat="45.21952" lon="5.99527">
        <ele>1406</ele>
        <time>2016-09-11T09:27:06Z</time>
      </trkpt>
      <trkpt lat="45.21942" lon="5.99505">
        <ele>1405</ele>
        <time>2016-09-11T09:27:17Z</time>
      </trkpt>
      <trkpt lat="45.21931" lon="5.99484">
        <ele>1391</ele>
        <time>2016-09-11T09:27:30Z</time>
      </trkpt>
      <trkpt lat="45.21915" lon="5.9947">
        <ele>1410</ele>
        <time>2016-09-11T09:27:45Z</time>
      </trkpt>
      <trkpt lat="45.21902" lon="5.9945">
        <ele>1409</ele>
        <time>2016-09-11T09:27:58Z</time>
      </trkpt>
      <trkpt lat="45.21891" lon="5.99429">
        <ele>1408</ele>
        <time>2016-09-11T09:28:09Z</time>
      </trkpt>
      <trkpt lat="45.21888" lon="5.99403">
        <ele>1399</ele>
        <time>2016-09-11T09:28:29Z</time>
      </trkpt>
      <trkpt lat="45.21877" lon="5.99382">
        <ele>1401</ele>
        <time>2016-09-11T09:28:48Z</time>
      </trkpt>
      <trkpt lat="45.21861" lon="5.99368">
        <ele>1404</ele>
        <time>2016-09-11T09:29:03Z</time>
      </trkpt>
      <trkpt lat="45.21861" lon="5.99342">
        <ele>1404</ele>
        <time>2016-09-11T09:29:18Z</time>
      </trkpt>
      <trkpt lat="45.21859" lon="5.99316">
        <ele>1397</ele>
        <time>2016-09-11T09:29:34Z</time>
      </trkpt>
      <trkpt lat="45.21851" lon="5.99292">
        <ele>1396</ele>
        <time>2016-09-11T09:29:50Z</time>
      </trkpt>
      <trkpt lat="45.21842" lon="5.99269">
        <ele>1400</ele>
        <time>2016-09-11T09:30:02Z</time>
      </trkpt>
      <trkpt lat="45.21831" lon="5.99247">
        <ele>1414</ele>
        <time>2016-09-11T09:30:15Z</time>
      </trkpt>
      <trkpt lat="45.21821" lon="5.99225">
        <ele>1421</ele>
        <time>2016-09-11T09:30:28Z</time>
      </trkpt>
      <trkpt lat="45.2181" lon="5.99204">
        <ele>1423</ele>
        <time>2016-09-11T09:30:40Z</time>
      </trkpt>
      <trkpt lat="45.21808" lon="5.99176">
        <ele>1421</ele>
        <time>2016-09-11T09:30:55Z</time>
      </trkpt>
      <trkpt lat="45.21798" lon="5.99154">
        <ele>1422</ele>
        <time>2016-09-11T09:31:08Z</time>
      </trkpt>
      <trkpt lat="45.21786" lon="5.99133">
        <ele>1423</ele>
        <time>2016-09-11T09:31:19Z</time>
      </trkpt>
      <trkpt lat="45.21768" lon="5.99124">
        <ele>1425</ele>
        <time>2016-09-11T09:31:33Z</time>
      </trkpt>
      <trkpt lat="45.21754" lon="5.99105">
        <ele>1425</ele>
        <time>2016-09-11T09:31:53Z</time>
      </trkpt>
      <trkpt lat="45.21762" lon="5.99082">
        <ele>1430</ele>
        <time>2016-09-11T09:32:23Z</time>
      </trkpt>
      <trkpt lat="45.21777" lon="5.99063">
        <ele>1434</ele>
        <time>2016-09-11T09:32:42Z</time>
      </trkpt>
      <trkpt lat="45.21762" lon="5.99048">
        <ele>1436</ele>
        <time>2016-09-11T09:32:50Z</time>
      </trkpt>
      <trkpt lat="45.21745" lon="5.99039">
        <ele>1439</ele>
        <time>2016-09-11T09:33:04Z</time>
      </trkpt>
      <trkpt lat="45.21731" lon="5.99021">
        <ele>1442</ele>
        <time>2016-09-11T09:33:24Z</time>
      </trkpt>
      <trkpt lat="45.21713" lon="5.9901">
        <ele>1442</ele>
        <time>2016-09-11T09:34:14Z</time>
      </trkpt>
      <trkpt lat="45.21696" lon="5.98996">
        <ele>1452</ele>
        <time>2016-09-11T09:34:22Z</time>
      </trkpt>
      <trkpt lat="45.21684" lon="5.98978">
        <ele>1452</ele>
        <time>2016-09-11T09:34:55Z</time>
      </trkpt>
      <trkpt lat="45.21665" lon="5.98968">
        <ele>1456</ele>
        <time>2016-09-11T09:35:09Z</time>
      </trkpt>
      <trkpt lat="45.21639" lon="5.98939">
        <ele>1461</ele>
        <time>2016-09-11T09:35:25Z</time>
      </trkpt>
      <trkpt lat="45.21637" lon="5.98911">
        <ele>1471</ele>
        <time>2016-09-11T09:35:38Z</time>
      </trkpt>
      <trkpt lat="45.2163" lon="5.98887">
        <ele>1475</ele>
        <time>2016-09-11T09:35:53Z</time>
      </trkpt>
      <trkpt lat="45.21617" lon="5.98869">
        <ele>1477</ele>
        <time>2016-09-11T09:36:43Z</time>
      </trkpt>
      <trkpt lat="45.21606" lon="5.98846">
        <ele>1479</ele>
        <time>2016-09-11T09:37:09Z</time>
      </trkpt>
      <trkpt lat="45.21592" lon="5.9883">
        <ele>1486</ele>
        <time>2016-09-11T09:37:40Z</time>
      </trkpt>
      <trkpt lat="45.21572" lon="5.98817">
        <ele>1490</ele>
        <time>2016-09-11T09:38:17Z</time>
      </trkpt>
      <trkpt lat="45.21565" lon="5.98792">
        <ele>1497</ele>
        <time>2016-09-11T09:38:29Z</time>
      </trkpt>
      <trkpt lat="45.21547" lon="5.98775">
        <ele>1500</ele>
        <time>2016-09-11T09:38:38Z</time>
      </trkpt>
      <trkpt lat="45.21545" lon="5.98746">
        <ele>1514</ele>
        <time>2016-09-11T09:39:36Z</time>
      </trkpt>
      <trkpt lat="45.21529" lon="5.98731">
        <ele>1516</ele>
        <time>2016-09-11T09:39:44Z</time>
      </trkpt>
      <trkpt lat="45.2152" lon="5.98704">
        <ele>1520</ele>
        <time>2016-09-11T09:39:54Z</time>
      </trkpt>
      <trkpt lat="45.2152" lon="5.98677">
        <ele>1524</ele>
        <time>2016-09-11T09:40:06Z</time>
      </trkpt>
      <trkpt lat="45.21529" lon="5.98649">
        <ele>1541</ele>
        <time>2016-09-11T09:40:17Z</time>
      </trkpt>
      <trkpt lat="45.21547" lon="5.98662">
        <ele>1541</ele>
        <time>2016-09-11T09:41:03Z</time>
      </trkpt>
      <trkpt lat="45.21563" lon="5.98675">
        <ele>1527</ele>
        <time>2016-09-11T09:41:09Z</time>
      </trkpt>
      <trkpt lat="45.21578" lon="5.98689">
        <ele>1526</ele>
        <time>2016-09-11T09:41:38Z</time>
      </trkpt>
      <trkpt lat="45.21596" lon="5.98685">
        <ele>1533</ele>
        <time>2016-09-11T09:41:45Z</time>
      </trkpt>
      <trkpt lat="45.21614" lon="5.98691">
        <ele>1533</ele>
        <time>2016-09-11T09:41:55Z</time>
      </trkpt>
      <trkpt lat="45.21632" lon="5.98693">
        <ele>1535</ele>
        <time>2016-09-11T09:42:06Z</time>
      </trkpt>
      <trkpt lat="45.21649" lon="5.98681">
        <ele>1540</ele>
        <time>2016-09-11T09:42:22Z</time>
      </trkpt>
      <trkpt lat="45.21641" lon="5.98658">
        <ele>1556</ele>
        <time>2016-09-11T09:42:47Z</time>
      </trkpt>
      <trkpt lat="45.21642" lon="5.98628">
        <ele>1560</ele>
        <time>2016-09-11T09:44:09Z</time>
      </trkpt>
      <trkpt lat="45.21631" lon="5.98607">
        <ele>1563</ele>
        <time>2016-09-11T09:44:21Z</time>
      </trkpt>
      <trkpt lat="45.21616" lon="5.98592">
        <ele>1563</ele>
        <time>2016-09-11T09:44:56Z</time>
      </trkpt>
      <trkpt lat="45.2161" lon="5.98567">
        <ele>1580</ele>
        <time>2016-09-11T09:45:24Z</time>
      </trkpt>
      <trkpt lat="45.21601" lon="5.98545">
        <ele>1584</ele>
        <time>2016-09-11T09:45:34Z</time>
      </trkpt>
      <trkpt lat="45.21593" lon="5.98521">
        <ele>1588</ele>
        <time>2016-09-11T09:45:44Z</time>
      </trkpt>
      <trkpt lat="45.21578" lon="5.98504">
        <ele>1588</ele>
        <time>2016-09-11T09:45:59Z</time>
      </trkpt>
      <trkpt lat="45.2157" lon="5.98481">
        <ele>1599</ele>
        <time>2016-09-11T09:47:14Z</time>
      </trkpt>
      <trkpt lat="45.21586" lon="5.98466">
        <ele>1612</ele>
        <time>2016-09-11T09:47:53Z</time>
      </trkpt>
      <trkpt lat="45.21603" lon="5.98455">
        <ele>1617</ele>
        <time>2016-09-11T09:48:26Z</time>
      </trkpt>
      <trkpt lat="45.21617" lon="5.98438">
        <ele>1621</ele>
        <time>2016-09-11T09:48:32Z</time>
      </trkpt>
      <trkpt lat="45.21599" lon="5.98425">
        <ele>1623</ele>
        <time>2016-09-11T09:49:42Z</time>
      </trkpt>
      <trkpt lat="45.2158" lon="5.98412">
        <ele>1631</ele>
        <time>2016-09-11T09:49:45Z</time>
      </trkpt>
      <trkpt lat="45.21563" lon="5.98396">
        <ele>1634</ele>
        <time>2016-09-11T09:49:50Z</time>
      </trkpt>
      <trkpt lat="45.21546" lon="5.98387">
        <ele>1635</ele>
        <time>2016-09-11T09:50:48Z</time>
      </trkpt>
      <trkpt lat="45.21566" lon="5.98381">
        <ele>1637</ele>
        <time>2016-09-11T09:51:05Z</time>
      </trkpt>
      <trkpt lat="45.21584" lon="5.98377">
        <ele>1644</ele>
        <time>2016-09-11T09:52:07Z</time>
      </trkpt>
      <trkpt lat="45.21576" lon="5.98354">
        <ele>1646</ele>
        <time>2016-09-11T09:52:42Z</time>
      </trkpt>
      <trkpt lat="45.21565" lon="5.98328">
        <ele>1661</ele>
        <time>2016-09-11T09:53:05Z</time>
      </trkpt>
      <trkpt lat="45.21551" lon="5.98308">
        <ele>1662</ele>
        <time>2016-09-11T09:53:15Z</time>
      </trkpt>
      <trkpt lat="45.21538" lon="5.98289">
        <ele>1664</ele>
        <time>2016-09-11T09:53:25Z</time>
      </trkpt>
      <trkpt lat="45.21526" lon="5.9827">
        <ele>1667</ele>
        <time>2016-09-11T09:53:45Z</time>
      </trkpt>
      <trkpt lat="45.21507" lon="5.98264">
        <ele>1670</ele>
        <time>2016-09-11T09:54:13Z</time>
      </trkpt>
      <trkpt lat="45.21497" lon="5.98243">
        <ele>1677</ele>
        <time>2016-09-11T09:54:42Z</time>
      </trkpt>
      <trkpt lat="45.21492" lon="5.98218">
        <ele>1680</ele>
        <time>2016-09-11T09:55:04Z</time>
      </trkpt>
      <trkpt lat="45.21485" lon="5.98194">
        <ele>1682</ele>
        <time>2016-09-11T09:55:21Z</time>
      </trkpt>
      <trkpt lat="45.21476" lon="5.98171">
        <ele>1683</ele>
        <time>2016-09-11T09:55:42Z</time>
      </trkpt>
      <trkpt lat="45.21464" lon="5.98151">
        <ele>1693</ele>
        <time>2016-09-11T09:56:04Z</time>
      </trkpt>
      <trkpt lat="45.21449" lon="5.98131">
        <ele>1695</ele>
        <time>2016-09-11T09:56:25Z</time>
      </trkpt>
      <trkpt lat="45.21436" lon="5.98114">
        <ele>1698</ele>
        <time>2016-09-11T09:56:36Z</time>
      </trkpt>
      <trkpt lat="45.21424" lon="5.98092">
        <ele>1703</ele>
        <time>2016-09-11T09:56:56Z</time>
      </trkpt>
      <trkpt lat="45.21408" lon="5.98081">
        <ele>1714</ele>
        <time>2016-09-11T09:57:08Z</time>
      </trkpt>
      <trkpt lat="45.2139" lon="5.98075">
        <ele>1722</ele>
        <time>2016-09-11T09:57:25Z</time>
      </trkpt>
      <trkpt lat="45.21375" lon="5.98088">
        <ele>1716</ele>
        <time>2016-09-11T09:57:46Z</time>
      </trkpt>
      <trkpt lat="45.21364" lon="5.98112">
        <ele>1717</ele>
        <time>2016-09-11T09:58:05Z</time>
      </trkpt>
      <trkpt lat="45.21355" lon="5.98136">
        <ele>1717</ele>
        <time>2016-09-11T09:58:19Z</time>
      </trkpt>
      <trkpt lat="45.21346" lon="5.98158">
        <ele>1720</ele>
        <time>2016-09-11T09:58:36Z</time>
      </trkpt>
      <trkpt lat="45.21337" lon="5.98181">
        <ele>1714</ele>
        <time>2016-09-11T09:58:49Z</time>
      </trkpt>
      <trkpt lat="45.21327" lon="5.98203">
        <ele>1733</ele>
        <time>2016-09-11T09:59:06Z</time>
      </trkpt>
      <trkpt lat="45.21315" lon="5.98223">
        <ele>1732</ele>
        <time>2016-09-11T09:59:24Z</time>
      </trkpt>
      <trkpt lat="45.21302" lon="5.98242">
        <ele>1734</ele>
        <time>2016-09-11T09:59:40Z</time>
      </trkpt>
      <trkpt lat="45.21288" lon="5.98259">
        <ele>1726</ele>
        <time>2016-09-11T09:59:55Z</time>
      </trkpt>
      <trkpt lat="45.21276" lon="5.9828">
        <ele>1728</ele>
        <time>2016-09-11T10:00:12Z</time>
      </trkpt>
      <trkpt lat="45.21264" lon="5.98301">
        <ele>1727</ele>
        <time>2016-09-11T10:00:28Z</time>
      </trkpt>
      <trkpt lat="45.21254" lon="5.98323">
        <ele>1731</ele>
        <time>2016-09-11T10:00:43Z</time>
      </trkpt>
      <trkpt lat="45.21247" lon="5.98347">
        <ele>1748</ele>
        <time>2016-09-11T10:00:57Z</time>
      </trkpt>
      <trkpt lat="45.21235" lon="5.98366">
        <ele>1756</ele>
        <time>2016-09-11T10:01:10Z</time>
      </trkpt>
      <trkpt lat="45.21225" lon="5.98389">
        <ele>1756</ele>
        <time>2016-09-11T10:01:24Z</time>
      </trkpt>
      <trkpt lat="45.21221" lon="5.98415">
        <ele>1753</ele>
        <time>2016-09-11T10:01:38Z</time>
      </trkpt>
      <trkpt lat="45.21215" lon="5.98441">
        <ele>1756</ele>
        <time>2016-09-11T10:02:00Z</time>
      </trkpt>
      <trkpt lat="45.21212" lon="5.98467">
        <ele>1758</ele>
        <time>2016-09-11T10:02:22Z</time>
      </trkpt>
      <trkpt lat="45.21217" lon="5.98492">
        <ele>1754</ele>
        <time>2016-09-11T10:02:38Z</time>
      </trkpt>
      <trkpt lat="45.21224" lon="5.98516">
        <ele>1749</ele>
        <time>2016-09-11T10:03:05Z</time>
      </trkpt>
      <trkpt lat="45.21222" lon="5.98543">
        <ele>1752</ele>
        <time>2016-09-11T10:03:31Z</time>
      </trkpt>
      <trkpt lat="45.21219" lon="5.98569">
        <ele>1751</ele>
        <time>2016-09-11T10:03:49Z</time>
      </trkpt>
      <trkpt lat="45.21213" lon="5.98593">
        <ele>1750</ele>
        <time>2016-09-11T10:04:10Z</time>
      </trkpt>
      <trkpt lat="45.21196" lon="5.98606">
        <ele>1760</ele>
        <time>2016-09-11T10:04:35Z</time>
      </trkpt>
      <trkpt lat="45.21179" lon="5.98614">
        <ele>1766</ele>
        <time>2016-09-11T10:04:59Z</time>
      </trkpt>
      <trkpt lat="45.21184" lon="5.98589">
        <ele>1774</ele>
        <time>2016-09-11T10:05:43Z</time>
      </trkpt>
      <trkpt lat="45.21167" lon="5.98597">
        <ele>1780</ele>
        <time>2016-09-11T10:06:10Z</time>
      </trkpt>
      <trkpt lat="45.2115" lon="5.98608">
        <ele>1817</ele>
        <time>2016-09-11T10:06:34Z</time>
      </trkpt>
      <trkpt lat="45.21145" lon="5.98634">
        <ele>1817</ele>
        <time>2016-09-11T10:06:54Z</time>
      </trkpt>
      <trkpt lat="45.21147" lon="5.98661">
        <ele>1809</ele>
        <time>2016-09-11T10:07:06Z</time>
      </trkpt>
      <trkpt lat="45.21146" lon="5.98687">
        <ele>1811</ele>
        <time>2016-09-11T10:07:26Z</time>
      </trkpt>
      <trkpt lat="45.21148" lon="5.98713">
        <ele>1813</ele>
        <time>2016-09-11T10:07:45Z</time>
      </trkpt>
      <trkpt lat="45.21143" lon="5.98739">
        <ele>1811</ele>
        <time>2016-09-11T10:08:05Z</time>
      </trkpt>
      <trkpt lat="45.21143" lon="5.98765">
        <ele>1813</ele>
        <time>2016-09-11T10:08:25Z</time>
      </trkpt>
      <trkpt lat="45.21141" lon="5.9879">
        <ele>1817</ele>
        <time>2016-09-11T10:08:46Z</time>
      </trkpt>
      <trkpt lat="45.21135" lon="5.98815">
        <ele>1819</ele>
        <time>2016-09-11T10:09:18Z</time>
      </trkpt>
      <trkpt lat="45.21129" lon="5.98841">
        <ele>1823</ele>
        <time>2016-09-11T10:09:43Z</time>
      </trkpt>
      <trkpt lat="45.21116" lon="5.98822">
        <ele>1829</ele>
        <time>2016-09-11T10:10:25Z</time>
      </trkpt>
      <trkpt lat="45.21106" lon="5.988">
        <ele>1831</ele>
        <time>2016-09-11T10:10:51Z</time>
      </trkpt>
      <trkpt lat="45.21097" lon="5.98823">
        <ele>1841</ele>
        <time>2016-09-11T10:11:29Z</time>
      </trkpt>
      <trkpt lat="45.21086" lon="5.98843">
        <ele>1847</ele>
        <time>2016-09-11T10:11:48Z</time>
      </trkpt>
      <trkpt lat="45.21078" lon="5.98819">
        <ele>1870</ele>
        <time>2016-09-11T10:12:24Z</time>
      </trkpt>
      <trkpt lat="45.2107" lon="5.98796">
        <ele>1877</ele>
        <time>2016-09-11T10:12:45Z</time>
      </trkpt>
      <trkpt lat="45.21061" lon="5.98819">
        <ele>1877</ele>
        <time>2016-09-11T10:13:35Z</time>
      </trkpt>
      <trkpt lat="45.21048" lon="5.988">
        <ele>1883</ele>
        <time>2016-09-11T10:14:23Z</time>
      </trkpt>
      <trkpt lat="45.21036" lon="5.98821">
        <ele>1888</ele>
        <time>2016-09-11T10:14:57Z</time>
      </trkpt>
      <trkpt lat="45.21023" lon="5.98839">
        <ele>1895</ele>
        <time>2016-09-11T10:15:19Z</time>
      </trkpt>
      <trkpt lat="45.21008" lon="5.98853">
        <ele>1898</ele>
        <time>2016-09-11T10:16:08Z</time>
      </trkpt>
      <trkpt lat="45.21004" lon="5.9888">
        <ele>1896</ele>
        <time>2016-09-11T10:16:27Z</time>
      </trkpt>
      <trkpt lat="45.20987" lon="5.98888">
        <ele>1915</ele>
        <time>2016-09-11T10:17:11Z</time>
      </trkpt>
      <trkpt lat="45.20969" lon="5.98887">
        <ele>1915</ele>
        <time>2016-09-11T10:17:45Z</time>
      </trkpt>
      <trkpt lat="45.20953" lon="5.98873">
        <ele>1916</ele>
        <time>2016-09-11T10:18:18Z</time>
      </trkpt>
      <trkpt lat="45.20935" lon="5.98869">
        <ele>1916</ele>
        <time>2016-09-11T10:18:41Z</time>
      </trkpt>
      <trkpt lat="45.20917" lon="5.98868">
        <ele>1916</ele>
        <time>2016-09-11T10:19:00Z</time>
      </trkpt>
      <trkpt lat="45.20899" lon="5.98867">
        <ele>1917</ele>
        <time>2016-09-11T10:19:16Z</time>
      </trkpt>
      <trkpt lat="45.20881" lon="5.98875">
        <ele>1918</ele>
        <time>2016-09-11T10:19:55Z</time>
      </trkpt>
      <trkpt lat="45.20863" lon="5.98869">
        <ele>1917</ele>
        <time>2016-09-11T10:20:27Z</time>
      </trkpt>
      <trkpt lat="45.20847" lon="5.98882">
        <ele>1919</ele>
        <time>2016-09-11T10:48:59Z</time>
      </trkpt>
      <trkpt lat="45.20829" lon="5.98887">
        <ele>1921</ele>
        <time>2016-09-11T10:49:28Z</time>
      </trkpt>
      <trkpt lat="45.20811" lon="5.98891">
        <ele>1922</ele>
        <time>2016-09-11T10:49:50Z</time>
      </trkpt>
      <trkpt lat="45.20792" lon="5.98895">
        <ele>1923</ele>
        <time>2016-09-11T10:50:14Z</time>
      </trkpt>
      <trkpt lat="45.20774" lon="5.98898">
        <ele>1925</ele>
        <time>2016-09-11T10:50:30Z</time>
      </trkpt>
      <trkpt lat="45.20755" lon="5.98901">
        <ele>1928</ele>
        <time>2016-09-11T10:50:50Z</time>
      </trkpt>
      <trkpt lat="45.20737" lon="5.98901">
        <ele>1932</ele>
        <time>2016-09-11T10:51:10Z</time>
      </trkpt>
      <trkpt lat="45.20719" lon="5.98909">
        <ele>1932</ele>
        <time>2016-09-11T10:51:31Z</time>
      </trkpt>
      <trkpt lat="45.20701" lon="5.98917">
        <ele>1955</ele>
        <time>2016-09-11T10:51:55Z</time>
      </trkpt>
      <trkpt lat="45.20683" lon="5.98924">
        <ele>1955</ele>
        <time>2016-09-11T10:52:17Z</time>
      </trkpt>
      <trkpt lat="45.20668" lon="5.98938">
        <ele>1957</ele>
        <time>2016-09-11T10:52:44Z</time>
      </trkpt>
      <trkpt lat="45.2065" lon="5.98927">
        <ele>1964</ele>
        <time>2016-09-11T10:53:05Z</time>
      </trkpt>
      <trkpt lat="45.20632" lon="5.9892">
        <ele>1970</ele>
        <time>2016-09-11T10:53:28Z</time>
      </trkpt>
      <trkpt lat="45.20615" lon="5.98909">
        <ele>1954</ele>
        <time>2016-09-11T10:53:45Z</time>
      </trkpt>
      <trkpt lat="45.20602" lon="5.98891">
        <ele>1954</ele>
        <time>2016-09-11T10:54:04Z</time>
      </trkpt>
      <trkpt lat="45.20585" lon="5.98879">
        <ele>1953</ele>
        <time>2016-09-11T10:54:29Z</time>
      </trkpt>
      <trkpt lat="45.20571" lon="5.98863">
        <ele>1969</ele>
        <time>2016-09-11T10:54:47Z</time>
      </trkpt>
      <trkpt lat="45.20553" lon="5.98859">
        <ele>1973</ele>
        <time>2016-09-11T10:55:05Z</time>
      </trkpt>
      <trkpt lat="45.20535" lon="5.98858">
        <ele>1977</ele>
        <time>2016-09-11T10:55:27Z</time>
      </trkpt>
      <trkpt lat="45.20516" lon="5.98852">
        <ele>1980</ele>
        <time>2016-09-11T10:55:50Z</time>
      </trkpt>
      <trkpt lat="45.20498" lon="5.98845">
        <ele>1997</ele>
        <time>2016-09-11T10:56:21Z</time>
      </trkpt>
      <trkpt lat="45.20487" lon="5.98824">
        <ele>1995</ele>
        <time>2016-09-11T10:56:59Z</time>
      </trkpt>
      <trkpt lat="45.20478" lon="5.988">
        <ele>2003</ele>
        <time>2016-09-11T10:57:29Z</time>
      </trkpt>
      <trkpt lat="45.20478" lon="5.98774">
        <ele>2003</ele>
        <time>2016-09-11T10:57:54Z</time>
      </trkpt>
      <trkpt lat="45.20484" lon="5.98749">
        <ele>2002</ele>
        <time>2016-09-11T10:58:18Z</time>
      </trkpt>
      <trkpt lat="45.20469" lon="5.98735">
        <ele>2014</ele>
        <time>2016-09-11T10:58:58Z</time>
      </trkpt>
      <trkpt lat="45.20452" lon="5.98727">
        <ele>2021</ele>
        <time>2016-09-11T10:59:43Z</time>
      </trkpt>
      <trkpt lat="45.20454" lon="5.987">
        <ele>2024</ele>
        <time>2016-09-11T11:00:32Z</time>
      </trkpt>
      <trkpt lat="45.20436" lon="5.98704">
        <ele>2028</ele>
        <time>2016-09-11T11:00:53Z</time>
      </trkpt>
      <trkpt lat="45.20427" lon="5.98681">
        <ele>2038</ele>
        <time>2016-09-11T11:01:54Z</time>
      </trkpt>
      <trkpt lat="45.20409" lon="5.98679">
        <ele>2059</ele>
        <time>2016-09-11T11:02:40Z</time>
      </trkpt>
      <trkpt lat="45.20393" lon="5.98666">
        <ele>2079</ele>
        <time>2016-09-11T11:03:34Z</time>
      </trkpt>
      <trkpt lat="45.20376" lon="5.98677">
        <ele>2067</ele>
        <time>2016-09-11T11:04:12Z</time>
      </trkpt>
      <trkpt lat="45.20363" lon="5.98696">
        <ele>2069</ele>
        <time>2016-09-11T11:04:27Z</time>
      </trkpt>
      <trkpt lat="45.20346" lon="5.98705">
        <ele>2070</ele>
        <time>2016-09-11T11:04:52Z</time>
      </trkpt>
      <trkpt lat="45.20327" lon="5.98698">
        <ele>2094</ele>
        <time>2016-09-11T11:05:29Z</time>
      </trkpt>
      <trkpt lat="45.20311" lon="5.98687">
        <ele>2097</ele>
        <time>2016-09-11T11:06:37Z</time>
      </trkpt>
      <trkpt lat="45.20302" lon="5.98664">
        <ele>2123</ele>
        <time>2016-09-11T11:07:33Z</time>
      </trkpt>
      <trkpt lat="45.20292" lon="5.98642">
        <ele>2129</ele>
        <time>2016-09-11T11:08:29Z</time>
      </trkpt>
      <trkpt lat="45.20276" lon="5.9863">
        <ele>2135</ele>
        <time>2016-09-11T11:09:20Z</time>
      </trkpt>
      <trkpt lat="45.20258" lon="5.98635">
        <ele>2136</ele>
        <time>2016-09-11T11:09:56Z</time>
      </trkpt>
      <trkpt lat="45.2024" lon="5.98643">
        <ele>2158</ele>
        <time>2016-09-11T11:10:19Z</time>
      </trkpt>
      <trkpt lat="45.20222" lon="5.98642">
        <ele>2164</ele>
        <time>2016-09-11T11:10:44Z</time>
      </trkpt>
      <trkpt lat="45.20205" lon="5.98635">
        <ele>2171</ele>
        <time>2016-09-11T11:11:21Z</time>
      </trkpt>
      <trkpt lat="45.20188" lon="5.98645">
        <ele>2173</ele>
        <time>2016-09-11T11:12:09Z</time>
      </trkpt>
      <trkpt lat="45.20171" lon="5.98654">
        <ele>2174</ele>
        <time>2016-09-11T11:12:48Z</time>
      </trkpt>
      <trkpt lat="45.20153" lon="5.9866">
        <ele>2192</ele>
        <time>2016-09-11T11:13:32Z</time>
      </trkpt>
      <trkpt lat="45.20135" lon="5.98666">
        <ele>2202</ele>
        <time>2016-09-11T11:14:05Z</time>
      </trkpt>
      <trkpt lat="45.20117" lon="5.98658">
        <ele>2210</ele>
        <time>2016-09-11T11:14:54Z</time>
      </trkpt>
      <trkpt lat="45.201" lon="5.98648">
        <ele>2215</ele>
        <time>2016-09-11T11:15:37Z</time>
      </trkpt>
      <trkpt lat="45.20082" lon="5.98652">
        <ele>2230</ele>
        <time>2016-09-11T11:16:03Z</time>
      </trkpt>
      <trkpt lat="45.20064" lon="5.98656">
        <ele>2234</ele>
        <time>2016-09-11T11:16:33Z</time>
      </trkpt>
      <trkpt lat="45.20048" lon="5.9867">
        <ele>2222</ele>
        <time>2016-09-11T11:17:00Z</time>
      </trkpt>
      <trkpt lat="45.20035" lon="5.98689">
        <ele>2224</ele>
        <time>2016-09-11T11:17:19Z</time>
      </trkpt>
      <trkpt lat="45.20019" lon="5.98701">
        <ele>2226</ele>
        <time>2016-09-11T11:17:45Z</time>
      </trkpt>
      <trkpt lat="45.20007" lon="5.98721">
        <ele>2225</ele>
        <time>2016-09-11T11:18:04Z</time>
      </trkpt>
      <trkpt lat="45.19997" lon="5.98744">
        <ele>2241</ele>
        <time>2016-09-11T11:18:21Z</time>
      </trkpt>
      <trkpt lat="45.19986" lon="5.98765">
        <ele>2248</ele>
        <time>2016-09-11T11:18:46Z</time>
      </trkpt>
      <trkpt lat="45.19973" lon="5.98784">
        <ele>2254</ele>
        <time>2016-09-11T11:19:13Z</time>
      </trkpt>
      <trkpt lat="45.1997" lon="5.9881">
        <ele>2254</ele>
        <time>2016-09-11T11:19:41Z</time>
      </trkpt>
      <trkpt lat="45.19971" lon="5.98836">
        <ele>2250</ele>
        <time>2016-09-11T11:20:03Z</time>
      </trkpt>
      <trkpt lat="45.19965" lon="5.98861">
        <ele>2255</ele>
        <time>2016-09-11T11:20:26Z</time>
      </trkpt>
      <trkpt lat="45.19963" lon="5.98888">
        <ele>2255</ele>
        <time>2016-09-11T11:20:56Z</time>
      </trkpt>
      <trkpt lat="45.19962" lon="5.98915">
        <ele>2255</ele>
        <time>2016-09-11T11:21:18Z</time>
      </trkpt>
      <trkpt lat="45.19962" lon="5.98957">
        <ele>2263</ele>
        <time>2016-09-11T11:21:47Z</time>
      </trkpt>
      <trkpt lat="45.19961" lon="5.98983">
        <ele>2265</ele>
        <time>2016-09-11T11:22:03Z</time>
      </trkpt>
      <trkpt lat="45.19965" lon="5.99008">
        <ele>2273</ele>
        <time>2016-09-11T11:22:31Z</time>
      </trkpt>
      <trkpt lat="45.19972" lon="5.99031">
        <ele>2272</ele>
        <time>2016-09-11T11:22:58Z</time>
      </trkpt>
      <trkpt lat="45.19984" lon="5.99052">
        <ele>2270</ele>
        <time>2016-09-11T11:23:22Z</time>
      </trkpt>
      <trkpt lat="45.19985" lon="5.99078">
        <ele>2266</ele>
        <time>2016-09-11T11:24:26Z</time>
      </trkpt>
      <trkpt lat="45.19968" lon="5.99088">
        <ele>2278</ele>
        <time>2016-09-11T11:25:15Z</time>
      </trkpt>
      <trkpt lat="45.1995" lon="5.99085">
        <ele>2288</ele>
        <time>2016-09-11T11:25:41Z</time>
      </trkpt>
      <trkpt lat="45.19936" lon="5.99069">
        <ele>2290</ele>
        <time>2016-09-11T11:26:02Z</time>
      </trkpt>
      <trkpt lat="45.19932" lon="5.99094">
        <ele>2297</ele>
        <time>2016-09-11T11:27:05Z</time>
      </trkpt>
      <trkpt lat="45.19916" lon="5.99104">
        <ele>2330</ele>
        <time>2016-09-11T11:27:53Z</time>
      </trkpt>
      <trkpt lat="45.19899" lon="5.99092">
        <ele>2331</ele>
        <time>2016-09-11T11:28:26Z</time>
      </trkpt>
      <trkpt lat="45.19889" lon="5.99071">
        <ele>2328</ele>
        <time>2016-09-11T11:28:50Z</time>
      </trkpt>
      <trkpt lat="45.19876" lon="5.99053">
        <ele>2332</ele>
        <time>2016-09-11T11:29:13Z</time>
      </trkpt>
      <trkpt lat="45.19871" lon="5.99028">
        <ele>2332</ele>
        <time>2016-09-11T11:29:37Z</time>
      </trkpt>
      <trkpt lat="45.19859" lon="5.99008">
        <ele>2338</ele>
        <time>2016-09-11T11:30:18Z</time>
      </trkpt>
      <trkpt lat="45.19845" lon="5.98991">
        <ele>2343</ele>
        <time>2016-09-11T11:31:08Z</time>
      </trkpt>
      <trkpt lat="45.19841" lon="5.98965">
        <ele>2338</ele>
        <time>2016-09-11T11:32:20Z</time>
      </trkpt>
      <trkpt lat="45.19822" lon="5.98965">
        <ele>2375</ele>
        <time>2016-09-11T11:32:58Z</time>
      </trkpt>
      <trkpt lat="45.19805" lon="5.98971">
        <ele>2378</ele>
        <time>2016-09-11T11:33:40Z</time>
      </trkpt>
      <trkpt lat="45.19789" lon="5.98957">
        <ele>2382</ele>
        <time>2016-09-11T11:34:34Z</time>
      </trkpt>
      <trkpt lat="45.19772" lon="5.98948">
        <ele>2387</ele>
        <time>2016-09-11T11:35:07Z</time>
      </trkpt>
      <trkpt lat="45.19757" lon="5.9893">
        <ele>2395</ele>
        <time>2016-09-11T11:35:31Z</time>
      </trkpt>
      <trkpt lat="45.19749" lon="5.98908">
        <ele>2408</ele>
        <time>2016-09-11T11:35:51Z</time>
      </trkpt>
      <trkpt lat="45.19748" lon="5.98881">
        <ele>2410</ele>
        <time>2016-09-11T11:36:14Z</time>
      </trkpt>
      <trkpt lat="45.19741" lon="5.98855">
        <ele>2410</ele>
        <time>2016-09-11T11:36:31Z</time>
      </trkpt>
      <trkpt lat="45.1974" lon="5.98829">
        <ele>2407</ele>
        <time>2016-09-11T11:36:48Z</time>
      </trkpt>
      <trkpt lat="45.19729" lon="5.98809">
        <ele>2404</ele>
        <time>2016-09-11T11:37:07Z</time>
      </trkpt>
      <trkpt lat="45.19712" lon="5.98798">
        <ele>2403</ele>
        <time>2016-09-11T11:40:20Z</time>
      </trkpt>
      <trkpt lat="45.19695" lon="5.98789">
        <ele>2401</ele>
        <time>2016-09-11T11:50:33Z</time>
      </trkpt>
      <trkpt lat="45.19676" lon="5.98788">
        <ele>2399</ele>
        <time>2016-09-11T11:51:20Z</time>
      </trkpt>
      <trkpt lat="45.19658" lon="5.98791">
        <ele>2383</ele>
        <time>2016-09-11T11:51:51Z</time>
      </trkpt>
      <trkpt lat="45.19644" lon="5.98773">
        <ele>2379</ele>
        <time>2016-09-11T11:52:35Z</time>
      </trkpt>
      <trkpt lat="45.19627" lon="5.98762">
        <ele>2374</ele>
        <time>2016-09-11T11:52:55Z</time>
      </trkpt>
      <trkpt lat="45.19608" lon="5.98732">
        <ele>2358</ele>
        <time>2016-09-11T11:53:44Z</time>
      </trkpt>
      <trkpt lat="45.19601" lon="5.98705">
        <ele>2357</ele>
        <time>2016-09-11T11:54:01Z</time>
      </trkpt>
      <trkpt lat="45.19595" lon="5.98681">
        <ele>2351</ele>
        <time>2016-09-11T11:54:18Z</time>
      </trkpt>
      <trkpt lat="45.19585" lon="5.98659">
        <ele>2344</ele>
        <time>2016-09-11T11:54:32Z</time>
      </trkpt>
      <trkpt lat="45.19579" lon="5.98634">
        <ele>2325</ele>
        <time>2016-09-11T11:54:51Z</time>
      </trkpt>
      <trkpt lat="45.19568" lon="5.98599">
        <ele>2324</ele>
        <time>2016-09-11T11:55:17Z</time>
      </trkpt>
      <trkpt lat="45.19561" lon="5.98576">
        <ele>2313</ele>
        <time>2016-09-11T11:55:34Z</time>
      </trkpt>
      <trkpt lat="45.19561" lon="5.9855">
        <ele>2306</ele>
        <time>2016-09-11T11:55:58Z</time>
      </trkpt>
      <trkpt lat="45.19569" lon="5.98526">
        <ele>2302</ele>
        <time>2016-09-11T11:56:21Z</time>
      </trkpt>
      <trkpt lat="45.19578" lon="5.98496">
        <ele>2294</ele>
        <time>2016-09-11T11:56:55Z</time>
      </trkpt>
      <trkpt lat="45.19569" lon="5.98473">
        <ele>2278</ele>
        <time>2016-09-11T11:57:15Z</time>
      </trkpt>
      <trkpt lat="45.19553" lon="5.98459">
        <ele>2271</ele>
        <time>2016-09-11T11:59:04Z</time>
      </trkpt>
      <trkpt lat="45.19545" lon="5.98436">
        <ele>2266</ele>
        <time>2016-09-11T11:59:47Z</time>
      </trkpt>
      <trkpt lat="45.1954" lon="5.98412">
        <ele>2246</ele>
        <time>2016-09-11T12:00:18Z</time>
      </trkpt>
      <trkpt lat="45.19538" lon="5.98386">
        <ele>2243</ele>
        <time>2016-09-11T12:00:36Z</time>
      </trkpt>
      <trkpt lat="45.19543" lon="5.98361">
        <ele>2241</ele>
        <time>2016-09-11T12:01:00Z</time>
      </trkpt>
      <trkpt lat="45.19558" lon="5.98344">
        <ele>2239</ele>
        <time>2016-09-11T12:01:32Z</time>
      </trkpt>
      <trkpt lat="45.19567" lon="5.98322">
        <ele>2229</ele>
        <time>2016-09-11T12:01:52Z</time>
      </trkpt>
      <trkpt lat="45.19577" lon="5.98299">
        <ele>2225</ele>
        <time>2016-09-11T12:02:08Z</time>
      </trkpt>
      <trkpt lat="45.19577" lon="5.98268">
        <ele>2222</ele>
        <time>2016-09-11T12:02:31Z</time>
      </trkpt>
      <trkpt lat="45.19578" lon="5.9824">
        <ele>2215</ele>
        <time>2016-09-11T12:02:50Z</time>
      </trkpt>
      <trkpt lat="45.19585" lon="5.98194">
        <ele>2220</ele>
        <time>2016-09-11T12:03:20Z</time>
      </trkpt>
      <trkpt lat="45.19591" lon="5.98169">
        <ele>2212</ele>
        <time>2016-09-11T12:03:36Z</time>
      </trkpt>
      <trkpt lat="45.19597" lon="5.98144">
        <ele>2208</ele>
        <time>2016-09-11T12:03:54Z</time>
      </trkpt>
      <trkpt lat="45.19599" lon="5.98115">
        <ele>2205</ele>
        <time>2016-09-11T12:04:12Z</time>
      </trkpt>
      <trkpt lat="45.19598" lon="5.98089">
        <ele>2198</ele>
        <time>2016-09-11T12:04:30Z</time>
      </trkpt>
      <trkpt lat="45.19596" lon="5.98062">
        <ele>2189</ele>
        <time>2016-09-11T12:04:45Z</time>
      </trkpt>
      <trkpt lat="45.19583" lon="5.98042">
        <ele>2176</ele>
        <time>2016-09-11T12:05:04Z</time>
      </trkpt>
      <trkpt lat="45.1958" lon="5.98016">
        <ele>2174</ele>
        <time>2016-09-11T12:05:20Z</time>
      </trkpt>
      <trkpt lat="45.19572" lon="5.97992">
        <ele>2166</ele>
        <time>2016-09-11T12:05:41Z</time>
      </trkpt>
      <trkpt lat="45.19557" lon="5.97977">
        <ele>2162</ele>
        <time>2016-09-11T12:05:59Z</time>
      </trkpt>
      <trkpt lat="45.19538" lon="5.97978">
        <ele>2161</ele>
        <time>2016-09-11T12:06:26Z</time>
      </trkpt>
      <trkpt lat="45.19525" lon="5.9796">
        <ele>2159</ele>
        <time>2016-09-11T12:06:41Z</time>
      </trkpt>
      <trkpt lat="45.19511" lon="5.97942">
        <ele>2156</ele>
        <time>2016-09-11T12:07:00Z</time>
      </trkpt>
      <trkpt lat="45.19502" lon="5.97919">
        <ele>2150</ele>
        <time>2016-09-11T12:07:19Z</time>
      </trkpt>
      <trkpt lat="45.19485" lon="5.97909">
        <ele>2149</ele>
        <time>2016-09-11T12:07:37Z</time>
      </trkpt>
      <trkpt lat="45.19479" lon="5.97883">
        <ele>2149</ele>
        <time>2016-09-11T12:07:57Z</time>
      </trkpt>
      <trkpt lat="45.19479" lon="5.97857">
        <ele>2147</ele>
        <time>2016-09-11T12:08:22Z</time>
      </trkpt>
      <trkpt lat="45.19469" lon="5.97836">
        <ele>2147</ele>
        <time>2016-09-11T12:08:36Z</time>
      </trkpt>
      <trkpt lat="45.19465" lon="5.97809">
        <ele>2144</ele>
        <time>2016-09-11T12:08:50Z</time>
      </trkpt>
      <trkpt lat="45.19464" lon="5.97783">
        <ele>2143</ele>
        <time>2016-09-11T12:09:03Z</time>
      </trkpt>
      <trkpt lat="45.19468" lon="5.97756">
        <ele>2142</ele>
        <time>2016-09-11T12:09:18Z</time>
      </trkpt>
      <trkpt lat="45.19476" lon="5.97732">
        <ele>2137</ele>
        <time>2016-09-11T12:09:32Z</time>
      </trkpt>
      <trkpt lat="45.19479" lon="5.97704">
        <ele>2136</ele>
        <time>2016-09-11T12:09:48Z</time>
      </trkpt>
      <trkpt lat="45.19471" lon="5.9768">
        <ele>2135</ele>
        <time>2016-09-11T12:10:06Z</time>
      </trkpt>
      <trkpt lat="45.19465" lon="5.97655">
        <ele>2129</ele>
        <time>2016-09-11T12:10:26Z</time>
      </trkpt>
      <trkpt lat="45.19468" lon="5.97628">
        <ele>2128</ele>
        <time>2016-09-11T12:10:47Z</time>
      </trkpt>
      <trkpt lat="45.19465" lon="5.97602">
        <ele>2127</ele>
        <time>2016-09-11T12:11:08Z</time>
      </trkpt>
      <trkpt lat="45.19447" lon="5.97593">
        <ele>2125</ele>
        <time>2016-09-11T12:11:25Z</time>
      </trkpt>
      <trkpt lat="45.19429" lon="5.97588">
        <ele>2122</ele>
        <time>2016-09-11T12:11:48Z</time>
      </trkpt>
      <trkpt lat="45.19415" lon="5.97571">
        <ele>2114</ele>
        <time>2016-09-11T12:12:11Z</time>
      </trkpt>
      <trkpt lat="45.19397" lon="5.9756">
        <ele>2111</ele>
        <time>2016-09-11T12:12:33Z</time>
      </trkpt>
      <trkpt lat="45.19378" lon="5.97554">
        <ele>2108</ele>
        <time>2016-09-11T12:12:46Z</time>
      </trkpt>
      <trkpt lat="45.19365" lon="5.97536">
        <ele>2106</ele>
        <time>2016-09-11T12:13:12Z</time>
      </trkpt>
      <trkpt lat="45.1935" lon="5.9752">
        <ele>2102</ele>
        <time>2016-09-11T12:13:35Z</time>
      </trkpt>
      <trkpt lat="45.19339" lon="5.97497">
        <ele>2095</ele>
        <time>2016-09-11T12:14:04Z</time>
      </trkpt>
      <trkpt lat="45.1934" lon="5.9747">
        <ele>2100</ele>
        <time>2016-09-11T12:14:21Z</time>
      </trkpt>
      <trkpt lat="45.19327" lon="5.97452">
        <ele>2088</ele>
        <time>2016-09-11T12:14:44Z</time>
      </trkpt>
      <trkpt lat="45.19312" lon="5.97438">
        <ele>2087</ele>
        <time>2016-09-11T12:15:00Z</time>
      </trkpt>
      <trkpt lat="45.19295" lon="5.97426">
        <ele>2085</ele>
        <time>2016-09-11T12:15:12Z</time>
      </trkpt>
      <trkpt lat="45.19277" lon="5.97417">
        <ele>2081</ele>
        <time>2016-09-11T12:15:27Z</time>
      </trkpt>
      <trkpt lat="45.19262" lon="5.974">
        <ele>2079</ele>
        <time>2016-09-11T12:15:42Z</time>
      </trkpt>
      <trkpt lat="45.19248" lon="5.97384">
        <ele>2069</ele>
        <time>2016-09-11T12:16:01Z</time>
      </trkpt>
      <trkpt lat="45.19232" lon="5.97371">
        <ele>2069</ele>
        <time>2016-09-11T12:16:14Z</time>
      </trkpt>
      <trkpt lat="45.19223" lon="5.97349">
        <ele>2068</ele>
        <time>2016-09-11T12:16:28Z</time>
      </trkpt>
      <trkpt lat="45.19215" lon="5.97326">
        <ele>2065</ele>
        <time>2016-09-11T12:16:44Z</time>
      </trkpt>
      <trkpt lat="45.19206" lon="5.97301">
        <ele>2063</ele>
        <time>2016-09-11T12:17:00Z</time>
      </trkpt>
      <trkpt lat="45.19196" lon="5.97279">
        <ele>2062</ele>
        <time>2016-09-11T12:17:15Z</time>
      </trkpt>
      <trkpt lat="45.19179" lon="5.97266">
        <ele>2058</ele>
        <time>2016-09-11T12:17:29Z</time>
      </trkpt>
      <trkpt lat="45.19164" lon="5.97239">
        <ele>2047</ele>
        <time>2016-09-11T12:17:50Z</time>
      </trkpt>
      <trkpt lat="45.19157" lon="5.97214">
        <ele>2044</ele>
        <time>2016-09-11T12:18:07Z</time>
      </trkpt>
      <trkpt lat="45.19151" lon="5.97189">
        <ele>2043</ele>
        <time>2016-09-11T12:18:24Z</time>
      </trkpt>
      <trkpt lat="45.19146" lon="5.97163">
        <ele>2036</ele>
        <time>2016-09-11T12:18:39Z</time>
      </trkpt>
      <trkpt lat="45.19148" lon="5.97136">
        <ele>2034</ele>
        <time>2016-09-11T12:19:01Z</time>
      </trkpt>
      <trkpt lat="45.19144" lon="5.97111">
        <ele>2032</ele>
        <time>2016-09-11T12:19:21Z</time>
      </trkpt>
      <trkpt lat="45.19137" lon="5.97087">
        <ele>2031</ele>
        <time>2016-09-11T12:19:40Z</time>
      </trkpt>
      <trkpt lat="45.19141" lon="5.9706">
        <ele>2019</ele>
        <time>2016-09-11T12:20:13Z</time>
      </trkpt>
      <trkpt lat="45.19154" lon="5.97041">
        <ele>2016</ele>
        <time>2016-09-11T12:20:40Z</time>
      </trkpt>
      <trkpt lat="45.1917" lon="5.97026">
        <ele>2018</ele>
        <time>2016-09-11T12:20:54Z</time>
      </trkpt>
      <trkpt lat="45.19188" lon="5.97024">
        <ele>2018</ele>
        <time>2016-09-11T12:21:09Z</time>
      </trkpt>
      <trkpt lat="45.19207" lon="5.97025">
        <ele>2020</ele>
        <time>2016-09-11T12:21:23Z</time>
      </trkpt>
      <trkpt lat="45.19196" lon="5.97003">
        <ele>2017</ele>
        <time>2016-09-11T12:21:55Z</time>
      </trkpt>
      <trkpt lat="45.1918" lon="5.96992">
        <ele>2005</ele>
        <time>2016-09-11T12:22:09Z</time>
      </trkpt>
      <trkpt lat="45.19163" lon="5.96979">
        <ele>1995</ele>
        <time>2016-09-11T12:22:24Z</time>
      </trkpt>
      <trkpt lat="45.19145" lon="5.96977">
        <ele>1992</ele>
        <time>2016-09-11T12:22:38Z</time>
      </trkpt>
      <trkpt lat="45.19128" lon="5.96969">
        <ele>1988</ele>
        <time>2016-09-11T12:22:53Z</time>
      </trkpt>
      <trkpt lat="45.19113" lon="5.96984">
        <ele>1990</ele>
        <time>2016-09-11T12:23:08Z</time>
      </trkpt>
      <trkpt lat="45.19108" lon="5.96958">
        <ele>1983</ele>
        <time>2016-09-11T12:23:44Z</time>
      </trkpt>
      <trkpt lat="45.19119" lon="5.96937">
        <ele>1980</ele>
        <time>2016-09-11T12:23:58Z</time>
      </trkpt>
      <trkpt lat="45.19102" lon="5.96949">
        <ele>1980</ele>
        <time>2016-09-11T12:24:16Z</time>
      </trkpt>
      <trkpt lat="45.1911" lon="5.96925">
        <ele>1975</ele>
        <time>2016-09-11T12:24:37Z</time>
      </trkpt>
      <trkpt lat="45.19093" lon="5.96931">
        <ele>1969</ele>
        <time>2016-09-11T12:25:11Z</time>
      </trkpt>
      <trkpt lat="45.19101" lon="5.96908">
        <ele>1951</ele>
        <time>2016-09-11T12:25:36Z</time>
      </trkpt>
      <trkpt lat="45.19116" lon="5.96892">
        <ele>1950</ele>
        <time>2016-09-11T12:25:52Z</time>
      </trkpt>
      <trkpt lat="45.19132" lon="5.96878">
        <ele>1949</ele>
        <time>2016-09-11T12:26:06Z</time>
      </trkpt>
      <trkpt lat="45.19149" lon="5.9687">
        <ele>1950</ele>
        <time>2016-09-11T12:26:20Z</time>
      </trkpt>
      <trkpt lat="45.19165" lon="5.96858">
        <ele>1947</ele>
        <time>2016-09-11T12:26:34Z</time>
      </trkpt>
      <trkpt lat="45.19184" lon="5.96851">
        <ele>1959</ele>
        <time>2016-09-11T12:26:48Z</time>
      </trkpt>
      <trkpt lat="45.19202" lon="5.96844">
        <ele>1962</ele>
        <time>2016-09-11T12:27:04Z</time>
      </trkpt>
      <trkpt lat="45.1922" lon="5.96834">
        <ele>1964</ele>
        <time>2016-09-11T12:27:31Z</time>
      </trkpt>
      <trkpt lat="45.19238" lon="5.96843">
        <ele>1966</ele>
        <time>2016-09-11T12:28:13Z</time>
      </trkpt>
      <trkpt lat="45.19131" lon="5.96614">
        <ele>1808</ele>
        <time>2016-09-11T12:30:16Z</time>
      </trkpt>
      <trkpt lat="45.19134" lon="5.96642">
        <ele>1817</ele>
        <time>2016-09-11T12:30:17Z</time>
      </trkpt>
      <trkpt lat="45.19156" lon="5.96693">
        <ele>1858</ele>
        <time>2016-09-11T12:30:18Z</time>
      </trkpt>
      <trkpt lat="45.1917" lon="5.96713">
        <ele>1886</ele>
        <time>2016-09-11T12:30:25Z</time>
      </trkpt>
      <trkpt lat="45.19182" lon="5.96732">
        <ele>1893</ele>
        <time>2016-09-11T12:30:39Z</time>
      </trkpt>
      <trkpt lat="45.19195" lon="5.96754">
        <ele>1922</ele>
        <time>2016-09-11T12:30:43Z</time>
      </trkpt>
      <trkpt lat="45.19202" lon="5.96779">
        <ele>1930</ele>
        <time>2016-09-11T12:30:53Z</time>
      </trkpt>
      <trkpt lat="45.19212" lon="5.96801">
        <ele>1936</ele>
        <time>2016-09-11T12:31:15Z</time>
      </trkpt>
      <trkpt lat="45.19231" lon="5.96818">
        <ele>1945</ele>
        <time>2016-09-11T12:31:44Z</time>
      </trkpt>
      <trkpt lat="45.19229" lon="5.96792">
        <ele>1937</ele>
        <time>2016-09-11T12:32:28Z</time>
      </trkpt>
      <trkpt lat="45.19233" lon="5.96766">
        <ele>1933</ele>
        <time>2016-09-11T12:32:51Z</time>
      </trkpt>
      <trkpt lat="45.19239" lon="5.9674">
        <ele>1913</ele>
        <time>2016-09-11T12:33:11Z</time>
      </trkpt>
      <trkpt lat="45.19262" lon="5.9674">
        <ele>1923</ele>
        <time>2016-09-11T12:33:33Z</time>
      </trkpt>
      <trkpt lat="45.19278" lon="5.96754">
        <ele>1944</ele>
        <time>2016-09-11T12:33:48Z</time>
      </trkpt>
      <trkpt lat="45.19292" lon="5.96771">
        <ele>1948</ele>
        <time>2016-09-11T12:34:09Z</time>
      </trkpt>
      <trkpt lat="45.19311" lon="5.96772">
        <ele>1948</ele>
        <time>2016-09-11T12:34:21Z</time>
      </trkpt>
      <trkpt lat="45.19331" lon="5.96762">
        <ele>1944</ele>
        <time>2016-09-11T12:34:37Z</time>
      </trkpt>
      <trkpt lat="45.19349" lon="5.96757">
        <ele>1948</ele>
        <time>2016-09-11T12:34:53Z</time>
      </trkpt>
      <trkpt lat="45.19367" lon="5.96761">
        <ele>1952</ele>
        <time>2016-09-11T12:35:15Z</time>
      </trkpt>
      <trkpt lat="45.19379" lon="5.96739">
        <ele>1927</ele>
        <time>2016-09-11T12:35:42Z</time>
      </trkpt>
      <trkpt lat="45.19394" lon="5.96713">
        <ele>1920</ele>
        <time>2016-09-11T12:36:02Z</time>
      </trkpt>
      <trkpt lat="45.19411" lon="5.96726">
        <ele>1928</ele>
        <time>2016-09-11T12:36:21Z</time>
      </trkpt>
      <trkpt lat="45.19428" lon="5.96736">
        <ele>1935</ele>
        <time>2016-09-11T12:36:33Z</time>
      </trkpt>
      <trkpt lat="45.19442" lon="5.96718">
        <ele>1926</ele>
        <time>2016-09-11T12:36:49Z</time>
      </trkpt>
      <trkpt lat="45.19455" lon="5.96697">
        <ele>1919</ele>
        <time>2016-09-11T12:37:07Z</time>
      </trkpt>
      <trkpt lat="45.19474" lon="5.96696">
        <ele>1920</ele>
        <time>2016-09-11T12:37:22Z</time>
      </trkpt>
      <trkpt lat="45.19492" lon="5.96692">
        <ele>1918</ele>
        <time>2016-09-11T12:37:35Z</time>
      </trkpt>
      <trkpt lat="45.19517" lon="5.96686">
        <ele>1926</ele>
        <time>2016-09-11T12:37:53Z</time>
      </trkpt>
      <trkpt lat="45.19534" lon="5.96678">
        <ele>1930</ele>
        <time>2016-09-11T12:38:05Z</time>
      </trkpt>
      <trkpt lat="45.19549" lon="5.96661">
        <ele>1908</ele>
        <time>2016-09-11T12:38:18Z</time>
      </trkpt>
      <trkpt lat="45.19559" lon="5.9664">
        <ele>1907</ele>
        <time>2016-09-11T12:38:33Z</time>
      </trkpt>
      <trkpt lat="45.19573" lon="5.96622">
        <ele>1904</ele>
        <time>2016-09-11T12:38:50Z</time>
      </trkpt>
      <trkpt lat="45.19583" lon="5.966">
        <ele>1917</ele>
        <time>2016-09-11T12:39:05Z</time>
      </trkpt>
      <trkpt lat="45.19602" lon="5.96591">
        <ele>1920</ele>
        <time>2016-09-11T12:39:30Z</time>
      </trkpt>
      <trkpt lat="45.19614" lon="5.96571">
        <ele>1896</ele>
        <time>2016-09-11T12:39:52Z</time>
      </trkpt>
      <trkpt lat="45.19625" lon="5.96548">
        <ele>1892</ele>
        <time>2016-09-11T12:40:33Z</time>
      </trkpt>
      <trkpt lat="45.19637" lon="5.96526">
        <ele>1888</ele>
        <time>2016-09-11T12:40:51Z</time>
      </trkpt>
      <trkpt lat="45.19655" lon="5.96516">
        <ele>1887</ele>
        <time>2016-09-11T12:41:17Z</time>
      </trkpt>
      <trkpt lat="45.19672" lon="5.96525">
        <ele>1906</ele>
        <time>2016-09-11T12:41:35Z</time>
      </trkpt>
      <trkpt lat="45.19689" lon="5.96538">
        <ele>1915</ele>
        <time>2016-09-11T12:41:48Z</time>
      </trkpt>
      <trkpt lat="45.19708" lon="5.9654">
        <ele>1918</ele>
        <time>2016-09-11T12:42:07Z</time>
      </trkpt>
      <trkpt lat="45.19726" lon="5.96533">
        <ele>1915</ele>
        <time>2016-09-11T12:42:19Z</time>
      </trkpt>
      <trkpt lat="45.19743" lon="5.96544">
        <ele>1924</ele>
        <time>2016-09-11T12:42:31Z</time>
      </trkpt>
      <trkpt lat="45.19761" lon="5.96552">
        <ele>1935</ele>
        <time>2016-09-11T12:42:48Z</time>
      </trkpt>
      <trkpt lat="45.19777" lon="5.96563">
        <ele>1939</ele>
        <time>2016-09-11T12:43:05Z</time>
      </trkpt>
      <trkpt lat="45.19794" lon="5.9657">
        <ele>1937</ele>
        <time>2016-09-11T12:43:25Z</time>
      </trkpt>
      <trkpt lat="45.19814" lon="5.96578">
        <ele>1941</ele>
        <time>2016-09-11T12:43:46Z</time>
      </trkpt>
      <trkpt lat="45.19832" lon="5.96574">
        <ele>1946</ele>
        <time>2016-09-11T12:44:19Z</time>
      </trkpt>
      <trkpt lat="45.1984" lon="5.9655">
        <ele>1931</ele>
        <time>2016-09-11T12:44:45Z</time>
      </trkpt>
      <trkpt lat="45.19838" lon="5.96523">
        <ele>1914</ele>
        <time>2016-09-11T12:45:04Z</time>
      </trkpt>
      <trkpt lat="45.19838" lon="5.96496">
        <ele>1884</ele>
        <time>2016-09-11T12:45:21Z</time>
      </trkpt>
      <trkpt lat="45.19836" lon="5.96471">
        <ele>1871</ele>
        <time>2016-09-11T12:45:38Z</time>
      </trkpt>
      <trkpt lat="45.19854" lon="5.96474">
        <ele>1872</ele>
        <time>2016-09-11T12:45:56Z</time>
      </trkpt>
      <trkpt lat="45.19873" lon="5.96471">
        <ele>1872</ele>
        <time>2016-09-11T12:46:13Z</time>
      </trkpt>
      <trkpt lat="45.19889" lon="5.96458">
        <ele>1869</ele>
        <time>2016-09-11T12:46:31Z</time>
      </trkpt>
      <trkpt lat="45.19905" lon="5.96447">
        <ele>1865</ele>
        <time>2016-09-11T12:46:50Z</time>
      </trkpt>
      <trkpt lat="45.19924" lon="5.96443">
        <ele>1868</ele>
        <time>2016-09-11T12:47:10Z</time>
      </trkpt>
      <trkpt lat="45.19943" lon="5.96443">
        <ele>1871</ele>
        <time>2016-09-11T12:47:28Z</time>
      </trkpt>
      <trkpt lat="45.19962" lon="5.96445">
        <ele>1873</ele>
        <time>2016-09-11T12:47:38Z</time>
      </trkpt>
      <trkpt lat="45.1998" lon="5.96444">
        <ele>1872</ele>
        <time>2016-09-11T12:47:53Z</time>
      </trkpt>
      <trkpt lat="45.19998" lon="5.96438">
        <ele>1869</ele>
        <time>2016-09-11T12:48:08Z</time>
      </trkpt>
      <trkpt lat="45.20013" lon="5.96421">
        <ele>1872</ele>
        <time>2016-09-11T12:48:22Z</time>
      </trkpt>
      <trkpt lat="45.20024" lon="5.96401">
        <ele>1857</ele>
        <time>2016-09-11T12:48:36Z</time>
      </trkpt>
      <trkpt lat="45.20035" lon="5.96379">
        <ele>1855</ele>
        <time>2016-09-11T12:48:50Z</time>
      </trkpt>
      <trkpt lat="45.20044" lon="5.96356">
        <ele>1851</ele>
        <time>2016-09-11T12:49:04Z</time>
      </trkpt>
      <trkpt lat="45.20055" lon="5.96335">
        <ele>1850</ele>
        <time>2016-09-11T12:49:17Z</time>
      </trkpt>
      <trkpt lat="45.20069" lon="5.96315">
        <ele>1831</ele>
        <time>2016-09-11T12:49:32Z</time>
      </trkpt>
      <trkpt lat="45.20086" lon="5.96307">
        <ele>1833</ele>
        <time>2016-09-11T12:49:47Z</time>
      </trkpt>
      <trkpt lat="45.20095" lon="5.96285">
        <ele>1826</ele>
        <time>2016-09-11T12:50:06Z</time>
      </trkpt>
      <trkpt lat="45.20114" lon="5.96283">
        <ele>1825</ele>
        <time>2016-09-11T12:50:22Z</time>
      </trkpt>
      <trkpt lat="45.20134" lon="5.96283">
        <ele>1824</ele>
        <time>2016-09-11T12:50:36Z</time>
      </trkpt>
      <trkpt lat="45.20152" lon="5.96291">
        <ele>1825</ele>
        <time>2016-09-11T12:50:51Z</time>
      </trkpt>
      <trkpt lat="45.20168" lon="5.96306">
        <ele>1822</ele>
        <time>2016-09-11T12:51:07Z</time>
      </trkpt>
      <trkpt lat="45.20186" lon="5.96308">
        <ele>1821</ele>
        <time>2016-09-11T12:51:26Z</time>
      </trkpt>
      <trkpt lat="45.20205" lon="5.96306">
        <ele>1818</ele>
        <time>2016-09-11T12:51:43Z</time>
      </trkpt>
      <trkpt lat="45.20223" lon="5.96298">
        <ele>1814</ele>
        <time>2016-09-11T12:51:57Z</time>
      </trkpt>
      <trkpt lat="45.20241" lon="5.96295">
        <ele>1812</ele>
        <time>2016-09-11T12:52:14Z</time>
      </trkpt>
      <trkpt lat="45.2026" lon="5.96296">
        <ele>1798</ele>
        <time>2016-09-11T12:52:30Z</time>
      </trkpt>
      <trkpt lat="45.2028" lon="5.96298">
        <ele>1795</ele>
        <time>2016-09-11T12:52:47Z</time>
      </trkpt>
      <trkpt lat="45.20296" lon="5.9631">
        <ele>1794</ele>
        <time>2016-09-11T12:53:11Z</time>
      </trkpt>
      <trkpt lat="45.20311" lon="5.96324">
        <ele>1793</ele>
        <time>2016-09-11T12:53:28Z</time>
      </trkpt>
      <trkpt lat="45.20329" lon="5.96334">
        <ele>1794</ele>
        <time>2016-09-11T12:53:43Z</time>
      </trkpt>
      <trkpt lat="45.20348" lon="5.96342">
        <ele>1780</ele>
        <time>2016-09-11T12:53:57Z</time>
      </trkpt>
      <trkpt lat="45.2034" lon="5.96319">
        <ele>1776</ele>
        <time>2016-09-11T12:54:51Z</time>
      </trkpt>
      <trkpt lat="45.20358" lon="5.96314">
        <ele>1768</ele>
        <time>2016-09-11T12:55:15Z</time>
      </trkpt>
      <trkpt lat="45.20376" lon="5.96321">
        <ele>1763</ele>
        <time>2016-09-11T12:55:31Z</time>
      </trkpt>
      <trkpt lat="45.20395" lon="5.96325">
        <ele>1759</ele>
        <time>2016-09-11T12:55:46Z</time>
      </trkpt>
      <trkpt lat="45.20413" lon="5.96329">
        <ele>1755</ele>
        <time>2016-09-11T12:56:00Z</time>
      </trkpt>
      <trkpt lat="45.20403" lon="5.96307">
        <ele>1756</ele>
        <time>2016-09-11T12:56:38Z</time>
      </trkpt>
      <trkpt lat="45.20388" lon="5.96291">
        <ele>1757</ele>
        <time>2016-09-11T12:56:55Z</time>
      </trkpt>
      <trkpt lat="45.20372" lon="5.96276">
        <ele>1758</ele>
        <time>2016-09-11T12:57:14Z</time>
      </trkpt>
      <trkpt lat="45.20356" lon="5.96262">
        <ele>1760</ele>
        <time>2016-09-11T12:57:28Z</time>
      </trkpt>
      <trkpt lat="45.20343" lon="5.96243">
        <ele>1750</ele>
        <time>2016-09-11T12:57:40Z</time>
      </trkpt>
      <trkpt lat="45.20331" lon="5.96223">
        <ele>1755</ele>
        <time>2016-09-11T12:57:57Z</time>
      </trkpt>
      <trkpt lat="45.2035" lon="5.96224">
        <ele>1738</ele>
        <time>2016-09-11T12:58:27Z</time>
      </trkpt>
      <trkpt lat="45.20367" lon="5.96231">
        <ele>1735</ele>
        <time>2016-09-11T12:58:39Z</time>
      </trkpt>
      <trkpt lat="45.20385" lon="5.96235">
        <ele>1731</ele>
        <time>2016-09-11T12:58:51Z</time>
      </trkpt>
      <trkpt lat="45.20404" lon="5.96242">
        <ele>1729</ele>
        <time>2016-09-11T12:59:04Z</time>
      </trkpt>
      <trkpt lat="45.20424" lon="5.96249">
        <ele>1719</ele>
        <time>2016-09-11T12:59:23Z</time>
      </trkpt>
      <trkpt lat="45.20443" lon="5.96256">
        <ele>1719</ele>
        <time>2016-09-11T12:59:37Z</time>
      </trkpt>
      <trkpt lat="45.20462" lon="5.96256">
        <ele>1712</ele>
        <time>2016-09-11T12:59:54Z</time>
      </trkpt>
      <trkpt lat="45.20479" lon="5.9627">
        <ele>1707</ele>
        <time>2016-09-11T13:00:14Z</time>
      </trkpt>
      <trkpt lat="45.20488" lon="5.96293">
        <ele>1709</ele>
        <time>2016-09-11T13:00:31Z</time>
      </trkpt>
      <trkpt lat="45.20492" lon="5.96319">
        <ele>1707</ele>
        <time>2016-09-11T13:00:51Z</time>
      </trkpt>
      <trkpt lat="45.20497" lon="5.96346">
        <ele>1708</ele>
        <time>2016-09-11T13:01:08Z</time>
      </trkpt>
      <trkpt lat="45.20508" lon="5.96367">
        <ele>1678</ele>
        <time>2016-09-11T13:02:02Z</time>
      </trkpt>
      <trkpt lat="45.20526" lon="5.96383">
        <ele>1674</ele>
        <time>2016-09-11T13:02:54Z</time>
      </trkpt>
      <trkpt lat="45.20525" lon="5.96409">
        <ele>1677</ele>
        <time>2016-09-11T13:03:07Z</time>
      </trkpt>
      <trkpt lat="45.2053" lon="5.9644">
        <ele>1676</ele>
        <time>2016-09-11T13:03:24Z</time>
      </trkpt>
      <trkpt lat="45.20539" lon="5.96463">
        <ele>1673</ele>
        <time>2016-09-11T13:03:39Z</time>
      </trkpt>
      <trkpt lat="45.20551" lon="5.96482">
        <ele>1670</ele>
        <time>2016-09-11T13:03:57Z</time>
      </trkpt>
      <trkpt lat="45.20568" lon="5.96494">
        <ele>1664</ele>
        <time>2016-09-11T13:04:08Z</time>
      </trkpt>
      <trkpt lat="45.2058" lon="5.96514">
        <ele>1665</ele>
        <time>2016-09-11T13:04:26Z</time>
      </trkpt>
      <trkpt lat="45.20594" lon="5.96531">
        <ele>1654</ele>
        <time>2016-09-11T13:04:48Z</time>
      </trkpt>
      <trkpt lat="45.20611" lon="5.96539">
        <ele>1653</ele>
        <time>2016-09-11T13:04:58Z</time>
      </trkpt>
      <trkpt lat="45.20628" lon="5.96547">
        <ele>1651</ele>
        <time>2016-09-11T13:05:08Z</time>
      </trkpt>
      <trkpt lat="45.20647" lon="5.96546">
        <ele>1649</ele>
        <time>2016-09-11T13:05:20Z</time>
      </trkpt>
      <trkpt lat="45.20665" lon="5.9655">
        <ele>1648</ele>
        <time>2016-09-11T13:05:32Z</time>
      </trkpt>
      <trkpt lat="45.20654" lon="5.96529">
        <ele>1644</ele>
        <time>2016-09-11T13:06:24Z</time>
      </trkpt>
      <trkpt lat="45.20666" lon="5.96509">
        <ele>1631</ele>
        <time>2016-09-11T13:07:31Z</time>
      </trkpt>
      <trkpt lat="45.20659" lon="5.96484">
        <ele>1626</ele>
        <time>2016-09-11T13:08:09Z</time>
      </trkpt>
      <trkpt lat="45.20649" lon="5.96462">
        <ele>1626</ele>
        <time>2016-09-11T13:08:26Z</time>
      </trkpt>
      <trkpt lat="45.20663" lon="5.96444">
        <ele>1620</ele>
        <time>2016-09-11T13:08:46Z</time>
      </trkpt>
      <trkpt lat="45.20679" lon="5.9646">
        <ele>1599</ele>
        <time>2016-09-11T13:09:11Z</time>
      </trkpt>
      <trkpt lat="45.20676" lon="5.96433">
        <ele>1597</ele>
        <time>2016-09-11T13:09:45Z</time>
      </trkpt>
      <trkpt lat="45.20689" lon="5.96414">
        <ele>1582</ele>
        <time>2016-09-11T13:10:11Z</time>
      </trkpt>
      <trkpt lat="45.20706" lon="5.96422">
        <ele>1589</ele>
        <time>2016-09-11T13:10:45Z</time>
      </trkpt>
      <trkpt lat="45.20725" lon="5.96425">
        <ele>1582</ele>
        <time>2016-09-11T13:11:12Z</time>
      </trkpt>
      <trkpt lat="45.20734" lon="5.96448">
        <ele>1585</ele>
        <time>2016-09-11T13:11:35Z</time>
      </trkpt>
      <trkpt lat="45.20747" lon="5.96467">
        <ele>1587</ele>
        <time>2016-09-11T13:11:50Z</time>
      </trkpt>
      <trkpt lat="45.20736" lon="5.96446">
        <ele>1584</ele>
        <time>2016-09-11T13:12:23Z</time>
      </trkpt>
      <trkpt lat="45.20753" lon="5.96459">
        <ele>1563</ele>
        <time>2016-09-11T13:12:59Z</time>
      </trkpt>
      <trkpt lat="45.2077" lon="5.96454">
        <ele>1560</ele>
        <time>2016-09-11T13:13:27Z</time>
      </trkpt>
      <trkpt lat="45.20776" lon="5.9643">
        <ele>1556</ele>
        <time>2016-09-11T13:14:22Z</time>
      </trkpt>
      <trkpt lat="45.2078" lon="5.96405">
        <ele>1536</ele>
        <time>2016-09-11T13:14:45Z</time>
      </trkpt>
      <trkpt lat="45.20795" lon="5.96389">
        <ele>1529</ele>
        <time>2016-09-11T13:15:05Z</time>
      </trkpt>
      <trkpt lat="45.20814" lon="5.96405">
        <ele>1526</ele>
        <time>2016-09-11T13:15:25Z</time>
      </trkpt>
      <trkpt lat="45.20833" lon="5.96408">
        <ele>1523</ele>
        <time>2016-09-11T13:15:47Z</time>
      </trkpt>
      <trkpt lat="45.20849" lon="5.96396">
        <ele>1512</ele>
        <time>2016-09-11T13:16:33Z</time>
      </trkpt>
      <trkpt lat="45.20865" lon="5.96386">
        <ele>1509</ele>
        <time>2016-09-11T13:16:54Z</time>
      </trkpt>
      <trkpt lat="45.20857" lon="5.96361">
        <ele>1505</ele>
        <time>2016-09-11T13:17:24Z</time>
      </trkpt>
      <trkpt lat="45.20843" lon="5.96344">
        <ele>1501</ele>
        <time>2016-09-11T13:17:40Z</time>
      </trkpt>
      <trkpt lat="45.20859" lon="5.9633">
        <ele>1486</ele>
        <time>2016-09-11T13:17:59Z</time>
      </trkpt>
      <trkpt lat="45.20873" lon="5.96314">
        <ele>1483</ele>
        <time>2016-09-11T13:18:16Z</time>
      </trkpt>
      <trkpt lat="45.20867" lon="5.9629">
        <ele>1480</ele>
        <time>2016-09-11T13:18:50Z</time>
      </trkpt>
      <trkpt lat="45.20883" lon="5.96277">
        <ele>1477</ele>
        <time>2016-09-11T13:19:30Z</time>
      </trkpt>
      <trkpt lat="45.20871" lon="5.96255">
        <ele>1475</ele>
        <time>2016-09-11T13:19:49Z</time>
      </trkpt>
      <trkpt lat="45.20882" lon="5.96233">
        <ele>1457</ele>
        <time>2016-09-11T13:20:28Z</time>
      </trkpt>
      <trkpt lat="45.20872" lon="5.96209">
        <ele>1456</ele>
        <time>2016-09-11T13:20:44Z</time>
      </trkpt>
      <trkpt lat="45.20886" lon="5.96189">
        <ele>1452</ele>
        <time>2016-09-11T13:21:22Z</time>
      </trkpt>
      <trkpt lat="45.20887" lon="5.96162">
        <ele>1436</ele>
        <time>2016-09-11T13:21:44Z</time>
      </trkpt>
      <trkpt lat="45.20875" lon="5.96143">
        <ele>1435</ele>
        <time>2016-09-11T13:22:03Z</time>
      </trkpt>
      <trkpt lat="45.20891" lon="5.96131">
        <ele>1432</ele>
        <time>2016-09-11T13:22:35Z</time>
      </trkpt>
      <trkpt lat="45.2091" lon="5.96125">
        <ele>1430</ele>
        <time>2016-09-11T13:22:47Z</time>
      </trkpt>
      <trkpt lat="45.20929" lon="5.96125">
        <ele>1422</ele>
        <time>2016-09-11T13:22:59Z</time>
      </trkpt>
      <trkpt lat="45.20947" lon="5.96134">
        <ele>1422</ele>
        <time>2016-09-11T13:23:17Z</time>
      </trkpt>
      <trkpt lat="45.20963" lon="5.96148">
        <ele>1422</ele>
        <time>2016-09-11T13:23:35Z</time>
      </trkpt>
      <trkpt lat="45.2098" lon="5.96158">
        <ele>1422</ele>
        <time>2016-09-11T13:24:00Z</time>
      </trkpt>
      <trkpt lat="45.20999" lon="5.96161">
        <ele>1422</ele>
        <time>2016-09-11T13:24:11Z</time>
      </trkpt>
      <trkpt lat="45.21019" lon="5.96156">
        <ele>1420</ele>
        <time>2016-09-11T13:24:27Z</time>
      </trkpt>
      <trkpt lat="45.21036" lon="5.96145">
        <ele>1420</ele>
        <time>2016-09-11T13:24:44Z</time>
      </trkpt>
      <trkpt lat="45.21047" lon="5.96124">
        <ele>1418</ele>
        <time>2016-09-11T13:25:11Z</time>
      </trkpt>
      <trkpt lat="45.21064" lon="5.96112">
        <ele>1416</ele>
        <time>2016-09-11T13:25:38Z</time>
      </trkpt>
      <trkpt lat="45.21082" lon="5.96105">
        <ele>1413</ele>
        <time>2016-09-11T13:25:56Z</time>
      </trkpt>
      <trkpt lat="45.21099" lon="5.96097">
        <ele>1419</ele>
        <time>2016-09-11T13:26:11Z</time>
      </trkpt>
      <trkpt lat="45.21114" lon="5.96081">
        <ele>1403</ele>
        <time>2016-09-11T13:26:25Z</time>
      </trkpt>
      <trkpt lat="45.21129" lon="5.96066">
        <ele>1402</ele>
        <time>2016-09-11T13:26:46Z</time>
      </trkpt>
      <trkpt lat="45.21147" lon="5.96057">
        <ele>1403</ele>
        <time>2016-09-11T13:27:12Z</time>
      </trkpt>
      <trkpt lat="45.2116" lon="5.9604">
        <ele>1400</ele>
        <time>2016-09-11T13:27:31Z</time>
      </trkpt>
      <trkpt lat="45.21178" lon="5.96028">
        <ele>1409</ele>
        <time>2016-09-11T13:27:56Z</time>
      </trkpt>
      <trkpt lat="45.21196" lon="5.96022">
        <ele>1411</ele>
        <time>2016-09-11T13:28:10Z</time>
      </trkpt>
      <trkpt lat="45.21214" lon="5.96016">
        <ele>1414</ele>
        <time>2016-09-11T13:28:24Z</time>
      </trkpt>
      <trkpt lat="45.21232" lon="5.96007">
        <ele>1415</ele>
        <time>2016-09-11T13:28:36Z</time>
      </trkpt>
      <trkpt lat="45.2125" lon="5.96001">
        <ele>1414</ele>
        <time>2016-09-11T13:28:48Z</time>
      </trkpt>
      <trkpt lat="45.21264" lon="5.95984">
        <ele>1409</ele>
        <time>2016-09-11T13:29:03Z</time>
      </trkpt>
      <trkpt lat="45.21277" lon="5.95965">
        <ele>1406</ele>
        <time>2016-09-11T13:29:17Z</time>
      </trkpt>
      <trkpt lat="45.21293" lon="5.95953">
        <ele>1405</ele>
        <time>2016-09-11T13:29:36Z</time>
      </trkpt>
      <trkpt lat="45.21312" lon="5.95943">
        <ele>1405</ele>
        <time>2016-09-11T13:29:59Z</time>
      </trkpt>
      <trkpt lat="45.2133" lon="5.9594">
        <ele>1404</ele>
        <time>2016-09-11T13:30:57Z</time>
      </trkpt>
      <trkpt lat="45.21345" lon="5.95925">
        <ele>1403</ele>
        <time>2016-09-11T13:31:52Z</time>
      </trkpt>
      <trkpt lat="45.21363" lon="5.95931">
        <ele>1404</ele>
        <time>2016-09-11T13:32:23Z</time>
      </trkpt>
      <trkpt lat="45.21382" lon="5.95932">
        <ele>1403</ele>
        <time>2016-09-11T13:33:10Z</time>
      </trkpt>
      <trkpt lat="45.214" lon="5.95932">
        <ele>1401</ele>
        <time>2016-09-11T13:33:34Z</time>
      </trkpt>
      <trkpt lat="45.21418" lon="5.95933">
        <ele>1396</ele>
        <time>2016-09-11T13:33:51Z</time>
      </trkpt>
      <trkpt lat="45.21436" lon="5.95931">
        <ele>1396</ele>
        <time>2016-09-11T13:34:17Z</time>
      </trkpt>
      <trkpt lat="45.21454" lon="5.95921">
        <ele>1396</ele>
        <time>2016-09-11T13:34:31Z</time>
      </trkpt>
      <trkpt lat="45.21472" lon="5.95917">
        <ele>1394</ele>
        <time>2016-09-11T13:34:44Z</time>
      </trkpt>
      <trkpt lat="45.2149" lon="5.9591">
        <ele>1383</ele>
        <time>2016-09-11T13:34:59Z</time>
      </trkpt>
      <trkpt lat="45.21507" lon="5.95902">
        <ele>1382</ele>
        <time>2016-09-11T13:38:20Z</time>
      </trkpt>
      <trkpt lat="45.21525" lon="5.95894">
        <ele>1379</ele>
        <time>2016-09-11T13:42:07Z</time>
      </trkpt>
      <trkpt lat="45.21539" lon="5.95877">
        <ele>1377</ele>
        <time>2016-09-11T13:46:14Z</time>
      </trkpt>
      <trkpt lat="45.21557" lon="5.95866">
        <ele>1376</ele>
        <time>2016-09-11T13:46:29Z</time>
      </trkpt>
      <trkpt lat="45.21575" lon="5.95863">
        <ele>1375</ele>
        <time>2016-09-11T13:46:44Z</time>
      </trkpt>
      <trkpt lat="45.21593" lon="5.95859">
        <ele>1376</ele>
        <time>2016-09-11T13:46:58Z</time>
      </trkpt>
      <trkpt lat="45.21611" lon="5.95851">
        <ele>1376</ele>
        <time>2016-09-11T13:47:23Z</time>
      </trkpt>
      <trkpt lat="45.2163" lon="5.95851">
        <ele>1376</ele>
        <time>2016-09-11T13:47:35Z</time>
      </trkpt>
      <trkpt lat="45.21649" lon="5.95852">
        <ele>1374</ele>
        <time>2016-09-11T13:47:49Z</time>
      </trkpt>
      <trkpt lat="45.21667" lon="5.95856">
        <ele>1376</ele>
        <time>2016-09-11T13:48:01Z</time>
      </trkpt>
      <trkpt lat="45.21683" lon="5.95845">
        <ele>1375</ele>
        <time>2016-09-11T13:50:08Z</time>
      </trkpt>
      <trkpt lat="45.21691" lon="5.95821">
        <ele>1363</ele>
        <time>2016-09-11T13:50:23Z</time>
      </trkpt>
      <trkpt lat="45.21696" lon="5.95796">
        <ele>1360</ele>
        <time>2016-09-11T13:50:47Z</time>
      </trkpt>
      <trkpt lat="45.21708" lon="5.95777">
        <ele>1358</ele>
        <time>2016-09-11T13:51:00Z</time>
      </trkpt>
      <trkpt lat="45.21724" lon="5.95765">
        <ele>1357</ele>
        <time>2016-09-11T13:51:13Z</time>
      </trkpt>
      <trkpt lat="45.21739" lon="5.9575">
        <ele>1349</ele>
        <time>2016-09-11T13:51:26Z</time>
      </trkpt>
      <trkpt lat="45.21748" lon="5.95727">
        <ele>1346</ele>
        <time>2016-09-11T13:51:40Z</time>
      </trkpt>
      <trkpt lat="45.21764" lon="5.95714">
        <ele>1354</ele>
        <time>2016-09-11T13:51:53Z</time>
      </trkpt>
      <trkpt lat="45.21779" lon="5.95697">
        <ele>1353</ele>
        <time>2016-09-11T13:52:07Z</time>
      </trkpt>
      <trkpt lat="45.21795" lon="5.95685">
        <ele>1354</ele>
        <time>2016-09-11T13:52:24Z</time>
      </trkpt>
      <trkpt lat="45.21812" lon="5.95672">
        <ele>1355</ele>
        <time>2016-09-11T13:52:39Z</time>
      </trkpt>
      <trkpt lat="45.2183" lon="5.95666">
        <ele>1355</ele>
        <time>2016-09-11T13:52:53Z</time>
      </trkpt>
      <trkpt lat="45.21849" lon="5.95661">
        <ele>1355</ele>
        <time>2016-09-11T13:53:16Z</time>
      </trkpt>
      <trkpt lat="45.21867" lon="5.95653">
        <ele>1355</ele>
        <time>2016-09-11T13:53:31Z</time>
      </trkpt>
      <trkpt lat="45.21885" lon="5.95653">
        <ele>1356</ele>
        <time>2016-09-11T13:53:52Z</time>
      </trkpt>
      <trkpt lat="45.21901" lon="5.9564">
        <ele>1356</ele>
        <time>2016-09-11T13:54:07Z</time>
      </trkpt>
      <trkpt lat="45.21919" lon="5.9563">
        <ele>1361</ele>
        <time>2016-09-11T13:54:18Z</time>
      </trkpt>
      <trkpt lat="45.21934" lon="5.95615">
        <ele>1359</ele>
        <time>2016-09-11T13:54:31Z</time>
      </trkpt>
      <trkpt lat="45.21947" lon="5.95597">
        <ele>1358</ele>
        <time>2016-09-11T13:54:39Z</time>
      </trkpt>
      <trkpt lat="45.21961" lon="5.95581">
        <ele>1352</ele>
        <time>2016-09-11T13:54:49Z</time>
      </trkpt>
      <trkpt lat="45.21975" lon="5.95561">
        <ele>1353</ele>
        <time>2016-09-11T13:55:02Z</time>
      </trkpt>
      <trkpt lat="45.21983" lon="5.95536">
        <ele>1351</ele>
        <time>2016-09-11T13:55:16Z</time>
      </trkpt>
      <trkpt lat="45.21982" lon="5.95509">
        <ele>1350</ele>
        <time>2016-09-11T13:56:35Z</time>
      </trkpt>
      <trkpt lat="45.21988" lon="5.95485">
        <ele>1345</ele>
        <time>2016-09-11T13:56:55Z</time>
      </trkpt>
      <trkpt lat="45.22003" lon="5.95471">
        <ele>1336</ele>
        <time>2016-09-11T13:57:12Z</time>
      </trkpt>
      <trkpt lat="45.22021" lon="5.95465">
        <ele>1334</ele>
        <time>2016-09-11T13:57:36Z</time>
      </trkpt>
      <trkpt lat="45.22039" lon="5.95459">
        <ele>1331</ele>
        <time>2016-09-11T13:57:49Z</time>
      </trkpt>
      <trkpt lat="45.22058" lon="5.9546">
        <ele>1329</ele>
        <time>2016-09-11T13:58:02Z</time>
      </trkpt>
      <trkpt lat="45.22077" lon="5.95468">
        <ele>1328</ele>
        <time>2016-09-11T13:58:19Z</time>
      </trkpt>
      <trkpt lat="45.22094" lon="5.95478">
        <ele>1316</ele>
        <time>2016-09-11T13:58:32Z</time>
      </trkpt>
      <trkpt lat="45.2211" lon="5.95488">
        <ele>1314</ele>
        <time>2016-09-11T13:58:43Z</time>
      </trkpt>
      <trkpt lat="45.22127" lon="5.95501">
        <ele>1319</ele>
        <time>2016-09-11T13:58:55Z</time>
      </trkpt>
      <trkpt lat="45.22141" lon="5.95519">
        <ele>1316</ele>
        <time>2016-09-11T13:59:09Z</time>
      </trkpt>
      <trkpt lat="45.22158" lon="5.95533">
        <ele>1316</ele>
        <time>2016-09-11T13:59:20Z</time>
      </trkpt>
      <trkpt lat="45.22177" lon="5.9553">
        <ele>1304</ele>
        <time>2016-09-11T14:00:32Z</time>
      </trkpt>
      <trkpt lat="45.22192" lon="5.95516">
        <ele>1303</ele>
        <time>2016-09-11T14:00:49Z</time>
      </trkpt>
      <trkpt lat="45.22204" lon="5.95535">
        <ele>1304</ele>
        <time>2016-09-11T14:01:09Z</time>
      </trkpt>
      <trkpt lat="45.22209" lon="5.95563">
        <ele>1304</ele>
        <time>2016-09-11T14:01:28Z</time>
      </trkpt>
      <trkpt lat="45.2221" lon="5.9559">
        <ele>1309</ele>
        <time>2016-09-11T14:01:44Z</time>
      </trkpt>
      <trkpt lat="45.22216" lon="5.95615">
        <ele>1310</ele>
        <time>2016-09-11T14:01:54Z</time>
      </trkpt>
      <trkpt lat="45.22232" lon="5.9563">
        <ele>1310</ele>
        <time>2016-09-11T14:02:10Z</time>
      </trkpt>
      <trkpt lat="45.22249" lon="5.9564">
        <ele>1310</ele>
        <time>2016-09-11T14:02:22Z</time>
      </trkpt>
      <trkpt lat="45.22256" lon="5.95664">
        <ele>1310</ele>
        <time>2016-09-11T14:02:39Z</time>
      </trkpt>
      <trkpt lat="45.22268" lon="5.95685">
        <ele>1318</ele>
        <time>2016-09-11T14:02:53Z</time>
      </trkpt>
      <trkpt lat="45.22287" lon="5.95697">
        <ele>1320</ele>
        <time>2016-09-11T14:03:06Z</time>
      </trkpt>
      <trkpt lat="45.22305" lon="5.95702">
        <ele>1320</ele>
        <time>2016-09-11T14:03:20Z</time>
      </trkpt>
      <trkpt lat="45.22322" lon="5.95713">
        <ele>1321</ele>
        <time>2016-09-11T14:03:35Z</time>
      </trkpt>
      <trkpt lat="45.22339" lon="5.95727">
        <ele>1322</ele>
        <time>2016-09-11T14:03:51Z</time>
      </trkpt>
      <trkpt lat="45.22357" lon="5.9573">
        <ele>1322</ele>
        <time>2016-09-11T14:04:05Z</time>
      </trkpt>
      <trkpt lat="45.22374" lon="5.95742">
        <ele>1323</ele>
        <time>2016-09-11T14:04:24Z</time>
      </trkpt>
      <trkpt lat="45.22391" lon="5.95752">
        <ele>1332</ele>
        <time>2016-09-11T14:04:38Z</time>
      </trkpt>
      <trkpt lat="45.2241" lon="5.95751">
        <ele>1329</ele>
        <time>2016-09-11T14:04:57Z</time>
      </trkpt>
      <trkpt lat="45.22429" lon="5.95747">
        <ele>1324</ele>
        <time>2016-09-11T14:05:07Z</time>
      </trkpt>
      <trkpt lat="45.22449" lon="5.95749">
        <ele>1321</ele>
        <time>2016-09-11T14:05:23Z</time>
      </trkpt>
      <trkpt lat="45.22466" lon="5.95754">
        <ele>1329</ele>
        <time>2016-09-11T14:05:34Z</time>
      </trkpt>
      <trkpt lat="45.22485" lon="5.95756">
        <ele>1327</ele>
        <time>2016-09-11T14:05:48Z</time>
      </trkpt>
      <trkpt lat="45.22506" lon="5.9576">
        <ele>1325</ele>
        <time>2016-09-11T14:06:03Z</time>
      </trkpt>
      <trkpt lat="45.22524" lon="5.95758">
        <ele>1327</ele>
        <time>2016-09-11T14:06:19Z</time>
      </trkpt>
      <trkpt lat="45.22542" lon="5.95756">
        <ele>1328</ele>
        <time>2016-09-11T14:06:32Z</time>
      </trkpt>
      <trkpt lat="45.22561" lon="5.95754">
        <ele>1328</ele>
        <time>2016-09-11T14:06:46Z</time>
      </trkpt>
      <trkpt lat="45.22579" lon="5.95756">
        <ele>1328</ele>
        <time>2016-09-11T14:06:59Z</time>
      </trkpt>
      <trkpt lat="45.22597" lon="5.95764">
        <ele>1330</ele>
        <time>2016-09-11T14:07:12Z</time>
      </trkpt>
      <trkpt lat="45.22615" lon="5.95771">
        <ele>1331</ele>
        <time>2016-09-11T14:07:30Z</time>
      </trkpt>
      <trkpt lat="45.22631" lon="5.95785">
        <ele>1332</ele>
        <time>2016-09-11T14:07:47Z</time>
      </trkpt>
      <trkpt lat="45.22648" lon="5.95796">
        <ele>1333</ele>
        <time>2016-09-11T14:08:02Z</time>
      </trkpt>
      <trkpt lat="45.22665" lon="5.95805">
        <ele>1334</ele>
        <time>2016-09-11T14:08:16Z</time>
      </trkpt>
      <trkpt lat="45.22678" lon="5.95823">
        <ele>1336</ele>
        <time>2016-09-11T14:08:33Z</time>
      </trkpt>
      <trkpt lat="45.22692" lon="5.95842">
        <ele>1343</ele>
        <time>2016-09-11T14:08:46Z</time>
      </trkpt>
      <trkpt lat="45.22707" lon="5.95858">
        <ele>1344</ele>
        <time>2016-09-11T14:09:01Z</time>
      </trkpt>
      <trkpt lat="45.22724" lon="5.95869">
        <ele>1345</ele>
        <time>2016-09-11T14:09:17Z</time>
      </trkpt>
      <trkpt lat="45.22735" lon="5.95891">
        <ele>1346</ele>
        <time>2016-09-11T14:09:31Z</time>
      </trkpt>
      <trkpt lat="45.22745" lon="5.95914">
        <ele>1349</ele>
        <time>2016-09-11T14:09:45Z</time>
      </trkpt>
      <trkpt lat="45.22756" lon="5.95935">
        <ele>1349</ele>
        <time>2016-09-11T14:10:01Z</time>
      </trkpt>
      <trkpt lat="45.22764" lon="5.95959">
        <ele>1350</ele>
        <time>2016-09-11T14:10:15Z</time>
      </trkpt>
      <trkpt lat="45.22774" lon="5.95982">
        <ele>1351</ele>
        <time>2016-09-11T14:10:32Z</time>
      </trkpt>
      <trkpt lat="45.22784" lon="5.96003">
        <ele>1358</ele>
        <time>2016-09-11T14:10:45Z</time>
      </trkpt>
      <trkpt lat="45.22795" lon="5.96024">
        <ele>1358</ele>
        <time>2016-09-11T14:10:56Z</time>
      </trkpt>
      <trkpt lat="45.22805" lon="5.96046">
        <ele>1359</ele>
        <time>2016-09-11T14:11:09Z</time>
      </trkpt>
      <trkpt lat="45.22816" lon="5.96067">
        <ele>1359</ele>
        <time>2016-09-11T14:11:22Z</time>
      </trkpt>
      <trkpt lat="45.22829" lon="5.96086">
        <ele>1362</ele>
        <time>2016-09-11T14:11:35Z</time>
      </trkpt>
      <trkpt lat="45.2284" lon="5.96107">
        <ele>1358</ele>
        <time>2016-09-11T14:11:49Z</time>
      </trkpt>
      <trkpt lat="45.22853" lon="5.96126">
        <ele>1359</ele>
        <time>2016-09-11T14:12:02Z</time>
      </trkpt>
      <trkpt lat="45.22865" lon="5.96146">
        <ele>1360</ele>
        <time>2016-09-11T14:12:18Z</time>
      </trkpt>
      <trkpt lat="45.22876" lon="5.96168">
        <ele>1366</ele>
        <time>2016-09-11T14:12:31Z</time>
      </trkpt>
      <trkpt lat="45.22885" lon="5.96193">
        <ele>1366</ele>
        <time>2016-09-11T14:12:47Z</time>
      </trkpt>
      <trkpt lat="45.2289" lon="5.96219">
        <ele>1367</ele>
        <time>2016-09-11T14:12:59Z</time>
      </trkpt>
      <trkpt lat="45.22896" lon="5.96243">
        <ele>1366</ele>
        <time>2016-09-11T14:13:09Z</time>
      </trkpt>
      <trkpt lat="45.22905" lon="5.96267">
        <ele>1368</ele>
        <time>2016-09-11T14:13:27Z</time>
      </trkpt>
      <trkpt lat="45.2291" lon="5.96292">
        <ele>1370</ele>
        <time>2016-09-11T14:13:44Z</time>
      </trkpt>
      <trkpt lat="45.22905" lon="5.96318">
        <ele>1368</ele>
        <time>2016-09-11T14:13:57Z</time>
      </trkpt>
      <trkpt lat="45.22903" lon="5.96344">
        <ele>1369</ele>
        <time>2016-09-11T14:14:08Z</time>
      </trkpt>
      <trkpt lat="45.22908" lon="5.96371">
        <ele>1372</ele>
        <time>2016-09-11T14:14:18Z</time>
      </trkpt>
      <trkpt lat="45.22912" lon="5.96396">
        <ele>1370</ele>
        <time>2016-09-11T14:14:30Z</time>
      </trkpt>
      <trkpt lat="45.22916" lon="5.96423">
        <ele>1366</ele>
        <time>2016-09-11T14:14:43Z</time>
      </trkpt>
      <trkpt lat="45.22921" lon="5.96448">
        <ele>1355</ele>
        <time>2016-09-11T14:14:57Z</time>
      </trkpt>
      <trkpt lat="45.22923" lon="5.96475">
        <ele>1356</ele>
        <time>2016-09-11T14:15:11Z</time>
      </trkpt>
      <trkpt lat="45.22922" lon="5.96502">
        <ele>1362</ele>
        <time>2016-09-11T14:15:25Z</time>
      </trkpt>
      <trkpt lat="45.22918" lon="5.96528">
        <ele>1356</ele>
        <time>2016-09-11T14:15:40Z</time>
      </trkpt>
      <trkpt lat="45.22912" lon="5.96553">
        <ele>1375</ele>
        <time>2016-09-11T14:15:56Z</time>
      </trkpt>
      <trkpt lat="45.22905" lon="5.96577">
        <ele>1372</ele>
        <time>2016-09-11T14:16:08Z</time>
      </trkpt>
      <trkpt lat="45.22898" lon="5.96602">
        <ele>1372</ele>
        <time>2016-09-11T14:16:21Z</time>
      </trkpt>
      <trkpt lat="45.22889" lon="5.96624">
        <ele>1374</ele>
        <time>2016-09-11T14:16:33Z</time>
      </trkpt>
      <trkpt lat="45.22883" lon="5.96648">
        <ele>1373</ele>
        <time>2016-09-11T14:16:45Z</time>
      </trkpt>
      <trkpt lat="45.22875" lon="5.96671">
        <ele>1366</ele>
        <time>2016-09-11T14:16:57Z</time>
      </trkpt>
      <trkpt lat="45.22866" lon="5.96694">
        <ele>1366</ele>
        <time>2016-09-11T14:17:09Z</time>
      </trkpt>
      <trkpt lat="45.22852" lon="5.9671">
        <ele>1366</ele>
        <time>2016-09-11T14:17:25Z</time>
      </trkpt>
      <trkpt lat="45.22838" lon="5.96727">
        <ele>1366</ele>
        <time>2016-09-11T14:17:38Z</time>
      </trkpt>
      <trkpt lat="45.22826" lon="5.96747">
        <ele>1371</ele>
        <time>2016-09-11T14:17:51Z</time>
      </trkpt>
      <trkpt lat="45.22813" lon="5.96765">
        <ele>1363</ele>
        <time>2016-09-11T14:18:04Z</time>
      </trkpt>
      <trkpt lat="45.22797" lon="5.96779">
        <ele>1363</ele>
        <time>2016-09-11T14:18:18Z</time>
      </trkpt>
      <trkpt lat="45.22812" lon="5.96795">
        <ele>1359</ele>
        <time>2016-09-11T14:19:08Z</time>
      </trkpt>
      <trkpt lat="45.2283" lon="5.96795">
        <ele>1358</ele>
        <time>2016-09-11T14:19:27Z</time>
      </trkpt>
      <trkpt lat="45.2285" lon="5.96798">
        <ele>1344</ele>
        <time>2016-09-11T14:19:55Z</time>
      </trkpt>
      <trkpt lat="45.22868" lon="5.96799">
        <ele>1342</ele>
        <time>2016-09-11T14:20:19Z</time>
      </trkpt>
      <trkpt lat="45.22886" lon="5.96793">
        <ele>1341</ele>
        <time>2016-09-11T14:20:39Z</time>
      </trkpt>
      <trkpt lat="45.22904" lon="5.96792">
        <ele>1339</ele>
        <time>2016-09-11T14:21:00Z</time>
      </trkpt>
      <trkpt lat="45.22923" lon="5.96794">
        <ele>1322</ele>
        <time>2016-09-11T14:21:23Z</time>
      </trkpt>
      <trkpt lat="45.22939" lon="5.96783">
        <ele>1322</ele>
        <time>2016-09-11T14:21:39Z</time>
      </trkpt>
      <trkpt lat="45.22955" lon="5.96768">
        <ele>1320</ele>
        <time>2016-09-11T14:21:52Z</time>
      </trkpt>
      <trkpt lat="45.2297" lon="5.96754">
        <ele>1318</ele>
        <time>2016-09-11T14:22:04Z</time>
      </trkpt>
      <trkpt lat="45.22988" lon="5.9675">
        <ele>1314</ele>
        <time>2016-09-11T14:22:16Z</time>
      </trkpt>
      <trkpt lat="45.23007" lon="5.96743">
        <ele>1307</ele>
        <time>2016-09-11T14:22:47Z</time>
      </trkpt>
      <trkpt lat="45.23023" lon="5.96732">
        <ele>1303</ele>
        <time>2016-09-11T14:23:03Z</time>
      </trkpt>
      <trkpt lat="45.23039" lon="5.96721">
        <ele>1299</ele>
        <time>2016-09-11T14:23:22Z</time>
      </trkpt>
      <trkpt lat="45.23057" lon="5.96713">
        <ele>1296</ele>
        <time>2016-09-11T14:23:38Z</time>
      </trkpt>
      <trkpt lat="45.23076" lon="5.96701">
        <ele>1294</ele>
        <time>2016-09-11T14:23:51Z</time>
      </trkpt>
      <trkpt lat="45.2309" lon="5.96687">
        <ele>1275</ele>
        <time>2016-09-11T14:24:06Z</time>
      </trkpt>
      <trkpt lat="45.23106" lon="5.96673">
        <ele>1273</ele>
        <time>2016-09-11T14:24:30Z</time>
      </trkpt>
      <trkpt lat="45.23123" lon="5.96661">
        <ele>1271</ele>
        <time>2016-09-11T14:24:52Z</time>
      </trkpt>
      <trkpt lat="45.23135" lon="5.96641">
        <ele>1269</ele>
        <time>2016-09-11T14:25:09Z</time>
      </trkpt>
      <trkpt lat="45.23147" lon="5.96621">
        <ele>1267</ele>
        <time>2016-09-11T14:25:22Z</time>
      </trkpt>
      <trkpt lat="45.23159" lon="5.96602">
        <ele>1262</ele>
        <time>2016-09-11T14:25:36Z</time>
      </trkpt>
      <trkpt lat="45.23172" lon="5.96583">
        <ele>1249</ele>
        <time>2016-09-11T14:25:53Z</time>
      </trkpt>
      <trkpt lat="45.23187" lon="5.96567">
        <ele>1239</ele>
        <time>2016-09-11T14:26:05Z</time>
      </trkpt>
      <trkpt lat="45.23201" lon="5.9655">
        <ele>1234</ele>
        <time>2016-09-11T14:26:17Z</time>
      </trkpt>
      <trkpt lat="45.23216" lon="5.96534">
        <ele>1230</ele>
        <time>2016-09-11T14:26:31Z</time>
      </trkpt>
      <trkpt lat="45.23214" lon="5.96508">
        <ele>1231</ele>
        <time>2016-09-11T14:26:50Z</time>
      </trkpt>
      <trkpt lat="45.23219" lon="5.96483">
        <ele>1231</ele>
        <time>2016-09-11T14:27:05Z</time>
      </trkpt>
      <trkpt lat="45.23231" lon="5.96465">
        <ele>1229</ele>
        <time>2016-09-11T14:27:27Z</time>
      </trkpt>
      <trkpt lat="45.23247" lon="5.96452">
        <ele>1227</ele>
        <time>2016-09-11T14:27:56Z</time>
      </trkpt>
      <trkpt lat="45.23262" lon="5.96436">
        <ele>1201</ele>
        <time>2016-09-11T14:28:19Z</time>
      </trkpt>
      <trkpt lat="45.23278" lon="5.96422">
        <ele>1197</ele>
        <time>2016-09-11T14:28:34Z</time>
      </trkpt>
      <trkpt lat="45.2329" lon="5.96402">
        <ele>1196</ele>
        <time>2016-09-11T14:28:55Z</time>
      </trkpt>
      <trkpt lat="45.23302" lon="5.96382">
        <ele>1193</ele>
        <time>2016-09-11T14:29:11Z</time>
      </trkpt>
      <trkpt lat="45.23318" lon="5.9637">
        <ele>1191</ele>
        <time>2016-09-11T14:29:32Z</time>
      </trkpt>
      <trkpt lat="45.23334" lon="5.96355">
        <ele>1169</ele>
        <time>2016-09-11T14:29:51Z</time>
      </trkpt>
      <trkpt lat="45.23347" lon="5.96336">
        <ele>1172</ele>
        <time>2016-09-11T14:30:13Z</time>
      </trkpt>
      <trkpt lat="45.23359" lon="5.96318">
        <ele>1168</ele>
        <time>2016-09-11T14:30:38Z</time>
      </trkpt>
      <trkpt lat="45.23369" lon="5.96296">
        <ele>1164</ele>
        <time>2016-09-11T14:30:55Z</time>
      </trkpt>
      <trkpt lat="45.2338" lon="5.96275">
        <ele>1161</ele>
        <time>2016-09-11T14:31:15Z</time>
      </trkpt>
      <trkpt lat="45.23393" lon="5.96256">
        <ele>1156</ele>
        <time>2016-09-11T14:31:34Z</time>
      </trkpt>
      <trkpt lat="45.23406" lon="5.96235">
        <ele>1154</ele>
        <time>2016-09-11T14:31:55Z</time>
      </trkpt>
      <trkpt lat="45.23421" lon="5.96218">
        <ele>1134</ele>
        <time>2016-09-11T14:32:12Z</time>
      </trkpt>
      <trkpt lat="45.23434" lon="5.962">
        <ele>1133</ele>
        <time>2016-09-11T14:32:29Z</time>
      </trkpt>
      <trkpt lat="45.23451" lon="5.96187">
        <ele>1130</ele>
        <time>2016-09-11T14:32:42Z</time>
      </trkpt>
      <trkpt lat="45.23453" lon="5.9616">
        <ele>1131</ele>
        <time>2016-09-11T14:33:05Z</time>
      </trkpt>
      <trkpt lat="45.23453" lon="5.96134">
        <ele>1131</ele>
        <time>2016-09-11T14:33:26Z</time>
      </trkpt>
      <trkpt lat="45.23471" lon="5.96135">
        <ele>1127</ele>
        <time>2016-09-11T14:34:09Z</time>
      </trkpt>
      <trkpt lat="45.23484" lon="5.96153">
        <ele>1123</ele>
        <time>2016-09-11T14:34:27Z</time>
      </trkpt>
      <trkpt lat="45.23502" lon="5.96161">
        <ele>1112</ele>
        <time>2016-09-11T14:34:43Z</time>
      </trkpt>
      <trkpt lat="45.23518" lon="5.96173">
        <ele>1107</ele>
        <time>2016-09-11T14:35:26Z</time>
      </trkpt>
      <trkpt lat="45.23537" lon="5.96178">
        <ele>1102</ele>
        <time>2016-09-11T14:35:45Z</time>
      </trkpt>
      <trkpt lat="45.23554" lon="5.96186">
        <ele>1098</ele>
        <time>2016-09-11T14:36:00Z</time>
      </trkpt>
      <trkpt lat="45.2357" lon="5.962">
        <ele>1097</ele>
        <time>2016-09-11T14:36:17Z</time>
      </trkpt>
      <trkpt lat="45.23588" lon="5.96209">
        <ele>1080</ele>
        <time>2016-09-11T14:36:32Z</time>
      </trkpt>
      <trkpt lat="45.23606" lon="5.96214">
        <ele>1078</ele>
        <time>2016-09-11T14:36:45Z</time>
      </trkpt>
      <trkpt lat="45.23622" lon="5.96227">
        <ele>1075</ele>
        <time>2016-09-11T14:37:10Z</time>
      </trkpt>
      <trkpt lat="45.2364" lon="5.96234">
        <ele>1072</ele>
        <time>2016-09-11T14:37:21Z</time>
      </trkpt>
      <trkpt lat="45.23659" lon="5.96243">
        <ele>1067</ele>
        <time>2016-09-11T14:37:33Z</time>
      </trkpt>
      <trkpt lat="45.23677" lon="5.96234">
        <ele>1059</ele>
        <time>2016-09-11T14:37:51Z</time>
      </trkpt>
      <trkpt lat="45.23692" lon="5.96217">
        <ele>1057</ele>
        <time>2016-09-11T14:38:04Z</time>
      </trkpt>
      <trkpt lat="45.2371" lon="5.96215">
        <ele>1056</ele>
        <time>2016-09-11T14:38:25Z</time>
      </trkpt>
      <trkpt lat="45.23717" lon="5.96241">
        <ele>1054</ele>
        <time>2016-09-11T14:38:44Z</time>
      </trkpt>
      <trkpt lat="45.23726" lon="5.96266">
        <ele>1049</ele>
        <time>2016-09-11T14:39:01Z</time>
      </trkpt>
      <trkpt lat="45.23743" lon="5.96275">
        <ele>1048</ele>
        <time>2016-09-11T14:39:14Z</time>
      </trkpt>
      <trkpt lat="45.23761" lon="5.96267">
        <ele>1040</ele>
        <time>2016-09-11T14:39:25Z</time>
      </trkpt>
      <trkpt lat="45.23776" lon="5.9625">
        <ele>1042</ele>
        <time>2016-09-11T14:39:40Z</time>
      </trkpt>
      <trkpt lat="45.23792" lon="5.96234">
        <ele>1040</ele>
        <time>2016-09-11T14:39:55Z</time>
      </trkpt>
      <trkpt lat="45.2381" lon="5.96229">
        <ele>1038</ele>
        <time>2016-09-11T14:40:08Z</time>
      </trkpt>
      <trkpt lat="45.23828" lon="5.96227">
        <ele>1036</ele>
        <time>2016-09-11T14:40:28Z</time>
      </trkpt>
      <trkpt lat="45.23845" lon="5.96238">
        <ele>1029</ele>
        <time>2016-09-11T14:40:43Z</time>
      </trkpt>
      <trkpt lat="45.23864" lon="5.96241">
        <ele>1028</ele>
        <time>2016-09-11T14:40:53Z</time>
      </trkpt>
      <trkpt lat="45.23885" lon="5.9624">
        <ele>1027</ele>
        <time>2016-09-11T14:41:02Z</time>
      </trkpt>
      <trkpt lat="45.23903" lon="5.9623">
        <ele>1026</ele>
        <time>2016-09-11T14:41:16Z</time>
      </trkpt>
      <trkpt lat="45.23916" lon="5.96211">
        <ele>1027</ele>
        <time>2016-09-11T14:41:28Z</time>
      </trkpt>
      <trkpt lat="45.23927" lon="5.96189">
        <ele>1017</ele>
        <time>2016-09-11T14:41:41Z</time>
      </trkpt>
      <trkpt lat="45.23941" lon="5.96172">
        <ele>1015</ele>
        <time>2016-09-11T14:41:52Z</time>
      </trkpt>
      <trkpt lat="45.23955" lon="5.96156">
        <ele>1015</ele>
        <time>2016-09-11T14:42:06Z</time>
      </trkpt>
      <trkpt lat="45.23964" lon="5.96134">
        <ele>1013</ele>
        <time>2016-09-11T14:42:18Z</time>
      </trkpt>
      <trkpt lat="45.23967" lon="5.96108">
        <ele>1013</ele>
        <time>2016-09-11T14:42:34Z</time>
      </trkpt>
      <trkpt lat="45.23972" lon="5.96083">
        <ele>1012</ele>
        <time>2016-09-11T14:42:50Z</time>
      </trkpt>
      <trkpt lat="45.23984" lon="5.96063">
        <ele>1013</ele>
        <time>2016-09-11T14:43:02Z</time>
      </trkpt>
      <trkpt lat="45.23994" lon="5.96041">
        <ele>1015</ele>
        <time>2016-09-11T14:43:13Z</time>
      </trkpt>
      <trkpt lat="45.24006" lon="5.9602">
        <ele>1007</ele>
        <time>2016-09-11T14:43:27Z</time>
      </trkpt>
      <trkpt lat="45.2402" lon="5.95999">
        <ele>1011</ele>
        <time>2016-09-11T14:43:45Z</time>
      </trkpt>
      <trkpt lat="45.24034" lon="5.95982">
        <ele>1010</ele>
        <time>2016-09-11T14:43:54Z</time>
      </trkpt>
      <trkpt lat="45.2405" lon="5.95965">
        <ele>1009</ele>
        <time>2016-09-11T14:44:09Z</time>
      </trkpt>
      <trkpt lat="45.24065" lon="5.95947">
        <ele>1010</ele>
        <time>2016-09-11T14:44:22Z</time>
      </trkpt>
      <trkpt lat="45.2408" lon="5.95931">
        <ele>1010</ele>
        <time>2016-09-11T14:44:35Z</time>
      </trkpt>
      <trkpt lat="45.2409" lon="5.95911">
        <ele>1009</ele>
        <time>2016-09-11T14:44:50Z</time>
      </trkpt>
      <trkpt lat="45.24105" lon="5.95894">
        <ele>1007</ele>
        <time>2016-09-11T14:45:04Z</time>
      </trkpt>
      <trkpt lat="45.2411" lon="5.9592">
        <ele>1004</ele>
        <time>2016-09-11T14:45:29Z</time>
      </trkpt>
      <trkpt lat="45.24102" lon="5.95946">
        <ele>1002</ele>
        <time>2016-09-11T14:45:42Z</time>
      </trkpt>
      <trkpt lat="45.24092" lon="5.95967">
        <ele>1002</ele>
        <time>2016-09-11T14:45:56Z</time>
      </trkpt>
      <trkpt lat="45.24083" lon="5.9599">
        <ele>1002</ele>
        <time>2016-09-11T14:46:05Z</time>
      </trkpt>
      <trkpt lat="45.24074" lon="5.96013">
        <ele>1003</ele>
        <time>2016-09-11T14:46:18Z</time>
      </trkpt>
      <trkpt lat="45.24065" lon="5.96035">
        <ele>1002</ele>
        <time>2016-09-11T14:46:34Z</time>
      </trkpt>
      <trkpt lat="45.24058" lon="5.9606">
        <ele>1000</ele>
        <time>2016-09-11T14:46:44Z</time>
      </trkpt>
      <trkpt lat="45.24058" lon="5.96086">
        <ele>992</ele>
        <time>2016-09-11T14:47:02Z</time>
      </trkpt>
      <trkpt lat="45.24072" lon="5.96103">
        <ele>991</ele>
        <time>2016-09-11T14:47:16Z</time>
      </trkpt>
      <trkpt lat="45.24082" lon="5.96125">
        <ele>989</ele>
        <time>2016-09-11T14:47:46Z</time>
      </trkpt>
      <trkpt lat="45.24088" lon="5.96152">
        <ele>977</ele>
        <time>2016-09-11T14:48:02Z</time>
      </trkpt>
      <trkpt lat="45.24097" lon="5.96174">
        <ele>972</ele>
        <time>2016-09-11T14:48:27Z</time>
      </trkpt>
      <trkpt lat="45.24105" lon="5.96197">
        <ele>968</ele>
        <time>2016-09-11T14:48:55Z</time>
      </trkpt>
      <trkpt lat="45.24112" lon="5.96221">
        <ele>965</ele>
        <time>2016-09-11T14:49:21Z</time>
      </trkpt>
      <trkpt lat="45.24123" lon="5.96242">
        <ele>963</ele>
        <time>2016-09-11T14:49:37Z</time>
      </trkpt>
      <trkpt lat="45.24138" lon="5.96257">
        <ele>954</ele>
        <time>2016-09-11T14:50:01Z</time>
      </trkpt>
      <trkpt lat="45.24155" lon="5.96267">
        <ele>952</ele>
        <time>2016-09-11T14:50:16Z</time>
      </trkpt>
      <trkpt lat="45.24173" lon="5.96261">
        <ele>942</ele>
        <time>2016-09-11T14:50:44Z</time>
      </trkpt>
      <trkpt lat="45.24192" lon="5.96258">
        <ele>936</ele>
        <time>2016-09-11T14:51:07Z</time>
      </trkpt>
      <trkpt lat="45.2421" lon="5.96265">
        <ele>930</ele>
        <time>2016-09-11T14:51:23Z</time>
      </trkpt>
      <trkpt lat="45.24227" lon="5.96274">
        <ele>926</ele>
        <time>2016-09-11T14:51:45Z</time>
      </trkpt>
      <trkpt lat="45.24245" lon="5.96283">
        <ele>923</ele>
        <time>2016-09-11T14:51:56Z</time>
      </trkpt>
      <trkpt lat="45.24265" lon="5.96287">
        <ele>904</ele>
        <time>2016-09-11T14:52:08Z</time>
      </trkpt>
      <trkpt lat="45.24282" lon="5.96295">
        <ele>901</ele>
        <time>2016-09-11T14:52:19Z</time>
      </trkpt>
      <trkpt lat="45.24301" lon="5.96294">
        <ele>898</ele>
        <time>2016-09-11T14:52:29Z</time>
      </trkpt>
      <trkpt lat="45.24317" lon="5.9628">
        <ele>897</ele>
        <time>2016-09-11T14:52:43Z</time>
      </trkpt>
      <trkpt lat="45.2433" lon="5.96262">
        <ele>897</ele>
        <time>2016-09-11T14:52:57Z</time>
      </trkpt>
      <trkpt lat="45.24343" lon="5.96241">
        <ele>892</ele>
        <time>2016-09-11T14:53:11Z</time>
      </trkpt>
      <trkpt lat="45.24359" lon="5.96228">
        <ele>889</ele>
        <time>2016-09-11T14:53:27Z</time>
      </trkpt>
      <trkpt lat="45.24377" lon="5.96216">
        <ele>887</ele>
        <time>2016-09-11T14:53:43Z</time>
      </trkpt>
      <trkpt lat="45.24388" lon="5.96239">
        <ele>884</ele>
        <time>2016-09-11T14:54:14Z</time>
      </trkpt>
      <trkpt lat="45.244" lon="5.96258">
        <ele>875</ele>
        <time>2016-09-11T14:54:33Z</time>
      </trkpt>
      <trkpt lat="45.24417" lon="5.96273">
        <ele>866</ele>
        <time>2016-09-11T14:54:49Z</time>
      </trkpt>
      <trkpt lat="45.24428" lon="5.96293">
        <ele>864</ele>
        <time>2016-09-11T14:55:03Z</time>
      </trkpt>
      <trkpt lat="45.24434" lon="5.96319">
        <ele>863</ele>
        <time>2016-09-11T14:55:21Z</time>
      </trkpt>
      <trkpt lat="45.24452" lon="5.96321">
        <ele>862</ele>
        <time>2016-09-11T14:55:51Z</time>
      </trkpt>
      <trkpt lat="45.2447" lon="5.96321">
        <ele>861</ele>
        <time>2016-09-11T14:56:04Z</time>
      </trkpt>
      <trkpt lat="45.24489" lon="5.96324">
        <ele>859</ele>
        <time>2016-09-11T14:56:17Z</time>
      </trkpt>
      <trkpt lat="45.24508" lon="5.96318">
        <ele>855</ele>
        <time>2016-09-11T14:56:30Z</time>
      </trkpt>
      <trkpt lat="45.24525" lon="5.96308">
        <ele>853</ele>
        <time>2016-09-11T14:56:41Z</time>
      </trkpt>
      <trkpt lat="45.24542" lon="5.96297">
        <ele>852</ele>
        <time>2016-09-11T14:56:52Z</time>
      </trkpt>
      <trkpt lat="45.24558" lon="5.96284">
        <ele>852</ele>
        <time>2016-09-11T14:57:07Z</time>
      </trkpt>
      <trkpt lat="45.24573" lon="5.96268">
        <ele>851</ele>
        <time>2016-09-11T14:57:22Z</time>
      </trkpt>
      <trkpt lat="45.24582" lon="5.96245">
        <ele>850</ele>
        <time>2016-09-11T14:57:35Z</time>
      </trkpt>
      <trkpt lat="45.2459" lon="5.96221">
        <ele>845</ele>
        <time>2016-09-11T14:57:48Z</time>
      </trkpt>
      <trkpt lat="45.24594" lon="5.96195">
        <ele>844</ele>
        <time>2016-09-11T14:58:03Z</time>
      </trkpt>
      <trkpt lat="45.24598" lon="5.96169">
        <ele>844</ele>
        <time>2016-09-11T14:58:16Z</time>
      </trkpt>
      <trkpt lat="45.24603" lon="5.96144">
        <ele>842</ele>
        <time>2016-09-11T14:58:28Z</time>
      </trkpt>
      <trkpt lat="45.24608" lon="5.9612">
        <ele>841</ele>
        <time>2016-09-11T14:58:42Z</time>
      </trkpt>
      <trkpt lat="45.24613" lon="5.96095">
        <ele>840</ele>
        <time>2016-09-11T14:58:56Z</time>
      </trkpt>
      <trkpt lat="45.24619" lon="5.96071">
        <ele>838</ele>
        <time>2016-09-11T14:59:08Z</time>
      </trkpt>
      <trkpt lat="45.24625" lon="5.96046">
        <ele>837</ele>
        <time>2016-09-11T14:59:20Z</time>
      </trkpt>
      <trkpt lat="45.24631" lon="5.96021">
        <ele>837</ele>
        <time>2016-09-11T14:59:30Z</time>
      </trkpt>
      <trkpt lat="45.24638" lon="5.95996">
        <ele>836</ele>
        <time>2016-09-11T14:59:43Z</time>
      </trkpt>
      <trkpt lat="45.24643" lon="5.9597">
        <ele>837</ele>
        <time>2016-09-11T14:59:55Z</time>
      </trkpt>
      <trkpt lat="45.24649" lon="5.95945">
        <ele>836</ele>
        <time>2016-09-11T15:00:08Z</time>
      </trkpt>
      <trkpt lat="45.24656" lon="5.95921">
        <ele>834</ele>
        <time>2016-09-11T15:00:20Z</time>
      </trkpt>
      <trkpt lat="45.24663" lon="5.95896">
        <ele>838</ele>
        <time>2016-09-11T15:00:32Z</time>
      </trkpt>
      <trkpt lat="45.2467" lon="5.95872">
        <ele>830</ele>
        <time>2016-09-11T15:00:45Z</time>
      </trkpt>
      <trkpt lat="45.24676" lon="5.95847">
        <ele>830</ele>
        <time>2016-09-11T15:00:58Z</time>
      </trkpt>
      <trkpt lat="45.24684" lon="5.95821">
        <ele>830</ele>
        <time>2016-09-11T15:01:11Z</time>
      </trkpt>
      <trkpt lat="45.2469" lon="5.95797">
        <ele>830</ele>
        <time>2016-09-11T15:01:19Z</time>
      </trkpt>
      <trkpt lat="45.24698" lon="5.95771">
        <ele>830</ele>
        <time>2016-09-11T15:01:35Z</time>
      </trkpt>
      <trkpt lat="45.24708" lon="5.95749">
        <ele>833</ele>
        <time>2016-09-11T15:01:48Z</time>
      </trkpt>
      <trkpt lat="45.24719" lon="5.95727">
        <ele>832</ele>
        <time>2016-09-11T15:02:01Z</time>
      </trkpt>
      <trkpt lat="45.2473" lon="5.95703">
        <ele>832</ele>
        <time>2016-09-11T15:02:17Z</time>
      </trkpt>
      <trkpt lat="45.2474" lon="5.95681">
        <ele>829</ele>
        <time>2016-09-11T15:02:30Z</time>
      </trkpt>
      <trkpt lat="45.24749" lon="5.95656">
        <ele>830</ele>
        <time>2016-09-11T15:02:43Z</time>
      </trkpt>
      <trkpt lat="45.24755" lon="5.95631">
        <ele>820</ele>
        <time>2016-09-11T15:02:56Z</time>
      </trkpt>
      <trkpt lat="45.2476" lon="5.95606">
        <ele>820</ele>
        <time>2016-09-11T15:03:09Z</time>
      </trkpt>
      <trkpt lat="45.24765" lon="5.95581">
        <ele>823</ele>
        <time>2016-09-11T15:03:22Z</time>
      </trkpt>
      <trkpt lat="45.24771" lon="5.95557">
        <ele>821</ele>
        <time>2016-09-11T15:03:34Z</time>
      </trkpt>
      <trkpt lat="45.24777" lon="5.95531">
        <ele>821</ele>
        <time>2016-09-11T15:03:48Z</time>
      </trkpt>
      <trkpt lat="45.24782" lon="5.95507">
        <ele>821</ele>
        <time>2016-09-11T15:04:00Z</time>
      </trkpt>
      <trkpt lat="45.24788" lon="5.95481">
        <ele>823</ele>
        <time>2016-09-11T15:04:14Z</time>
      </trkpt>
      <trkpt lat="45.24795" lon="5.95456">
        <ele>822</ele>
        <time>2016-09-11T15:04:26Z</time>
      </trkpt>
      <trkpt lat="45.24799" lon="5.9543">
        <ele>822</ele>
        <time>2016-09-11T15:04:40Z</time>
      </trkpt>
      <trkpt lat="45.24805" lon="5.95405">
        <ele>824</ele>
        <time>2016-09-11T15:04:54Z</time>
      </trkpt>
      <trkpt lat="45.24813" lon="5.9538">
        <ele>825</ele>
        <time>2016-09-11T15:05:05Z</time>
      </trkpt>
      <trkpt lat="45.2482" lon="5.95356">
        <ele>824</ele>
        <time>2016-09-11T15:05:18Z</time>
      </trkpt>
      <trkpt lat="45.24825" lon="5.9533">
        <ele>823</ele>
        <time>2016-09-11T15:05:26Z</time>
      </trkpt>
      <trkpt lat="45.24832" lon="5.95305">
        <ele>827</ele>
        <time>2016-09-11T15:05:39Z</time>
      </trkpt>
      <trkpt lat="45.2484" lon="5.95281">
        <ele>815</ele>
        <time>2016-09-11T15:05:52Z</time>
      </trkpt>
      <trkpt lat="45.24849" lon="5.95255">
        <ele>816</ele>
        <time>2016-09-11T15:06:06Z</time>
      </trkpt>
      <trkpt lat="45.24856" lon="5.95231">
        <ele>816</ele>
        <time>2016-09-11T15:06:19Z</time>
      </trkpt>
      <trkpt lat="45.24865" lon="5.95203">
        <ele>815</ele>
        <time>2016-09-11T15:06:36Z</time>
      </trkpt>
      <trkpt lat="45.24871" lon="5.95177">
        <ele>814</ele>
        <time>2016-09-11T15:06:49Z</time>
      </trkpt>
      <trkpt lat="45.24865" lon="5.95153">
        <ele>813</ele>
        <time>2016-09-11T15:07:01Z</time>
      </trkpt>
      <trkpt lat="45.24855" lon="5.95131">
        <ele>813</ele>
        <time>2016-09-11T15:07:13Z</time>
      </trkpt>
      <trkpt lat="45.24843" lon="5.9511">
        <ele>814</ele>
        <time>2016-09-11T15:07:27Z</time>
      </trkpt>
      <trkpt lat="45.24837" lon="5.95085">
        <ele>817</ele>
        <time>2016-09-11T15:07:39Z</time>
      </trkpt>
      <trkpt lat="45.24832" lon="5.9506">
        <ele>827</ele>
        <time>2016-09-11T15:07:51Z</time>
      </trkpt>
      <trkpt lat="45.24829" lon="5.95034">
        <ele>828</ele>
        <time>2016-09-11T15:08:06Z</time>
      </trkpt>
      <trkpt lat="45.2483" lon="5.95008">
        <ele>820</ele>
        <time>2016-09-11T15:08:18Z</time>
      </trkpt>
      <trkpt lat="45.24832" lon="5.94982">
        <ele>823</ele>
        <time>2016-09-11T15:08:30Z</time>
      </trkpt>
      <trkpt lat="45.24832" lon="5.94955">
        <ele>826</ele>
        <time>2016-09-11T15:08:45Z</time>
      </trkpt>
      <trkpt lat="45.24848" lon="5.9494">
        <ele>807</ele>
        <time>2016-09-11T15:09:19Z</time>
      </trkpt>
      <trkpt lat="45.24865" lon="5.94932">
        <ele>804</ele>
        <time>2016-09-11T15:09:44Z</time>
      </trkpt>
      <trkpt lat="45.24883" lon="5.94922">
        <ele>801</ele>
        <time>2016-09-11T15:09:58Z</time>
      </trkpt>
      <trkpt lat="45.24898" lon="5.94909">
        <ele>795</ele>
        <time>2016-09-11T15:10:12Z</time>
      </trkpt>
      <trkpt lat="45.24916" lon="5.949">
        <ele>794</ele>
        <time>2016-09-11T15:10:47Z</time>
      </trkpt>
      <trkpt lat="45.24931" lon="5.94883">
        <ele>779</ele>
        <time>2016-09-11T15:11:04Z</time>
      </trkpt>
      <trkpt lat="45.24947" lon="5.94868">
        <ele>776</ele>
        <time>2016-09-11T15:11:22Z</time>
      </trkpt>
      <trkpt lat="45.24964" lon="5.94856">
        <ele>773</ele>
        <time>2016-09-11T15:11:38Z</time>
      </trkpt>
      <trkpt lat="45.24981" lon="5.9485">
        <ele>769</ele>
        <time>2016-09-11T15:11:56Z</time>
      </trkpt>
      <trkpt lat="45.24986" lon="5.94825">
        <ele>765</ele>
        <time>2016-09-11T15:12:20Z</time>
      </trkpt>
      <trkpt lat="45.24998" lon="5.94805">
        <ele>766</ele>
        <time>2016-09-11T15:12:35Z</time>
      </trkpt>
      <trkpt lat="45.25" lon="5.94778">
        <ele>767</ele>
        <time>2016-09-11T15:12:57Z</time>
      </trkpt>
      <trkpt lat="45.25009" lon="5.94754">
        <ele>758</ele>
        <time>2016-09-11T15:13:14Z</time>
      </trkpt>
      <trkpt lat="45.25023" lon="5.94734">
        <ele>751</ele>
        <time>2016-09-11T15:13:30Z</time>
      </trkpt>
      <trkpt lat="45.2504" lon="5.94712">
        <ele>747</ele>
        <time>2016-09-11T15:14:00Z</time>
      </trkpt>
      <trkpt lat="45.25049" lon="5.9469">
        <ele>745</ele>
        <time>2016-09-11T15:14:14Z</time>
      </trkpt>
      <trkpt lat="45.25052" lon="5.94665">
        <ele>738</ele>
        <time>2016-09-11T15:14:31Z</time>
      </trkpt>
      <trkpt lat="45.25054" lon="5.94639">
        <ele>737</ele>
        <time>2016-09-11T15:14:50Z</time>
      </trkpt>
      <trkpt lat="45.25063" lon="5.94615">
        <ele>733</ele>
        <time>2016-09-11T15:15:32Z</time>
      </trkpt>
      <trkpt lat="45.25071" lon="5.94592">
        <ele>725</ele>
        <time>2016-09-11T15:16:05Z</time>
      </trkpt>
      <trkpt lat="45.2507" lon="5.94564">
        <ele>720</ele>
        <time>2016-09-11T15:16:35Z</time>
      </trkpt>
      <trkpt lat="45.25065" lon="5.94538">
        <ele>719</ele>
        <time>2016-09-11T15:17:00Z</time>
      </trkpt>
      <trkpt lat="45.25069" lon="5.9451">
        <ele>711</ele>
        <time>2016-09-11T15:17:10Z</time>
      </trkpt>
      <trkpt lat="45.25068" lon="5.94483">
        <ele>705</ele>
        <time>2016-09-11T15:17:22Z</time>
      </trkpt>
      <trkpt lat="45.25071" lon="5.94456">
        <ele>705</ele>
        <time>2016-09-11T15:17:34Z</time>
      </trkpt>
      <trkpt lat="45.25075" lon="5.9443">
        <ele>697</ele>
        <time>2016-09-11T15:17:51Z</time>
      </trkpt>
      <trkpt lat="45.25076" lon="5.94403">
        <ele>692</ele>
        <time>2016-09-11T15:34:54Z</time>
      </trkpt>
      <trkpt lat="45.2508" lon="5.94378">
        <ele>693</ele>
        <time>2016-09-11T15:35:18Z</time>
      </trkpt>
      <trkpt lat="45.2508" lon="5.94351">
        <ele>687</ele>
        <time>2016-09-11T15:35:33Z</time>
      </trkpt>
      <trkpt lat="45.25085" lon="5.94324">
        <ele>673</ele>
        <time>2016-09-11T15:35:52Z</time>
      </trkpt>
      <trkpt lat="45.25092" lon="5.94298">
        <ele>671</ele>
        <time>2016-09-11T15:36:13Z</time>
      </trkpt>
      <trkpt lat="45.25096" lon="5.94272">
        <ele>670</ele>
        <time>2016-09-11T15:36:25Z</time>
      </trkpt>
      <trkpt lat="45.25106" lon="5.94248">
        <ele>668</ele>
        <time>2016-09-11T15:36:42Z</time>
      </trkpt>
      <trkpt lat="45.25114" lon="5.94224">
        <ele>666</ele>
        <time>2016-09-11T15:36:59Z</time>
      </trkpt>
      <trkpt lat="45.25119" lon="5.94198">
        <ele>666</ele>
        <time>2016-09-11T15:37:14Z</time>
      </trkpt>
      <trkpt lat="45.25122" lon="5.94171">
        <ele>665</ele>
        <time>2016-09-11T15:37:28Z</time>
      </trkpt>
      <trkpt lat="45.25134" lon="5.94151">
        <ele>660</ele>
        <time>2016-09-11T15:37:52Z</time>
      </trkpt>
      <trkpt lat="45.25133" lon="5.94123">
        <ele>659</ele>
        <time>2016-09-11T15:38:09Z</time>
      </trkpt>
      <trkpt lat="45.25125" lon="5.94099">
        <ele>659</ele>
        <time>2016-09-11T15:38:22Z</time>
      </trkpt>
      <trkpt lat="45.2513" lon="5.94073">
        <ele>650</ele>
        <time>2016-09-11T15:38:40Z</time>
      </trkpt>
      <trkpt lat="45.25138" lon="5.94049">
        <ele>648</ele>
        <time>2016-09-11T15:39:02Z</time>
      </trkpt>
      <trkpt lat="45.25151" lon="5.94031">
        <ele>644</ele>
        <time>2016-09-11T15:39:19Z</time>
      </trkpt>
      <trkpt lat="45.2515" lon="5.94004">
        <ele>639</ele>
        <time>2016-09-11T15:39:31Z</time>
      </trkpt>
      <trkpt lat="45.25148" lon="5.93976">
        <ele>635</ele>
        <time>2016-09-11T15:39:47Z</time>
      </trkpt>
      <trkpt lat="45.25151" lon="5.93948">
        <ele>632</ele>
        <time>2016-09-11T15:40:01Z</time>
      </trkpt>
      <trkpt lat="45.25156" lon="5.93923">
        <ele>627</ele>
        <time>2016-09-11T15:40:17Z</time>
      </trkpt>
      <trkpt lat="45.2516" lon="5.93897">
        <ele>624</ele>
        <time>2016-09-11T15:40:30Z</time>
      </trkpt>
      <trkpt lat="45.25154" lon="5.93873">
        <ele>624</ele>
        <time>2016-09-11T15:40:42Z</time>
      </trkpt>
      <trkpt lat="45.25156" lon="5.93846">
        <ele>621</ele>
        <time>2016-09-11T15:40:51Z</time>
      </trkpt>
      <trkpt lat="45.25158" lon="5.9382">
        <ele>616</ele>
        <time>2016-09-11T15:41:03Z</time>
      </trkpt>
      <trkpt lat="45.25163" lon="5.93794">
        <ele>616</ele>
        <time>2016-09-11T15:41:15Z</time>
      </trkpt>
      <trkpt lat="45.25165" lon="5.93767">
        <ele>611</ele>
        <time>2016-09-11T15:41:27Z</time>
      </trkpt>
      <trkpt lat="45.2516" lon="5.93742">
        <ele>606</ele>
        <time>2016-09-11T15:41:39Z</time>
      </trkpt>
      <trkpt lat="45.25157" lon="5.93716">
        <ele>607</ele>
        <time>2016-09-11T15:41:51Z</time>
      </trkpt>
      <trkpt lat="45.25148" lon="5.93692">
        <ele>606</ele>
        <time>2016-09-11T15:42:07Z</time>
      </trkpt>
      <trkpt lat="45.25166" lon="5.93694">
        <ele>605</ele>
        <time>2016-09-11T15:42:20Z</time>
      </trkpt>
      <trkpt lat="45.25184" lon="5.93687">
        <ele>604</ele>
        <time>2016-09-11T15:42:32Z</time>
      </trkpt>
      <trkpt lat="45.25201" lon="5.93677">
        <ele>605</ele>
        <time>2016-09-11T15:42:46Z</time>
      </trkpt>
      <trkpt lat="45.25213" lon="5.93656">
        <ele>603</ele>
        <time>2016-09-11T15:43:01Z</time>
      </trkpt>
      <trkpt lat="45.2522" lon="5.93632">
        <ele>603</ele>
        <time>2016-09-11T15:43:18Z</time>
      </trkpt>
      <trkpt lat="45.25227" lon="5.93607">
        <ele>603</ele>
        <time>2016-09-11T15:43:33Z</time>
      </trkpt>
      <trkpt lat="45.25234" lon="5.93582">
        <ele>602</ele>
        <time>2016-09-11T15:43:46Z</time>
      </trkpt>
      <trkpt lat="45.25243" lon="5.9356">
        <ele>601</ele>
        <time>2016-09-11T15:43:59Z</time>
      </trkpt>
      <trkpt lat="45.25251" lon="5.93537">
        <ele>610</ele>
        <time>2016-09-11T15:44:11Z</time>
      </trkpt>
      <trkpt lat="45.25258" lon="5.93512">
        <ele>607</ele>
        <time>2016-09-11T15:44:24Z</time>
      </trkpt>
      <trkpt lat="45.25266" lon="5.93489">
        <ele>606</ele>
        <time>2016-09-11T15:44:38Z</time>
      </trkpt>
      <trkpt lat="45.25279" lon="5.93471">
        <ele>609</ele>
        <time>2016-09-11T15:44:54Z</time>
      </trkpt>
      <trkpt lat="45.25291" lon="5.93451">
        <ele>610</ele>
        <time>2016-09-11T15:45:07Z</time>
      </trkpt>
      <trkpt lat="45.25305" lon="5.93436">
        <ele>611</ele>
        <time>2016-09-11T15:45:23Z</time>
      </trkpt>
      <trkpt lat="45.25321" lon="5.93419">
        <ele>614</ele>
        <time>2016-09-11T15:45:42Z</time>
      </trkpt>
      <trkpt lat="45.25329" lon="5.93396">
        <ele>613</ele>
        <time>2016-09-11T15:45:55Z</time>
      </trkpt>
      <trkpt lat="45.25335" lon="5.93371">
        <ele>625</ele>
        <time>2016-09-11T15:46:06Z</time>
      </trkpt>
      <trkpt lat="45.25341" lon="5.93346">
        <ele>622</ele>
        <time>2016-09-11T15:46:18Z</time>
      </trkpt>
      <trkpt lat="45.25351" lon="5.93325">
        <ele>624</ele>
        <time>2016-09-11T15:46:32Z</time>
      </trkpt>
      <trkpt lat="45.25347" lon="5.93299">
        <ele>626</ele>
        <time>2016-09-11T15:46:50Z</time>
      </trkpt>
      <trkpt lat="45.25341" lon="5.93274">
        <ele>624</ele>
        <time>2016-09-11T15:47:01Z</time>
      </trkpt>
      <trkpt lat="45.25342" lon="5.93248">
        <ele>620</ele>
        <time>2016-09-11T15:47:15Z</time>
      </trkpt>
      <trkpt lat="45.25342" lon="5.93221">
        <ele>624</ele>
        <time>2016-09-11T15:47:28Z</time>
      </trkpt>
      <trkpt lat="45.25344" lon="5.93195">
        <ele>624</ele>
        <time>2016-09-11T15:47:42Z</time>
      </trkpt>
      <trkpt lat="45.25347" lon="5.93168">
        <ele>622</ele>
        <time>2016-09-11T15:47:55Z</time>
      </trkpt>
      <trkpt lat="45.25344" lon="5.93141">
        <ele>624</ele>
        <time>2016-09-11T15:48:08Z</time>
      </trkpt>
      <trkpt lat="45.25338" lon="5.93115">
        <ele>625</ele>
        <time>2016-09-11T15:48:21Z</time>
      </trkpt>
      <trkpt lat="45.25335" lon="5.93088">
        <ele>622</ele>
        <time>2016-09-11T15:48:34Z</time>
      </trkpt>
      <trkpt lat="45.25327" lon="5.93064">
        <ele>615</ele>
        <time>2016-09-11T15:48:45Z</time>
      </trkpt>
      <trkpt lat="45.25324" lon="5.93038">
        <ele>614</ele>
        <time>2016-09-11T15:48:57Z</time>
      </trkpt>
      <trkpt lat="45.25327" lon="5.93012">
        <ele>618</ele>
        <time>2016-09-11T15:49:11Z</time>
      </trkpt>
      <trkpt lat="45.25334" lon="5.92987">
        <ele>623</ele>
        <time>2016-09-11T15:49:25Z</time>
      </trkpt>
      <trkpt lat="45.2534" lon="5.92961">
        <ele>622</ele>
        <time>2016-09-11T15:49:38Z</time>
      </trkpt>
      <trkpt lat="45.25348" lon="5.92938">
        <ele>620</ele>
        <time>2016-09-11T15:49:52Z</time>
      </trkpt>
      <trkpt lat="45.25354" lon="5.92912">
        <ele>617</ele>
        <time>2016-09-11T15:50:04Z</time>
      </trkpt>
      <trkpt lat="45.25363" lon="5.92887">
        <ele>617</ele>
        <time>2016-09-11T15:50:17Z</time>
      </trkpt>
      <trkpt lat="45.25372" lon="5.92864">
        <ele>617</ele>
        <time>2016-09-11T15:50:30Z</time>
      </trkpt>
      <trkpt lat="45.25377" lon="5.92839">
        <ele>617</ele>
        <time>2016-09-11T15:50:43Z</time>
      </trkpt>
      <trkpt lat="45.25383" lon="5.92812">
        <ele>614</ele>
        <time>2016-09-11T15:50:55Z</time>
      </trkpt>
      <trkpt lat="45.2539" lon="5.92788">
        <ele>613</ele>
        <time>2016-09-11T15:51:07Z</time>
      </trkpt>
      <trkpt lat="45.25395" lon="5.92762">
        <ele>614</ele>
        <time>2016-09-11T15:51:20Z</time>
      </trkpt>
      <trkpt lat="45.25394" lon="5.92735">
        <ele>609</ele>
        <time>2016-09-11T15:51:33Z</time>
      </trkpt>
      <trkpt lat="45.25394" lon="5.92709">
        <ele>607</ele>
        <time>2016-09-11T15:51:45Z</time>
      </trkpt>
      <trkpt lat="45.25394" lon="5.92683">
        <ele>606</ele>
        <time>2016-09-11T15:51:58Z</time>
      </trkpt>
      <trkpt lat="45.25391" lon="5.92657">
        <ele>602</ele>
        <time>2016-09-11T15:52:10Z</time>
      </trkpt>
      <trkpt lat="45.2539" lon="5.92631">
        <ele>600</ele>
        <time>2016-09-11T15:52:23Z</time>
      </trkpt>
      <trkpt lat="45.2539" lon="5.92603">
        <ele>600</ele>
        <time>2016-09-11T15:52:37Z</time>
      </trkpt>
      <trkpt lat="45.25392" lon="5.92576">
        <ele>598</ele>
        <time>2016-09-11T15:52:50Z</time>
      </trkpt>
      <trkpt lat="45.25396" lon="5.92549">
        <ele>597</ele>
        <time>2016-09-11T15:53:03Z</time>
      </trkpt>
      <trkpt lat="45.25402" lon="5.92523">
        <ele>599</ele>
        <time>2016-09-11T15:53:17Z</time>
      </trkpt>
      <trkpt lat="45.25406" lon="5.92497">
        <ele>603</ele>
        <time>2016-09-11T15:53:30Z</time>
      </trkpt>
      <trkpt lat="45.25411" lon="5.92471">
        <ele>598</ele>
        <time>2016-09-11T15:53:43Z</time>
      </trkpt>
      <trkpt lat="45.25415" lon="5.92446">
        <ele>599</ele>
        <time>2016-09-11T15:53:56Z</time>
      </trkpt>
      <trkpt lat="45.25415" lon="5.92418">
        <ele>609</ele>
        <time>2016-09-11T15:54:09Z</time>
      </trkpt>
      <trkpt lat="45.25417" lon="5.92392">
        <ele>621</ele>
        <time>2016-09-11T15:54:22Z</time>
      </trkpt>
      <trkpt lat="45.25416" lon="5.92366">
        <ele>599</ele>
        <time>2016-09-11T15:54:36Z</time>
      </trkpt>
      <trkpt lat="45.25417" lon="5.92338">
        <ele>615</ele>
        <time>2016-09-11T15:54:51Z</time>
      </trkpt>
      <trkpt lat="45.25421" lon="5.92312">
        <ele>616</ele>
        <time>2016-09-11T15:55:07Z</time>
      </trkpt>
      <trkpt lat="45.25425" lon="5.92286">
        <ele>615</ele>
        <time>2016-09-11T15:55:21Z</time>
      </trkpt>
      <trkpt lat="45.25433" lon="5.92263">
        <ele>613</ele>
        <time>2016-09-11T15:55:36Z</time>
      </trkpt>
      <trkpt lat="45.2545" lon="5.92249">
        <ele>606</ele>
        <time>2016-09-11T15:55:50Z</time>
      </trkpt>
      <trkpt lat="45.25469" lon="5.92242">
        <ele>607</ele>
        <time>2016-09-11T15:56:02Z</time>
      </trkpt>
      <trkpt lat="45.25487" lon="5.92241">
        <ele>610</ele>
        <time>2016-09-11T15:56:15Z</time>
      </trkpt>
      <trkpt lat="45.25506" lon="5.92241">
        <ele>615</ele>
        <time>2016-09-11T15:56:31Z</time>
      </trkpt>
      <trkpt lat="45.25524" lon="5.92239">
        <ele>613</ele>
        <time>2016-09-11T15:56:45Z</time>
      </trkpt>
      <trkpt lat="45.25543" lon="5.92231">
        <ele>613</ele>
        <time>2016-09-11T15:56:59Z</time>
      </trkpt>
      <trkpt lat="45.2556" lon="5.92219">
        <ele>613</ele>
        <time>2016-09-11T15:57:11Z</time>
      </trkpt>
      <trkpt lat="45.25576" lon="5.92206">
        <ele>612</ele>
        <time>2016-09-11T15:57:23Z</time>
      </trkpt>
      <trkpt lat="45.25593" lon="5.92194">
        <ele>613</ele>
        <time>2016-09-11T15:57:36Z</time>
      </trkpt>
      <trkpt lat="45.2561" lon="5.92184">
        <ele>613</ele>
        <time>2016-09-11T15:57:50Z</time>
      </trkpt>
      <trkpt lat="45.25629" lon="5.92177">
        <ele>613</ele>
        <time>2016-09-11T15:58:05Z</time>
      </trkpt>
      <trkpt lat="45.25646" lon="5.92165">
        <ele>607</ele>
        <time>2016-09-11T15:58:17Z</time>
      </trkpt>
      <trkpt lat="45.25661" lon="5.9215">
        <ele>607</ele>
        <time>2016-09-11T15:58:30Z</time>
      </trkpt>
      <trkpt lat="45.25677" lon="5.92137">
        <ele>602</ele>
        <time>2016-09-11T15:58:45Z</time>
      </trkpt>
      <trkpt lat="45.25695" lon="5.92129">
        <ele>600</ele>
        <time>2016-09-11T15:58:59Z</time>
      </trkpt>
      <trkpt lat="45.25713" lon="5.92133">
        <ele>599</ele>
        <time>2016-09-11T15:59:13Z</time>
      </trkpt>
      <trkpt lat="45.25729" lon="5.92146">
        <ele>599</ele>
        <time>2016-09-11T15:59:27Z</time>
      </trkpt>
      <trkpt lat="45.25746" lon="5.92158">
        <ele>600</ele>
        <time>2016-09-11T15:59:42Z</time>
      </trkpt>
      <trkpt lat="45.25761" lon="5.92171">
        <ele>598</ele>
        <time>2016-09-11T15:59:54Z</time>
      </trkpt>
      <trkpt lat="45.25779" lon="5.92181">
        <ele>595</ele>
        <time>2016-09-11T16:00:08Z</time>
      </trkpt>
      <trkpt lat="45.25796" lon="5.92189">
        <ele>593</ele>
        <time>2016-09-11T16:00:25Z</time>
      </trkpt>
      <trkpt lat="45.25815" lon="5.92194">
        <ele>590</ele>
        <time>2016-09-11T16:00:40Z</time>
      </trkpt>
      <trkpt lat="45.25833" lon="5.92192">
        <ele>589</ele>
        <time>2016-09-11T16:01:00Z</time>
      </trkpt>
      <trkpt lat="45.25851" lon="5.92195">
        <ele>576</ele>
        <time>2016-09-11T16:01:17Z</time>
      </trkpt>
      <trkpt lat="45.25865" lon="5.92178">
        <ele>574</ele>
        <time>2016-09-11T16:01:39Z</time>
      </trkpt>
      <trkpt lat="45.25883" lon="5.92173">
        <ele>570</ele>
        <time>2016-09-11T16:02:04Z</time>
      </trkpt>
      <trkpt lat="45.25903" lon="5.92177">
        <ele>565</ele>
        <time>2016-09-11T16:02:28Z</time>
      </trkpt>
      <trkpt lat="45.2592" lon="5.92187">
        <ele>553</ele>
        <time>2016-09-11T16:02:44Z</time>
      </trkpt>
      <trkpt lat="45.25935" lon="5.92204">
        <ele>551</ele>
        <time>2016-09-11T16:03:00Z</time>
      </trkpt>
      <trkpt lat="45.25951" lon="5.92219">
        <ele>550</ele>
        <time>2016-09-11T16:03:11Z</time>
      </trkpt>
      <trkpt lat="45.25967" lon="5.92234">
        <ele>548</ele>
        <time>2016-09-11T16:03:25Z</time>
      </trkpt>
      <trkpt lat="45.25981" lon="5.9225">
        <ele>551</ele>
        <time>2016-09-11T16:03:37Z</time>
      </trkpt>
      <trkpt lat="45.25995" lon="5.92267">
        <ele>550</ele>
        <time>2016-09-11T16:03:48Z</time>
      </trkpt>
      <trkpt lat="45.26014" lon="5.92281">
        <ele>534</ele>
        <time>2016-09-11T16:04:01Z</time>
      </trkpt>
      <trkpt lat="45.2603" lon="5.92294">
        <ele>532</ele>
        <time>2016-09-11T16:04:11Z</time>
      </trkpt>
      <trkpt lat="45.26044" lon="5.9231">
        <ele>530</ele>
        <time>2016-09-11T16:04:26Z</time>
      </trkpt>
      <trkpt lat="45.2606" lon="5.92325">
        <ele>526</ele>
        <time>2016-09-11T16:04:40Z</time>
      </trkpt>
      <trkpt lat="45.26072" lon="5.92345">
        <ele>527</ele>
        <time>2016-09-11T16:04:56Z</time>
      </trkpt>
      <trkpt lat="45.26079" lon="5.92368">
        <ele>532</ele>
        <time>2016-09-11T16:05:13Z</time>
      </trkpt>
      <trkpt lat="45.26094" lon="5.92388">
        <ele>512</ele>
        <time>2016-09-11T16:05:26Z</time>
      </trkpt>
      <trkpt lat="45.26108" lon="5.92405">
        <ele>511</ele>
        <time>2016-09-11T16:05:40Z</time>
      </trkpt>
      <trkpt lat="45.26123" lon="5.92423">
        <ele>517</ele>
        <time>2016-09-11T16:05:59Z</time>
      </trkpt>
      <trkpt lat="45.26137" lon="5.9244">
        <ele>515</ele>
        <time>2016-09-11T16:06:16Z</time>
      </trkpt>
      <trkpt lat="45.26154" lon="5.92449">
        <ele>513</ele>
        <time>2016-09-11T16:06:24Z</time>
      </trkpt>
      <trkpt lat="45.26168" lon="5.92468">
        <ele>498</ele>
        <time>2016-09-11T16:06:40Z</time>
      </trkpt>
      <trkpt lat="45.26184" lon="5.92482">
        <ele>499</ele>
        <time>2016-09-11T16:06:55Z</time>
      </trkpt>
      <trkpt lat="45.26198" lon="5.92497">
        <ele>497</ele>
        <time>2016-09-11T16:07:11Z</time>
      </trkpt>
      <trkpt lat="45.26212" lon="5.92515">
        <ele>502</ele>
        <time>2016-09-11T16:07:25Z</time>
      </trkpt>
      <trkpt lat="45.26227" lon="5.92532">
        <ele>500</ele>
        <time>2016-09-11T16:07:37Z</time>
      </trkpt>
      <trkpt lat="45.2624" lon="5.92551">
        <ele>500</ele>
        <time>2016-09-11T16:07:49Z</time>
      </trkpt>
      <trkpt lat="45.26252" lon="5.92571">
        <ele>489</ele>
        <time>2016-09-11T16:08:03Z</time>
      </trkpt>
      <trkpt lat="45.2627" lon="5.92569">
        <ele>487</ele>
        <time>2016-09-11T16:08:19Z</time>
      </trkpt>
      <trkpt lat="45.26284" lon="5.92551">
        <ele>484</ele>
        <time>2016-09-11T16:08:31Z</time>
      </trkpt>
      <trkpt lat="45.26298" lon="5.92533">
        <ele>483</ele>
        <time>2016-09-11T16:08:47Z</time>
      </trkpt>
      <trkpt lat="45.26316" lon="5.92527">
        <ele>481</ele>
        <time>2016-09-11T16:09:07Z</time>
      </trkpt>
      <trkpt lat="45.26335" lon="5.9253">
        <ele>471</ele>
        <time>2016-09-11T16:09:24Z</time>
      </trkpt>
      <trkpt lat="45.26354" lon="5.92532">
        <ele>469</ele>
        <time>2016-09-11T16:09:39Z</time>
      </trkpt>
      <trkpt lat="45.26372" lon="5.92532">
        <ele>467</ele>
        <time>2016-09-11T16:09:58Z</time>
      </trkpt>
      <trkpt lat="45.26391" lon="5.92533">
        <ele>465</ele>
        <time>2016-09-11T16:10:20Z</time>
      </trkpt>
      <trkpt lat="45.26409" lon="5.92528">
        <ele>462</ele>
        <time>2016-09-11T16:10:45Z</time>
      </trkpt>
      <trkpt lat="45.26427" lon="5.92533">
        <ele>448</ele>
        <time>2016-09-11T16:11:03Z</time>
      </trkpt>
      <trkpt lat="45.26445" lon="5.92522">
        <ele>446</ele>
        <time>2016-09-11T16:11:24Z</time>
      </trkpt>
      <trkpt lat="45.26464" lon="5.92514">
        <ele>443</ele>
        <time>2016-09-11T16:11:48Z</time>
      </trkpt>
      <trkpt lat="45.26482" lon="5.92518">
        <ele>439</ele>
        <time>2016-09-11T16:12:10Z</time>
      </trkpt>
      <trkpt lat="45.26501" lon="5.92522">
        <ele>424</ele>
        <time>2016-09-11T16:12:28Z</time>
      </trkpt>
      <trkpt lat="45.2652" lon="5.92524">
        <ele>422</ele>
        <time>2016-09-11T16:12:48Z</time>
      </trkpt>
      <trkpt lat="45.26539" lon="5.92536">
        <ele>419</ele>
        <time>2016-09-11T16:13:17Z</time>
      </trkpt>
      <trkpt lat="45.26558" lon="5.92538">
        <ele>416</ele>
        <time>2016-09-11T16:13:30Z</time>
      </trkpt>
      <trkpt lat="45.26574" lon="5.92523">
        <ele>412</ele>
        <time>2016-09-11T16:13:43Z</time>
      </trkpt>
      <trkpt lat="45.26588" lon="5.92507">
        <ele>400</ele>
        <time>2016-09-11T16:13:55Z</time>
      </trkpt>
      <trkpt lat="45.26598" lon="5.92484">
        <ele>393</ele>
        <time>2016-09-11T16:14:15Z</time>
      </trkpt>
      <trkpt lat="45.26615" lon="5.92475">
        <ele>389</ele>
        <time>2016-09-11T16:14:49Z</time>
      </trkpt>
      <trkpt lat="45.26634" lon="5.92484">
        <ele>387</ele>
        <time>2016-09-11T16:15:03Z</time>
      </trkpt>
      <trkpt lat="45.2665" lon="5.92472">
        <ele>385</ele>
        <time>2016-09-11T16:15:40Z</time>
      </trkpt>
      <trkpt lat="45.26665" lon="5.92456">
        <ele>384</ele>
        <time>2016-09-11T16:16:03Z</time>
      </trkpt>
      <trkpt lat="45.26672" lon="5.92482">
        <ele>375</ele>
        <time>2016-09-11T16:16:28Z</time>
      </trkpt>
      <trkpt lat="45.2669" lon="5.92485">
        <ele>373</ele>
        <time>2016-09-11T16:16:59Z</time>
      </trkpt>
      <trkpt lat="45.26704" lon="5.92468">
        <ele>371</ele>
        <time>2016-09-11T16:17:15Z</time>
      </trkpt>
      <trkpt lat="45.2672" lon="5.92452">
        <ele>368</ele>
        <time>2016-09-11T16:17:29Z</time>
      </trkpt>
      <trkpt lat="45.26734" lon="5.92435">
        <ele>363</ele>
        <time>2016-09-11T16:17:43Z</time>
      </trkpt>
      <trkpt lat="45.26748" lon="5.92417">
        <ele>354</ele>
        <time>2016-09-11T16:17:58Z</time>
      </trkpt>
      <trkpt lat="45.26765" lon="5.92405">
        <ele>347</ele>
        <time>2016-09-11T16:18:11Z</time>
      </trkpt>
      <trkpt lat="45.26783" lon="5.92399">
        <ele>344</ele>
        <time>2016-09-11T16:18:22Z</time>
      </trkpt>
      <trkpt lat="45.26803" lon="5.92404">
        <ele>343</ele>
        <time>2016-09-11T16:18:40Z</time>
      </trkpt>
      <trkpt lat="45.26821" lon="5.92419">
        <ele>348</ele>
        <time>2016-09-11T16:18:51Z</time>
      </trkpt>
      <trkpt lat="45.26836" lon="5.92435">
        <ele>342</ele>
        <time>2016-09-11T16:19:04Z</time>
      </trkpt>
      <trkpt lat="45.26851" lon="5.92451">
        <ele>341</ele>
        <time>2016-09-11T16:19:17Z</time>
      </trkpt>
      <trkpt lat="45.26868" lon="5.92466">
        <ele>340</ele>
        <time>2016-09-11T16:19:27Z</time>
      </trkpt>
      <trkpt lat="45.2688" lon="5.92484">
        <ele>339</ele>
        <time>2016-09-11T16:19:39Z</time>
      </trkpt>
      <trkpt lat="45.26891" lon="5.92504">
        <ele>343</ele>
        <time>2016-09-11T16:19:52Z</time>
      </trkpt>
      <trkpt lat="45.26909" lon="5.92514">
        <ele>340</ele>
        <time>2016-09-11T16:20:10Z</time>
      </trkpt>
      <trkpt lat="45.26928" lon="5.92514">
        <ele>330</ele>
        <time>2016-09-11T16:20:28Z</time>
      </trkpt>
      <trkpt lat="45.26946" lon="5.9252">
        <ele>328</ele>
        <time>2016-09-11T16:20:44Z</time>
      </trkpt>
      <trkpt lat="45.26962" lon="5.92536">
        <ele>326</ele>
        <time>2016-09-11T16:20:58Z</time>
      </trkpt>
      <trkpt lat="45.26978" lon="5.92552">
        <ele>325</ele>
        <time>2016-09-11T16:21:10Z</time>
      </trkpt>
      <trkpt lat="45.26991" lon="5.92571">
        <ele>324</ele>
        <time>2016-09-11T16:21:22Z</time>
      </trkpt>
      <trkpt lat="45.27006" lon="5.92586">
        <ele>321</ele>
        <time>2016-09-11T16:21:39Z</time>
      </trkpt>
      <trkpt lat="45.27024" lon="5.92582">
        <ele>310</ele>
        <time>2016-09-11T16:22:02Z</time>
      </trkpt>
      <trkpt lat="45.27042" lon="5.92573">
        <ele>305</ele>
        <time>2016-09-11T16:22:23Z</time>
      </trkpt>
      <trkpt lat="45.2706" lon="5.92578">
        <ele>303</ele>
        <time>2016-09-11T16:22:45Z</time>
      </trkpt>
      <trkpt lat="45.27079" lon="5.9258">
        <ele>301</ele>
        <time>2016-09-11T16:23:01Z</time>
      </trkpt>
      <trkpt lat="45.27098" lon="5.92581">
        <ele>291</ele>
        <time>2016-09-11T16:23:12Z</time>
      </trkpt>
      <trkpt lat="45.27116" lon="5.92579">
        <ele>285</ele>
        <time>2016-09-11T16:23:24Z</time>
      </trkpt>
      <trkpt lat="45.27135" lon="5.92581">
        <ele>282</ele>
        <time>2016-09-11T16:23:33Z</time>
      </trkpt>
      <trkpt lat="45.27153" lon="5.92586">
        <ele>290</ele>
        <time>2016-09-11T16:23:47Z</time>
      </trkpt>
      <trkpt lat="45.2717" lon="5.92593">
        <ele>281</ele>
        <time>2016-09-11T16:23:57Z</time>
      </trkpt>
      <trkpt lat="45.27188" lon="5.92599">
        <ele>278</ele>
        <time>2016-09-11T16:24:05Z</time>
      </trkpt>
      <trkpt lat="45.27204" lon="5.92611">
        <ele>276</ele>
        <time>2016-09-11T16:24:25Z</time>
      </trkpt>
      <trkpt lat="45.27224" lon="5.92623">
        <ele>274</ele>
        <time>2016-09-11T16:24:37Z</time>
      </trkpt>
      <trkpt lat="45.2724" lon="5.92637">
        <ele>272</ele>
        <time>2016-09-11T16:24:44Z</time>
      </trkpt>
      <trkpt lat="45.27248" lon="5.9266">
        <ele>269</ele>
        <time>2016-09-11T16:24:57Z</time>
      </trkpt>
      <trkpt lat="45.27265" lon="5.9265">
        <ele>260</ele>
        <time>2016-09-11T16:25:19Z</time>
      </trkpt>
      <trkpt lat="45.27284" lon="5.92643">
        <ele>258</ele>
        <time>2016-09-11T16:25:32Z</time>
      </trkpt>
      <trkpt lat="45.27301" lon="5.92634">
        <ele>256</ele>
        <time>2016-09-11T16:25:45Z</time>
      </trkpt>
      <trkpt lat="45.27309" lon="5.92611">
        <ele>254</ele>
        <time>2016-09-11T16:26:07Z</time>
      </trkpt>
      <trkpt lat="45.27298" lon="5.92589">
        <ele>254</ele>
        <time>2016-09-11T16:26:23Z</time>
      </trkpt>
      <trkpt lat="45.27284" lon="5.92567">
        <ele>250</ele>
        <time>2016-09-11T16:26:33Z</time>
      </trkpt>
      <trkpt lat="45.27275" lon="5.92544">
        <ele>249</ele>
        <time>2016-09-11T16:26:47Z</time>
      </trkpt>
    </trkseg>
  </trk>
</gpx>